<?xml version="1.0" encoding="UTF-8" standalone="no" ?>
<gpx xmlns="http://www.topografix.com/GPX/1/1" xmlns:xsi="http://www.w3.org/2001/XMLSchema-instance" xsi:schemaLocation="http://www.topografix.com/GPX/1/1 http://www.topografix.com/GPX/1/1/gpx.xsd" version="1.1" creator="VisuGPX - https://www.visugpx.com">
  <metadata>
    <name>Massif de l'Etoile</name>
    <desc><![CDATA[Démarrage depuis le chemin de la liberté à Simiane. Boucle en passant par le Massif de l'étoile et le Pilon du Roy.]]></desc>
  </metadata>
  <trk>
    <name><![CDATA[Massif de l'Etoile_1]]></name>
    <trkseg>
      <trkpt lat="43.41443" lon="5.43008">
        <ele>303</ele>
        <time>2016-10-29T08:07:25Z</time>
      </trkpt>
      <trkpt lat="43.41454" lon="5.42974">
        <ele>314</ele>
        <time>2016-10-29T08:09:10Z</time>
      </trkpt>
      <trkpt lat="43.41455" lon="5.42962">
        <ele>314</ele>
        <time>2016-10-29T08:09:19Z</time>
      </trkpt>
      <trkpt lat="43.41454" lon="5.42955">
        <ele>316</ele>
        <time>2016-10-29T08:09:30Z</time>
      </trkpt>
      <trkpt lat="43.41457" lon="5.42948">
        <ele>316</ele>
        <time>2016-10-29T08:09:39Z</time>
      </trkpt>
      <trkpt lat="43.41457" lon="5.42943">
        <ele>316</ele>
        <time>2016-10-29T08:09:49Z</time>
      </trkpt>
      <trkpt lat="43.41459" lon="5.42938">
        <ele>314</ele>
        <time>2016-10-29T08:10:00Z</time>
      </trkpt>
      <trkpt lat="43.4146" lon="5.42929">
        <ele>309</ele>
        <time>2016-10-29T08:10:09Z</time>
      </trkpt>
      <trkpt lat="43.41463" lon="5.42919">
        <ele>309</ele>
        <time>2016-10-29T08:10:21Z</time>
      </trkpt>
      <trkpt lat="43.41466" lon="5.42907">
        <ele>309</ele>
        <time>2016-10-29T08:10:30Z</time>
      </trkpt>
      <trkpt lat="43.41468" lon="5.42896">
        <ele>309</ele>
        <time>2016-10-29T08:10:39Z</time>
      </trkpt>
      <trkpt lat="43.41467" lon="5.42884">
        <ele>310</ele>
        <time>2016-10-29T08:10:48Z</time>
      </trkpt>
      <trkpt lat="43.41464" lon="5.42874">
        <ele>311</ele>
        <time>2016-10-29T08:10:58Z</time>
      </trkpt>
      <trkpt lat="43.4146" lon="5.42863">
        <ele>313</ele>
        <time>2016-10-29T08:11:08Z</time>
      </trkpt>
      <trkpt lat="43.41458" lon="5.42852">
        <ele>313</ele>
        <time>2016-10-29T08:11:17Z</time>
      </trkpt>
      <trkpt lat="43.41455" lon="5.42839">
        <ele>314</ele>
        <time>2016-10-29T08:11:27Z</time>
      </trkpt>
      <trkpt lat="43.41452" lon="5.42827">
        <ele>314</ele>
        <time>2016-10-29T08:11:36Z</time>
      </trkpt>
      <trkpt lat="43.41452" lon="5.42813">
        <ele>314</ele>
        <time>2016-10-29T08:11:46Z</time>
      </trkpt>
      <trkpt lat="43.41452" lon="5.42802">
        <ele>314</ele>
        <time>2016-10-29T08:11:55Z</time>
      </trkpt>
      <trkpt lat="43.41451" lon="5.42788">
        <ele>314</ele>
        <time>2016-10-29T08:12:04Z</time>
      </trkpt>
      <trkpt lat="43.4145" lon="5.42774">
        <ele>314</ele>
        <time>2016-10-29T08:12:13Z</time>
      </trkpt>
      <trkpt lat="43.4145" lon="5.42759">
        <ele>314</ele>
        <time>2016-10-29T08:12:23Z</time>
      </trkpt>
      <trkpt lat="43.4145" lon="5.42742">
        <ele>310</ele>
        <time>2016-10-29T08:12:33Z</time>
      </trkpt>
      <trkpt lat="43.41449" lon="5.42729">
        <ele>310</ele>
        <time>2016-10-29T08:12:43Z</time>
      </trkpt>
      <trkpt lat="43.41449" lon="5.42713">
        <ele>310</ele>
        <time>2016-10-29T08:12:53Z</time>
      </trkpt>
      <trkpt lat="43.41451" lon="5.42698">
        <ele>310</ele>
        <time>2016-10-29T08:13:02Z</time>
      </trkpt>
      <trkpt lat="43.41452" lon="5.42682">
        <ele>310</ele>
        <time>2016-10-29T08:13:11Z</time>
      </trkpt>
      <trkpt lat="43.41454" lon="5.42669">
        <ele>310</ele>
        <time>2016-10-29T08:13:20Z</time>
      </trkpt>
      <trkpt lat="43.41453" lon="5.42657">
        <ele>309</ele>
        <time>2016-10-29T08:13:29Z</time>
      </trkpt>
      <trkpt lat="43.41453" lon="5.42643">
        <ele>306</ele>
        <time>2016-10-29T08:13:39Z</time>
      </trkpt>
      <trkpt lat="43.41455" lon="5.4263">
        <ele>306</ele>
        <time>2016-10-29T08:13:48Z</time>
      </trkpt>
      <trkpt lat="43.41458" lon="5.42618">
        <ele>306</ele>
        <time>2016-10-29T08:13:57Z</time>
      </trkpt>
      <trkpt lat="43.41457" lon="5.42606">
        <ele>306</ele>
        <time>2016-10-29T08:14:06Z</time>
      </trkpt>
      <trkpt lat="43.41455" lon="5.42594">
        <ele>303</ele>
        <time>2016-10-29T08:14:15Z</time>
      </trkpt>
      <trkpt lat="43.41455" lon="5.42591">
        <ele>297</ele>
        <time>2016-10-29T08:14:24Z</time>
      </trkpt>
      <trkpt lat="43.41454" lon="5.42594">
        <ele>297</ele>
        <time>2016-10-29T08:14:33Z</time>
      </trkpt>
      <trkpt lat="43.41453" lon="5.42592">
        <ele>299</ele>
        <time>2016-10-29T08:14:47Z</time>
      </trkpt>
      <trkpt lat="43.41447" lon="5.42588">
        <ele>294</ele>
        <time>2016-10-29T08:14:58Z</time>
      </trkpt>
      <trkpt lat="43.41438" lon="5.4259">
        <ele>293</ele>
        <time>2016-10-29T08:15:08Z</time>
      </trkpt>
      <trkpt lat="43.41426" lon="5.42591">
        <ele>291</ele>
        <time>2016-10-29T08:15:18Z</time>
      </trkpt>
      <trkpt lat="43.41415" lon="5.42594">
        <ele>288</ele>
        <time>2016-10-29T08:15:27Z</time>
      </trkpt>
      <trkpt lat="43.41407" lon="5.42595">
        <ele>288</ele>
        <time>2016-10-29T08:15:36Z</time>
      </trkpt>
      <trkpt lat="43.41395" lon="5.42593">
        <ele>291</ele>
        <time>2016-10-29T08:15:45Z</time>
      </trkpt>
      <trkpt lat="43.41388" lon="5.42589">
        <ele>295</ele>
        <time>2016-10-29T08:15:55Z</time>
      </trkpt>
      <trkpt lat="43.41379" lon="5.42584">
        <ele>298</ele>
        <time>2016-10-29T08:16:05Z</time>
      </trkpt>
      <trkpt lat="43.4137" lon="5.42578">
        <ele>298</ele>
        <time>2016-10-29T08:16:15Z</time>
      </trkpt>
      <trkpt lat="43.41362" lon="5.42568">
        <ele>299</ele>
        <time>2016-10-29T08:16:24Z</time>
      </trkpt>
      <trkpt lat="43.41352" lon="5.42556">
        <ele>299</ele>
        <time>2016-10-29T08:16:33Z</time>
      </trkpt>
      <trkpt lat="43.41345" lon="5.42543">
        <ele>297</ele>
        <time>2016-10-29T08:16:42Z</time>
      </trkpt>
      <trkpt lat="43.41339" lon="5.42534">
        <ele>296</ele>
        <time>2016-10-29T08:16:52Z</time>
      </trkpt>
      <trkpt lat="43.41332" lon="5.42525">
        <ele>296</ele>
        <time>2016-10-29T08:17:02Z</time>
      </trkpt>
      <trkpt lat="43.41322" lon="5.42517">
        <ele>296</ele>
        <time>2016-10-29T08:17:12Z</time>
      </trkpt>
      <trkpt lat="43.41313" lon="5.42509">
        <ele>296</ele>
        <time>2016-10-29T08:17:21Z</time>
      </trkpt>
      <trkpt lat="43.41305" lon="5.42501">
        <ele>297</ele>
        <time>2016-10-29T08:17:31Z</time>
      </trkpt>
      <trkpt lat="43.41296" lon="5.42497">
        <ele>297</ele>
        <time>2016-10-29T08:17:40Z</time>
      </trkpt>
      <trkpt lat="43.41285" lon="5.42493">
        <ele>297</ele>
        <time>2016-10-29T08:17:49Z</time>
      </trkpt>
      <trkpt lat="43.41274" lon="5.42493">
        <ele>297</ele>
        <time>2016-10-29T08:17:59Z</time>
      </trkpt>
      <trkpt lat="43.4126" lon="5.42498">
        <ele>295</ele>
        <time>2016-10-29T08:18:08Z</time>
      </trkpt>
      <trkpt lat="43.41254" lon="5.42506">
        <ele>296</ele>
        <time>2016-10-29T08:18:18Z</time>
      </trkpt>
      <trkpt lat="43.41247" lon="5.42516">
        <ele>297</ele>
        <time>2016-10-29T08:18:27Z</time>
      </trkpt>
      <trkpt lat="43.41239" lon="5.42525">
        <ele>297</ele>
        <time>2016-10-29T08:18:36Z</time>
      </trkpt>
      <trkpt lat="43.41231" lon="5.42532">
        <ele>303</ele>
        <time>2016-10-29T08:18:45Z</time>
      </trkpt>
      <trkpt lat="43.41223" lon="5.42546">
        <ele>302</ele>
        <time>2016-10-29T08:18:54Z</time>
      </trkpt>
      <trkpt lat="43.41216" lon="5.42558">
        <ele>302</ele>
        <time>2016-10-29T08:19:04Z</time>
      </trkpt>
      <trkpt lat="43.41204" lon="5.42568">
        <ele>302</ele>
        <time>2016-10-29T08:19:13Z</time>
      </trkpt>
      <trkpt lat="43.41195" lon="5.42579">
        <ele>302</ele>
        <time>2016-10-29T08:19:23Z</time>
      </trkpt>
      <trkpt lat="43.41186" lon="5.42589">
        <ele>302</ele>
        <time>2016-10-29T08:19:32Z</time>
      </trkpt>
      <trkpt lat="43.41177" lon="5.42598">
        <ele>295</ele>
        <time>2016-10-29T08:19:42Z</time>
      </trkpt>
      <trkpt lat="43.41169" lon="5.42603">
        <ele>294</ele>
        <time>2016-10-29T08:19:51Z</time>
      </trkpt>
      <trkpt lat="43.41156" lon="5.42607">
        <ele>297</ele>
        <time>2016-10-29T08:20:00Z</time>
      </trkpt>
      <trkpt lat="43.41146" lon="5.4261">
        <ele>299</ele>
        <time>2016-10-29T08:20:09Z</time>
      </trkpt>
      <trkpt lat="43.41134" lon="5.42615">
        <ele>299</ele>
        <time>2016-10-29T08:20:18Z</time>
      </trkpt>
      <trkpt lat="43.41124" lon="5.42621">
        <ele>297</ele>
        <time>2016-10-29T08:20:27Z</time>
      </trkpt>
      <trkpt lat="43.41116" lon="5.4263">
        <ele>297</ele>
        <time>2016-10-29T08:20:36Z</time>
      </trkpt>
      <trkpt lat="43.41108" lon="5.42638">
        <ele>302</ele>
        <time>2016-10-29T08:20:46Z</time>
      </trkpt>
      <trkpt lat="43.41104" lon="5.42651">
        <ele>309</ele>
        <time>2016-10-29T08:20:55Z</time>
      </trkpt>
      <trkpt lat="43.41102" lon="5.42663">
        <ele>309</ele>
        <time>2016-10-29T08:21:05Z</time>
      </trkpt>
      <trkpt lat="43.41103" lon="5.42669">
        <ele>301</ele>
        <time>2016-10-29T08:21:21Z</time>
      </trkpt>
      <trkpt lat="43.41097" lon="5.4268">
        <ele>299</ele>
        <time>2016-10-29T08:21:30Z</time>
      </trkpt>
      <trkpt lat="43.41089" lon="5.42691">
        <ele>299</ele>
        <time>2016-10-29T08:21:40Z</time>
      </trkpt>
      <trkpt lat="43.41079" lon="5.427">
        <ele>299</ele>
        <time>2016-10-29T08:21:50Z</time>
      </trkpt>
      <trkpt lat="43.41069" lon="5.42706">
        <ele>299</ele>
        <time>2016-10-29T08:22:00Z</time>
      </trkpt>
      <trkpt lat="43.41058" lon="5.4271">
        <ele>300</ele>
        <time>2016-10-29T08:22:09Z</time>
      </trkpt>
      <trkpt lat="43.41048" lon="5.42718">
        <ele>301</ele>
        <time>2016-10-29T08:22:18Z</time>
      </trkpt>
      <trkpt lat="43.4104" lon="5.42725">
        <ele>305</ele>
        <time>2016-10-29T08:22:28Z</time>
      </trkpt>
      <trkpt lat="43.41028" lon="5.42727">
        <ele>308</ele>
        <time>2016-10-29T08:22:37Z</time>
      </trkpt>
      <trkpt lat="43.41017" lon="5.42731">
        <ele>308</ele>
        <time>2016-10-29T08:22:46Z</time>
      </trkpt>
      <trkpt lat="43.41007" lon="5.42733">
        <ele>308</ele>
        <time>2016-10-29T08:22:55Z</time>
      </trkpt>
      <trkpt lat="43.40995" lon="5.42736">
        <ele>308</ele>
        <time>2016-10-29T08:23:04Z</time>
      </trkpt>
      <trkpt lat="43.40983" lon="5.42739">
        <ele>308</ele>
        <time>2016-10-29T08:23:13Z</time>
      </trkpt>
      <trkpt lat="43.40973" lon="5.42742">
        <ele>309</ele>
        <time>2016-10-29T08:23:22Z</time>
      </trkpt>
      <trkpt lat="43.40962" lon="5.42743">
        <ele>313</ele>
        <time>2016-10-29T08:23:31Z</time>
      </trkpt>
      <trkpt lat="43.40953" lon="5.42743">
        <ele>313</ele>
        <time>2016-10-29T08:23:40Z</time>
      </trkpt>
      <trkpt lat="43.40942" lon="5.42744">
        <ele>312</ele>
        <time>2016-10-29T08:23:50Z</time>
      </trkpt>
      <trkpt lat="43.40931" lon="5.42745">
        <ele>312</ele>
        <time>2016-10-29T08:23:59Z</time>
      </trkpt>
      <trkpt lat="43.4092" lon="5.42746">
        <ele>313</ele>
        <time>2016-10-29T08:24:09Z</time>
      </trkpt>
      <trkpt lat="43.40908" lon="5.42748">
        <ele>314</ele>
        <time>2016-10-29T08:24:18Z</time>
      </trkpt>
      <trkpt lat="43.40896" lon="5.4275">
        <ele>319</ele>
        <time>2016-10-29T08:24:29Z</time>
      </trkpt>
      <trkpt lat="43.40884" lon="5.42749">
        <ele>321</ele>
        <time>2016-10-29T08:24:38Z</time>
      </trkpt>
      <trkpt lat="43.40871" lon="5.42753">
        <ele>321</ele>
        <time>2016-10-29T08:24:48Z</time>
      </trkpt>
      <trkpt lat="43.40862" lon="5.42752">
        <ele>319</ele>
        <time>2016-10-29T08:24:58Z</time>
      </trkpt>
      <trkpt lat="43.40853" lon="5.4275">
        <ele>319</ele>
        <time>2016-10-29T08:25:07Z</time>
      </trkpt>
      <trkpt lat="43.40839" lon="5.42754">
        <ele>319</ele>
        <time>2016-10-29T08:25:16Z</time>
      </trkpt>
      <trkpt lat="43.40828" lon="5.42753">
        <ele>316</ele>
        <time>2016-10-29T08:25:26Z</time>
      </trkpt>
      <trkpt lat="43.40818" lon="5.42748">
        <ele>315</ele>
        <time>2016-10-29T08:25:36Z</time>
      </trkpt>
      <trkpt lat="43.40808" lon="5.42745">
        <ele>313</ele>
        <time>2016-10-29T08:25:46Z</time>
      </trkpt>
      <trkpt lat="43.40795" lon="5.42746">
        <ele>320</ele>
        <time>2016-10-29T08:25:55Z</time>
      </trkpt>
      <trkpt lat="43.40786" lon="5.42744">
        <ele>324</ele>
        <time>2016-10-29T08:26:04Z</time>
      </trkpt>
      <trkpt lat="43.40774" lon="5.42748">
        <ele>324</ele>
        <time>2016-10-29T08:26:14Z</time>
      </trkpt>
      <trkpt lat="43.40762" lon="5.42749">
        <ele>323</ele>
        <time>2016-10-29T08:26:23Z</time>
      </trkpt>
      <trkpt lat="43.40752" lon="5.42753">
        <ele>323</ele>
        <time>2016-10-29T08:26:32Z</time>
      </trkpt>
      <trkpt lat="43.40742" lon="5.42755">
        <ele>323</ele>
        <time>2016-10-29T08:26:42Z</time>
      </trkpt>
      <trkpt lat="43.4073" lon="5.42761">
        <ele>324</ele>
        <time>2016-10-29T08:26:52Z</time>
      </trkpt>
      <trkpt lat="43.4072" lon="5.42765">
        <ele>324</ele>
        <time>2016-10-29T08:27:01Z</time>
      </trkpt>
      <trkpt lat="43.40715" lon="5.42775">
        <ele>324</ele>
        <time>2016-10-29T08:27:11Z</time>
      </trkpt>
      <trkpt lat="43.40707" lon="5.42782">
        <ele>324</ele>
        <time>2016-10-29T08:27:20Z</time>
      </trkpt>
      <trkpt lat="43.40697" lon="5.42785">
        <ele>324</ele>
        <time>2016-10-29T08:27:29Z</time>
      </trkpt>
      <trkpt lat="43.40684" lon="5.42792">
        <ele>324</ele>
        <time>2016-10-29T08:27:40Z</time>
      </trkpt>
      <trkpt lat="43.40676" lon="5.42797">
        <ele>324</ele>
        <time>2016-10-29T08:27:49Z</time>
      </trkpt>
      <trkpt lat="43.40667" lon="5.42804">
        <ele>324</ele>
        <time>2016-10-29T08:27:58Z</time>
      </trkpt>
      <trkpt lat="43.40657" lon="5.42814">
        <ele>328</ele>
        <time>2016-10-29T08:28:09Z</time>
      </trkpt>
      <trkpt lat="43.40652" lon="5.42818">
        <ele>333</ele>
        <time>2016-10-29T08:28:18Z</time>
      </trkpt>
      <trkpt lat="43.40645" lon="5.42823">
        <ele>337</ele>
        <time>2016-10-29T08:28:27Z</time>
      </trkpt>
      <trkpt lat="43.40636" lon="5.42829">
        <ele>341</ele>
        <time>2016-10-29T08:28:37Z</time>
      </trkpt>
      <trkpt lat="43.40623" lon="5.42838">
        <ele>341</ele>
        <time>2016-10-29T08:28:48Z</time>
      </trkpt>
      <trkpt lat="43.40611" lon="5.42838">
        <ele>340</ele>
        <time>2016-10-29T08:29:00Z</time>
      </trkpt>
      <trkpt lat="43.40599" lon="5.42831">
        <ele>339</ele>
        <time>2016-10-29T08:29:11Z</time>
      </trkpt>
      <trkpt lat="43.40591" lon="5.42821">
        <ele>338</ele>
        <time>2016-10-29T08:29:20Z</time>
      </trkpt>
      <trkpt lat="43.40585" lon="5.42812">
        <ele>334</ele>
        <time>2016-10-29T08:29:30Z</time>
      </trkpt>
      <trkpt lat="43.40574" lon="5.428">
        <ele>334</ele>
        <time>2016-10-29T08:29:40Z</time>
      </trkpt>
      <trkpt lat="43.40567" lon="5.42791">
        <ele>334</ele>
        <time>2016-10-29T08:29:49Z</time>
      </trkpt>
      <trkpt lat="43.40559" lon="5.42784">
        <ele>334</ele>
        <time>2016-10-29T08:30:01Z</time>
      </trkpt>
      <trkpt lat="43.40553" lon="5.42774">
        <ele>336</ele>
        <time>2016-10-29T08:30:11Z</time>
      </trkpt>
      <trkpt lat="43.40548" lon="5.42757">
        <ele>338</ele>
        <time>2016-10-29T08:30:20Z</time>
      </trkpt>
      <trkpt lat="43.40543" lon="5.42748">
        <ele>341</ele>
        <time>2016-10-29T08:30:30Z</time>
      </trkpt>
      <trkpt lat="43.40543" lon="5.42728">
        <ele>347</ele>
        <time>2016-10-29T08:30:39Z</time>
      </trkpt>
      <trkpt lat="43.40543" lon="5.42707">
        <ele>342</ele>
        <time>2016-10-29T08:30:49Z</time>
      </trkpt>
      <trkpt lat="43.40537" lon="5.42704">
        <ele>340</ele>
        <time>2016-10-29T08:30:59Z</time>
      </trkpt>
      <trkpt lat="43.40533" lon="5.42694">
        <ele>341</ele>
        <time>2016-10-29T08:31:08Z</time>
      </trkpt>
      <trkpt lat="43.40528" lon="5.42685">
        <ele>343</ele>
        <time>2016-10-29T08:31:18Z</time>
      </trkpt>
      <trkpt lat="43.4052" lon="5.42677">
        <ele>344</ele>
        <time>2016-10-29T08:31:27Z</time>
      </trkpt>
      <trkpt lat="43.40516" lon="5.42673">
        <ele>348</ele>
        <time>2016-10-29T08:31:36Z</time>
      </trkpt>
      <trkpt lat="43.40505" lon="5.42662">
        <ele>350</ele>
        <time>2016-10-29T08:31:45Z</time>
      </trkpt>
      <trkpt lat="43.40494" lon="5.42651">
        <ele>347</ele>
        <time>2016-10-29T08:31:54Z</time>
      </trkpt>
      <trkpt lat="43.40485" lon="5.4264">
        <ele>345</ele>
        <time>2016-10-29T08:32:04Z</time>
      </trkpt>
      <trkpt lat="43.40479" lon="5.42631">
        <ele>345</ele>
        <time>2016-10-29T08:32:14Z</time>
      </trkpt>
      <trkpt lat="43.40472" lon="5.4262">
        <ele>345</ele>
        <time>2016-10-29T08:32:24Z</time>
      </trkpt>
      <trkpt lat="43.40467" lon="5.42613">
        <ele>345</ele>
        <time>2016-10-29T08:32:33Z</time>
      </trkpt>
      <trkpt lat="43.40461" lon="5.4261">
        <ele>346</ele>
        <time>2016-10-29T08:32:43Z</time>
      </trkpt>
      <trkpt lat="43.40453" lon="5.42604">
        <ele>347</ele>
        <time>2016-10-29T08:32:53Z</time>
      </trkpt>
      <trkpt lat="43.40444" lon="5.42605">
        <ele>350</ele>
        <time>2016-10-29T08:33:02Z</time>
      </trkpt>
      <trkpt lat="43.40435" lon="5.4261">
        <ele>355</ele>
        <time>2016-10-29T08:33:11Z</time>
      </trkpt>
      <trkpt lat="43.40427" lon="5.42613">
        <ele>356</ele>
        <time>2016-10-29T08:33:20Z</time>
      </trkpt>
      <trkpt lat="43.40415" lon="5.42618">
        <ele>356</ele>
        <time>2016-10-29T08:33:30Z</time>
      </trkpt>
      <trkpt lat="43.40405" lon="5.42626">
        <ele>355</ele>
        <time>2016-10-29T08:33:40Z</time>
      </trkpt>
      <trkpt lat="43.40397" lon="5.42634">
        <ele>354</ele>
        <time>2016-10-29T08:33:50Z</time>
      </trkpt>
      <trkpt lat="43.4039" lon="5.4264">
        <ele>354</ele>
        <time>2016-10-29T08:34:00Z</time>
      </trkpt>
      <trkpt lat="43.40384" lon="5.42634">
        <ele>357</ele>
        <time>2016-10-29T08:34:11Z</time>
      </trkpt>
      <trkpt lat="43.40386" lon="5.42623">
        <ele>357</ele>
        <time>2016-10-29T08:34:20Z</time>
      </trkpt>
      <trkpt lat="43.40392" lon="5.42616">
        <ele>357</ele>
        <time>2016-10-29T08:34:29Z</time>
      </trkpt>
      <trkpt lat="43.40401" lon="5.42611">
        <ele>357</ele>
        <time>2016-10-29T08:34:38Z</time>
      </trkpt>
      <trkpt lat="43.4041" lon="5.42605">
        <ele>357</ele>
        <time>2016-10-29T08:34:47Z</time>
      </trkpt>
      <trkpt lat="43.4042" lon="5.42591">
        <ele>357</ele>
        <time>2016-10-29T08:34:56Z</time>
      </trkpt>
      <trkpt lat="43.4043" lon="5.42583">
        <ele>355</ele>
        <time>2016-10-29T08:35:06Z</time>
      </trkpt>
      <trkpt lat="43.40436" lon="5.4258">
        <ele>358</ele>
        <time>2016-10-29T08:35:15Z</time>
      </trkpt>
      <trkpt lat="43.40441" lon="5.4258">
        <ele>365</ele>
        <time>2016-10-29T08:35:24Z</time>
      </trkpt>
      <trkpt lat="43.40452" lon="5.42577">
        <ele>366</ele>
        <time>2016-10-29T08:35:34Z</time>
      </trkpt>
      <trkpt lat="43.40463" lon="5.42569">
        <ele>366</ele>
        <time>2016-10-29T08:35:43Z</time>
      </trkpt>
      <trkpt lat="43.40472" lon="5.42567">
        <ele>366</ele>
        <time>2016-10-29T08:35:52Z</time>
      </trkpt>
      <trkpt lat="43.4048" lon="5.42566">
        <ele>366</ele>
        <time>2016-10-29T08:36:01Z</time>
      </trkpt>
      <trkpt lat="43.40489" lon="5.4257">
        <ele>366</ele>
        <time>2016-10-29T08:36:10Z</time>
      </trkpt>
      <trkpt lat="43.40497" lon="5.42575">
        <ele>367</ele>
        <time>2016-10-29T08:36:20Z</time>
      </trkpt>
      <trkpt lat="43.40504" lon="5.42572">
        <ele>367</ele>
        <time>2016-10-29T08:36:30Z</time>
      </trkpt>
      <trkpt lat="43.40505" lon="5.4257">
        <ele>369</ele>
        <time>2016-10-29T08:36:43Z</time>
      </trkpt>
      <trkpt lat="43.40502" lon="5.42559">
        <ele>371</ele>
        <time>2016-10-29T08:36:53Z</time>
      </trkpt>
      <trkpt lat="43.40497" lon="5.42553">
        <ele>371</ele>
        <time>2016-10-29T08:37:04Z</time>
      </trkpt>
      <trkpt lat="43.40493" lon="5.42542">
        <ele>371</ele>
        <time>2016-10-29T08:37:13Z</time>
      </trkpt>
      <trkpt lat="43.4049" lon="5.42535">
        <ele>371</ele>
        <time>2016-10-29T08:37:24Z</time>
      </trkpt>
      <trkpt lat="43.40487" lon="5.42526">
        <ele>368</ele>
        <time>2016-10-29T08:37:37Z</time>
      </trkpt>
      <trkpt lat="43.40486" lon="5.42526">
        <ele>369</ele>
        <time>2016-10-29T08:37:55Z</time>
      </trkpt>
      <trkpt lat="43.40481" lon="5.42526">
        <ele>369</ele>
        <time>2016-10-29T08:38:05Z</time>
      </trkpt>
      <trkpt lat="43.40472" lon="5.42523">
        <ele>369</ele>
        <time>2016-10-29T08:38:14Z</time>
      </trkpt>
      <trkpt lat="43.40466" lon="5.4252">
        <ele>369</ele>
        <time>2016-10-29T08:38:23Z</time>
      </trkpt>
      <trkpt lat="43.40459" lon="5.42514">
        <ele>369</ele>
        <time>2016-10-29T08:38:33Z</time>
      </trkpt>
      <trkpt lat="43.40456" lon="5.42503">
        <ele>369</ele>
        <time>2016-10-29T08:38:42Z</time>
      </trkpt>
      <trkpt lat="43.40454" lon="5.42491">
        <ele>370</ele>
        <time>2016-10-29T08:38:51Z</time>
      </trkpt>
      <trkpt lat="43.40446" lon="5.42482">
        <ele>370</ele>
        <time>2016-10-29T08:39:01Z</time>
      </trkpt>
      <trkpt lat="43.40437" lon="5.42477">
        <ele>370</ele>
        <time>2016-10-29T08:39:10Z</time>
      </trkpt>
      <trkpt lat="43.40428" lon="5.42478">
        <ele>370</ele>
        <time>2016-10-29T08:39:19Z</time>
      </trkpt>
      <trkpt lat="43.40422" lon="5.42482">
        <ele>372</ele>
        <time>2016-10-29T08:39:28Z</time>
      </trkpt>
      <trkpt lat="43.40415" lon="5.42485">
        <ele>373</ele>
        <time>2016-10-29T08:39:37Z</time>
      </trkpt>
      <trkpt lat="43.40407" lon="5.42489">
        <ele>373</ele>
        <time>2016-10-29T08:39:46Z</time>
      </trkpt>
      <trkpt lat="43.40398" lon="5.42496">
        <ele>373</ele>
        <time>2016-10-29T08:39:56Z</time>
      </trkpt>
      <trkpt lat="43.40391" lon="5.42503">
        <ele>373</ele>
        <time>2016-10-29T08:40:05Z</time>
      </trkpt>
      <trkpt lat="43.40384" lon="5.42512">
        <ele>373</ele>
        <time>2016-10-29T08:40:14Z</time>
      </trkpt>
      <trkpt lat="43.40373" lon="5.42522">
        <ele>375</ele>
        <time>2016-10-29T08:40:24Z</time>
      </trkpt>
      <trkpt lat="43.40368" lon="5.42531">
        <ele>380</ele>
        <time>2016-10-29T08:40:34Z</time>
      </trkpt>
      <trkpt lat="43.40361" lon="5.4254">
        <ele>383</ele>
        <time>2016-10-29T08:40:43Z</time>
      </trkpt>
      <trkpt lat="43.40351" lon="5.42549">
        <ele>386</ele>
        <time>2016-10-29T08:40:52Z</time>
      </trkpt>
      <trkpt lat="43.40343" lon="5.42557">
        <ele>386</ele>
        <time>2016-10-29T08:41:01Z</time>
      </trkpt>
      <trkpt lat="43.40333" lon="5.42563">
        <ele>386</ele>
        <time>2016-10-29T08:41:10Z</time>
      </trkpt>
      <trkpt lat="43.40321" lon="5.42566">
        <ele>386</ele>
        <time>2016-10-29T08:41:19Z</time>
      </trkpt>
      <trkpt lat="43.4031" lon="5.42569">
        <ele>386</ele>
        <time>2016-10-29T08:41:28Z</time>
      </trkpt>
      <trkpt lat="43.40298" lon="5.42575">
        <ele>386</ele>
        <time>2016-10-29T08:41:37Z</time>
      </trkpt>
      <trkpt lat="43.40287" lon="5.42579">
        <ele>386</ele>
        <time>2016-10-29T08:41:46Z</time>
      </trkpt>
      <trkpt lat="43.40276" lon="5.42579">
        <ele>386</ele>
        <time>2016-10-29T08:41:55Z</time>
      </trkpt>
      <trkpt lat="43.40265" lon="5.42578">
        <ele>386</ele>
        <time>2016-10-29T08:42:04Z</time>
      </trkpt>
      <trkpt lat="43.40256" lon="5.42569">
        <ele>386</ele>
        <time>2016-10-29T08:42:13Z</time>
      </trkpt>
      <trkpt lat="43.40255" lon="5.42552">
        <ele>388</ele>
        <time>2016-10-29T08:42:22Z</time>
      </trkpt>
      <trkpt lat="43.40252" lon="5.42538">
        <ele>390</ele>
        <time>2016-10-29T08:42:31Z</time>
      </trkpt>
      <trkpt lat="43.40255" lon="5.42522">
        <ele>390</ele>
        <time>2016-10-29T08:42:40Z</time>
      </trkpt>
      <trkpt lat="43.40257" lon="5.42506">
        <ele>390</ele>
        <time>2016-10-29T08:42:49Z</time>
      </trkpt>
      <trkpt lat="43.4026" lon="5.42492">
        <ele>390</ele>
        <time>2016-10-29T08:42:58Z</time>
      </trkpt>
      <trkpt lat="43.40262" lon="5.42477">
        <ele>390</ele>
        <time>2016-10-29T08:43:07Z</time>
      </trkpt>
      <trkpt lat="43.40258" lon="5.42465">
        <ele>390</ele>
        <time>2016-10-29T08:43:16Z</time>
      </trkpt>
      <trkpt lat="43.40252" lon="5.42451">
        <ele>394</ele>
        <time>2016-10-29T08:43:25Z</time>
      </trkpt>
      <trkpt lat="43.40247" lon="5.42439">
        <ele>396</ele>
        <time>2016-10-29T08:43:34Z</time>
      </trkpt>
      <trkpt lat="43.40245" lon="5.42422">
        <ele>398</ele>
        <time>2016-10-29T08:43:43Z</time>
      </trkpt>
      <trkpt lat="43.40245" lon="5.42406">
        <ele>398</ele>
        <time>2016-10-29T08:43:52Z</time>
      </trkpt>
      <trkpt lat="43.40241" lon="5.4239">
        <ele>398</ele>
        <time>2016-10-29T08:44:02Z</time>
      </trkpt>
      <trkpt lat="43.40235" lon="5.42381">
        <ele>398</ele>
        <time>2016-10-29T08:44:11Z</time>
      </trkpt>
      <trkpt lat="43.40227" lon="5.42372">
        <ele>398</ele>
        <time>2016-10-29T08:44:20Z</time>
      </trkpt>
      <trkpt lat="43.40218" lon="5.42361">
        <ele>399</ele>
        <time>2016-10-29T08:44:30Z</time>
      </trkpt>
      <trkpt lat="43.40208" lon="5.42354">
        <ele>399</ele>
        <time>2016-10-29T08:44:39Z</time>
      </trkpt>
      <trkpt lat="43.40197" lon="5.42353">
        <ele>398</ele>
        <time>2016-10-29T08:44:48Z</time>
      </trkpt>
      <trkpt lat="43.40186" lon="5.42355">
        <ele>396</ele>
        <time>2016-10-29T08:44:57Z</time>
      </trkpt>
      <trkpt lat="43.40177" lon="5.42359">
        <ele>394</ele>
        <time>2016-10-29T08:45:06Z</time>
      </trkpt>
      <trkpt lat="43.40166" lon="5.42362">
        <ele>393</ele>
        <time>2016-10-29T08:45:15Z</time>
      </trkpt>
      <trkpt lat="43.40156" lon="5.42365">
        <ele>393</ele>
        <time>2016-10-29T08:45:24Z</time>
      </trkpt>
      <trkpt lat="43.40144" lon="5.4236">
        <ele>393</ele>
        <time>2016-10-29T08:45:34Z</time>
      </trkpt>
      <trkpt lat="43.40144" lon="5.42345">
        <ele>393</ele>
        <time>2016-10-29T08:45:44Z</time>
      </trkpt>
      <trkpt lat="43.40147" lon="5.42331">
        <ele>393</ele>
        <time>2016-10-29T08:45:53Z</time>
      </trkpt>
      <trkpt lat="43.4015" lon="5.42317">
        <ele>393</ele>
        <time>2016-10-29T08:46:02Z</time>
      </trkpt>
      <trkpt lat="43.40152" lon="5.423">
        <ele>393</ele>
        <time>2016-10-29T08:46:11Z</time>
      </trkpt>
      <trkpt lat="43.40153" lon="5.42283">
        <ele>393</ele>
        <time>2016-10-29T08:46:20Z</time>
      </trkpt>
      <trkpt lat="43.40153" lon="5.42268">
        <ele>394</ele>
        <time>2016-10-29T08:46:29Z</time>
      </trkpt>
      <trkpt lat="43.40153" lon="5.42252">
        <ele>394</ele>
        <time>2016-10-29T08:46:39Z</time>
      </trkpt>
      <trkpt lat="43.40153" lon="5.42238">
        <ele>395</ele>
        <time>2016-10-29T08:46:48Z</time>
      </trkpt>
      <trkpt lat="43.40152" lon="5.42222">
        <ele>395</ele>
        <time>2016-10-29T08:46:57Z</time>
      </trkpt>
      <trkpt lat="43.4015" lon="5.42206">
        <ele>395</ele>
        <time>2016-10-29T08:47:07Z</time>
      </trkpt>
      <trkpt lat="43.40147" lon="5.42193">
        <ele>395</ele>
        <time>2016-10-29T08:47:16Z</time>
      </trkpt>
      <trkpt lat="43.40145" lon="5.42178">
        <ele>395</ele>
        <time>2016-10-29T08:47:25Z</time>
      </trkpt>
      <trkpt lat="43.40145" lon="5.42162">
        <ele>395</ele>
        <time>2016-10-29T08:47:34Z</time>
      </trkpt>
      <trkpt lat="43.40144" lon="5.42147">
        <ele>395</ele>
        <time>2016-10-29T08:47:43Z</time>
      </trkpt>
      <trkpt lat="43.40143" lon="5.42144">
        <ele>395</ele>
        <time>2016-10-29T08:47:54Z</time>
      </trkpt>
      <trkpt lat="43.40144" lon="5.42139">
        <ele>395</ele>
        <time>2016-10-29T08:48:08Z</time>
      </trkpt>
      <trkpt lat="43.40143" lon="5.42131">
        <ele>396</ele>
        <time>2016-10-29T08:48:17Z</time>
      </trkpt>
      <trkpt lat="43.40143" lon="5.42118">
        <ele>397</ele>
        <time>2016-10-29T08:48:26Z</time>
      </trkpt>
      <trkpt lat="43.40143" lon="5.42106">
        <ele>397</ele>
        <time>2016-10-29T08:48:35Z</time>
      </trkpt>
      <trkpt lat="43.40141" lon="5.42091">
        <ele>396</ele>
        <time>2016-10-29T08:48:46Z</time>
      </trkpt>
      <trkpt lat="43.4014" lon="5.42089">
        <ele>394</ele>
        <time>2016-10-29T08:48:58Z</time>
      </trkpt>
      <trkpt lat="43.40139" lon="5.42077">
        <ele>394</ele>
        <time>2016-10-29T08:49:07Z</time>
      </trkpt>
      <trkpt lat="43.40141" lon="5.42064">
        <ele>394</ele>
        <time>2016-10-29T08:49:16Z</time>
      </trkpt>
      <trkpt lat="43.40143" lon="5.42047">
        <ele>394</ele>
        <time>2016-10-29T08:49:27Z</time>
      </trkpt>
      <trkpt lat="43.40143" lon="5.42032">
        <ele>394</ele>
        <time>2016-10-29T08:49:36Z</time>
      </trkpt>
      <trkpt lat="43.40142" lon="5.42017">
        <ele>393</ele>
        <time>2016-10-29T08:49:45Z</time>
      </trkpt>
      <trkpt lat="43.40142" lon="5.42002">
        <ele>393</ele>
        <time>2016-10-29T08:49:54Z</time>
      </trkpt>
      <trkpt lat="43.40142" lon="5.41986">
        <ele>393</ele>
        <time>2016-10-29T08:50:03Z</time>
      </trkpt>
      <trkpt lat="43.40141" lon="5.41972">
        <ele>392</ele>
        <time>2016-10-29T08:50:13Z</time>
      </trkpt>
      <trkpt lat="43.40142" lon="5.41956">
        <ele>391</ele>
        <time>2016-10-29T08:50:23Z</time>
      </trkpt>
      <trkpt lat="43.40142" lon="5.41941">
        <ele>390</ele>
        <time>2016-10-29T08:50:32Z</time>
      </trkpt>
      <trkpt lat="43.40143" lon="5.41926">
        <ele>389</ele>
        <time>2016-10-29T08:50:41Z</time>
      </trkpt>
      <trkpt lat="43.40141" lon="5.41913">
        <ele>389</ele>
        <time>2016-10-29T08:50:50Z</time>
      </trkpt>
      <trkpt lat="43.40141" lon="5.41902">
        <ele>388</ele>
        <time>2016-10-29T08:51:00Z</time>
      </trkpt>
      <trkpt lat="43.4014" lon="5.41886">
        <ele>388</ele>
        <time>2016-10-29T08:51:09Z</time>
      </trkpt>
      <trkpt lat="43.40138" lon="5.41872">
        <ele>385</ele>
        <time>2016-10-29T08:51:19Z</time>
      </trkpt>
      <trkpt lat="43.40136" lon="5.41856">
        <ele>384</ele>
        <time>2016-10-29T08:51:29Z</time>
      </trkpt>
      <trkpt lat="43.40136" lon="5.41842">
        <ele>384</ele>
        <time>2016-10-29T08:51:38Z</time>
      </trkpt>
      <trkpt lat="43.40132" lon="5.41827">
        <ele>383</ele>
        <time>2016-10-29T08:51:49Z</time>
      </trkpt>
      <trkpt lat="43.40126" lon="5.4181">
        <ele>382</ele>
        <time>2016-10-29T08:51:59Z</time>
      </trkpt>
      <trkpt lat="43.40122" lon="5.41795">
        <ele>382</ele>
        <time>2016-10-29T08:52:08Z</time>
      </trkpt>
      <trkpt lat="43.40117" lon="5.41783">
        <ele>381</ele>
        <time>2016-10-29T08:52:17Z</time>
      </trkpt>
      <trkpt lat="43.40115" lon="5.41769">
        <ele>377</ele>
        <time>2016-10-29T08:52:26Z</time>
      </trkpt>
      <trkpt lat="43.40113" lon="5.41751">
        <ele>374</ele>
        <time>2016-10-29T08:52:37Z</time>
      </trkpt>
      <trkpt lat="43.40107" lon="5.41737">
        <ele>373</ele>
        <time>2016-10-29T08:52:46Z</time>
      </trkpt>
      <trkpt lat="43.40103" lon="5.41725">
        <ele>370</ele>
        <time>2016-10-29T08:52:55Z</time>
      </trkpt>
      <trkpt lat="43.40099" lon="5.41708">
        <ele>369</ele>
        <time>2016-10-29T08:53:05Z</time>
      </trkpt>
      <trkpt lat="43.40099" lon="5.41689">
        <ele>369</ele>
        <time>2016-10-29T08:53:15Z</time>
      </trkpt>
      <trkpt lat="43.40097" lon="5.41674">
        <ele>368</ele>
        <time>2016-10-29T08:53:25Z</time>
      </trkpt>
      <trkpt lat="43.40096" lon="5.41658">
        <ele>366</ele>
        <time>2016-10-29T08:53:35Z</time>
      </trkpt>
      <trkpt lat="43.40094" lon="5.41644">
        <ele>366</ele>
        <time>2016-10-29T08:53:46Z</time>
      </trkpt>
      <trkpt lat="43.40093" lon="5.41631">
        <ele>368</ele>
        <time>2016-10-29T08:53:56Z</time>
      </trkpt>
      <trkpt lat="43.40092" lon="5.41622">
        <ele>371</ele>
        <time>2016-10-29T08:54:05Z</time>
      </trkpt>
      <trkpt lat="43.4009" lon="5.41612">
        <ele>373</ele>
        <time>2016-10-29T08:54:14Z</time>
      </trkpt>
      <trkpt lat="43.40089" lon="5.41604">
        <ele>373</ele>
        <time>2016-10-29T08:54:23Z</time>
      </trkpt>
      <trkpt lat="43.4009" lon="5.41598">
        <ele>372</ele>
        <time>2016-10-29T08:54:39Z</time>
      </trkpt>
      <trkpt lat="43.40087" lon="5.41596">
        <ele>368</ele>
        <time>2016-10-29T08:54:55Z</time>
      </trkpt>
      <trkpt lat="43.40083" lon="5.416">
        <ele>367</ele>
        <time>2016-10-29T08:55:05Z</time>
      </trkpt>
      <trkpt lat="43.40077" lon="5.41605">
        <ele>367</ele>
        <time>2016-10-29T08:55:20Z</time>
      </trkpt>
      <trkpt lat="43.40069" lon="5.41614">
        <ele>367</ele>
        <time>2016-10-29T08:55:30Z</time>
      </trkpt>
      <trkpt lat="43.40061" lon="5.41624">
        <ele>367</ele>
        <time>2016-10-29T08:55:40Z</time>
      </trkpt>
      <trkpt lat="43.40055" lon="5.41634">
        <ele>367</ele>
        <time>2016-10-29T08:55:50Z</time>
      </trkpt>
      <trkpt lat="43.40049" lon="5.41644">
        <ele>367</ele>
        <time>2016-10-29T08:56:00Z</time>
      </trkpt>
      <trkpt lat="43.40045" lon="5.41657">
        <ele>367</ele>
        <time>2016-10-29T08:56:10Z</time>
      </trkpt>
      <trkpt lat="43.4004" lon="5.41668">
        <ele>367</ele>
        <time>2016-10-29T08:56:20Z</time>
      </trkpt>
      <trkpt lat="43.40033" lon="5.41678">
        <ele>367</ele>
        <time>2016-10-29T08:56:30Z</time>
      </trkpt>
      <trkpt lat="43.40027" lon="5.41689">
        <ele>370</ele>
        <time>2016-10-29T08:56:40Z</time>
      </trkpt>
      <trkpt lat="43.40021" lon="5.41699">
        <ele>371</ele>
        <time>2016-10-29T08:56:50Z</time>
      </trkpt>
      <trkpt lat="43.40012" lon="5.41706">
        <ele>371</ele>
        <time>2016-10-29T08:56:59Z</time>
      </trkpt>
      <trkpt lat="43.40002" lon="5.41714">
        <ele>373</ele>
        <time>2016-10-29T08:57:09Z</time>
      </trkpt>
      <trkpt lat="43.39996" lon="5.41723">
        <ele>375</ele>
        <time>2016-10-29T08:57:19Z</time>
      </trkpt>
      <trkpt lat="43.39994" lon="5.41734">
        <ele>376</ele>
        <time>2016-10-29T08:57:28Z</time>
      </trkpt>
      <trkpt lat="43.39996" lon="5.41747">
        <ele>377</ele>
        <time>2016-10-29T08:57:37Z</time>
      </trkpt>
      <trkpt lat="43.39997" lon="5.41759">
        <ele>377</ele>
        <time>2016-10-29T08:57:46Z</time>
      </trkpt>
      <trkpt lat="43.39998" lon="5.41772">
        <ele>377</ele>
        <time>2016-10-29T08:57:55Z</time>
      </trkpt>
      <trkpt lat="43.39999" lon="5.41783">
        <ele>381</ele>
        <time>2016-10-29T08:58:04Z</time>
      </trkpt>
      <trkpt lat="43.39999" lon="5.41795">
        <ele>382</ele>
        <time>2016-10-29T08:58:14Z</time>
      </trkpt>
      <trkpt lat="43.39999" lon="5.41808">
        <ele>382</ele>
        <time>2016-10-29T08:58:23Z</time>
      </trkpt>
      <trkpt lat="43.39997" lon="5.41819">
        <ele>382</ele>
        <time>2016-10-29T08:58:32Z</time>
      </trkpt>
      <trkpt lat="43.39989" lon="5.41826">
        <ele>382</ele>
        <time>2016-10-29T08:58:41Z</time>
      </trkpt>
      <trkpt lat="43.39981" lon="5.41825">
        <ele>384</ele>
        <time>2016-10-29T08:58:51Z</time>
      </trkpt>
      <trkpt lat="43.39972" lon="5.41821">
        <ele>387</ele>
        <time>2016-10-29T08:59:00Z</time>
      </trkpt>
      <trkpt lat="43.39965" lon="5.41825">
        <ele>389</ele>
        <time>2016-10-29T08:59:10Z</time>
      </trkpt>
      <trkpt lat="43.3996" lon="5.4183">
        <ele>390</ele>
        <time>2016-10-29T08:59:22Z</time>
      </trkpt>
      <trkpt lat="43.3996" lon="5.41838">
        <ele>390</ele>
        <time>2016-10-29T08:59:31Z</time>
      </trkpt>
      <trkpt lat="43.3996" lon="5.41851">
        <ele>391</ele>
        <time>2016-10-29T08:59:40Z</time>
      </trkpt>
      <trkpt lat="43.39962" lon="5.41864">
        <ele>392</ele>
        <time>2016-10-29T08:59:50Z</time>
      </trkpt>
      <trkpt lat="43.39963" lon="5.41877">
        <ele>394</ele>
        <time>2016-10-29T09:00:00Z</time>
      </trkpt>
      <trkpt lat="43.39963" lon="5.41889">
        <ele>395</ele>
        <time>2016-10-29T09:00:09Z</time>
      </trkpt>
      <trkpt lat="43.39961" lon="5.41902">
        <ele>397</ele>
        <time>2016-10-29T09:00:19Z</time>
      </trkpt>
      <trkpt lat="43.39959" lon="5.41915">
        <ele>398</ele>
        <time>2016-10-29T09:00:28Z</time>
      </trkpt>
      <trkpt lat="43.39956" lon="5.41927">
        <ele>398</ele>
        <time>2016-10-29T09:00:37Z</time>
      </trkpt>
      <trkpt lat="43.39955" lon="5.41939">
        <ele>398</ele>
        <time>2016-10-29T09:00:46Z</time>
      </trkpt>
      <trkpt lat="43.39953" lon="5.41952">
        <ele>400</ele>
        <time>2016-10-29T09:00:55Z</time>
      </trkpt>
      <trkpt lat="43.39949" lon="5.41965">
        <ele>401</ele>
        <time>2016-10-29T09:01:04Z</time>
      </trkpt>
      <trkpt lat="43.39947" lon="5.41979">
        <ele>401</ele>
        <time>2016-10-29T09:01:14Z</time>
      </trkpt>
      <trkpt lat="43.39946" lon="5.41989">
        <ele>401</ele>
        <time>2016-10-29T09:01:23Z</time>
      </trkpt>
      <trkpt lat="43.39942" lon="5.42001">
        <ele>401</ele>
        <time>2016-10-29T09:01:32Z</time>
      </trkpt>
      <trkpt lat="43.39938" lon="5.42013">
        <ele>401</ele>
        <time>2016-10-29T09:01:41Z</time>
      </trkpt>
      <trkpt lat="43.39933" lon="5.42026">
        <ele>401</ele>
        <time>2016-10-29T09:01:51Z</time>
      </trkpt>
      <trkpt lat="43.3993" lon="5.42036">
        <ele>401</ele>
        <time>2016-10-29T09:02:00Z</time>
      </trkpt>
      <trkpt lat="43.39925" lon="5.42048">
        <ele>403</ele>
        <time>2016-10-29T09:02:10Z</time>
      </trkpt>
      <trkpt lat="43.39918" lon="5.42057">
        <ele>405</ele>
        <time>2016-10-29T09:02:20Z</time>
      </trkpt>
      <trkpt lat="43.39909" lon="5.42059">
        <ele>409</ele>
        <time>2016-10-29T09:02:30Z</time>
      </trkpt>
      <trkpt lat="43.39901" lon="5.42054">
        <ele>411</ele>
        <time>2016-10-29T09:02:40Z</time>
      </trkpt>
      <trkpt lat="43.39894" lon="5.42044">
        <ele>411</ele>
        <time>2016-10-29T09:02:50Z</time>
      </trkpt>
      <trkpt lat="43.39885" lon="5.42036">
        <ele>411</ele>
        <time>2016-10-29T09:03:00Z</time>
      </trkpt>
      <trkpt lat="43.39876" lon="5.42032">
        <ele>411</ele>
        <time>2016-10-29T09:03:09Z</time>
      </trkpt>
      <trkpt lat="43.39866" lon="5.42027">
        <ele>411</ele>
        <time>2016-10-29T09:03:19Z</time>
      </trkpt>
      <trkpt lat="43.39856" lon="5.42027">
        <ele>412</ele>
        <time>2016-10-29T09:03:28Z</time>
      </trkpt>
      <trkpt lat="43.39852" lon="5.42026">
        <ele>412</ele>
        <time>2016-10-29T09:03:38Z</time>
      </trkpt>
      <trkpt lat="43.39853" lon="5.42025">
        <ele>413</ele>
        <time>2016-10-29T09:03:47Z</time>
      </trkpt>
      <trkpt lat="43.39849" lon="5.42027">
        <ele>414</ele>
        <time>2016-10-29T09:03:56Z</time>
      </trkpt>
      <trkpt lat="43.3984" lon="5.42031">
        <ele>416</ele>
        <time>2016-10-29T09:04:06Z</time>
      </trkpt>
      <trkpt lat="43.3983" lon="5.42038">
        <ele>417</ele>
        <time>2016-10-29T09:04:15Z</time>
      </trkpt>
      <trkpt lat="43.39818" lon="5.42045">
        <ele>417</ele>
        <time>2016-10-29T09:04:24Z</time>
      </trkpt>
      <trkpt lat="43.39809" lon="5.42053">
        <ele>418</ele>
        <time>2016-10-29T09:04:34Z</time>
      </trkpt>
      <trkpt lat="43.39799" lon="5.42061">
        <ele>420</ele>
        <time>2016-10-29T09:04:44Z</time>
      </trkpt>
      <trkpt lat="43.39791" lon="5.4207">
        <ele>421</ele>
        <time>2016-10-29T09:04:54Z</time>
      </trkpt>
      <trkpt lat="43.39782" lon="5.42081">
        <ele>421</ele>
        <time>2016-10-29T09:05:04Z</time>
      </trkpt>
      <trkpt lat="43.39774" lon="5.4209">
        <ele>421</ele>
        <time>2016-10-29T09:05:13Z</time>
      </trkpt>
      <trkpt lat="43.39765" lon="5.421">
        <ele>421</ele>
        <time>2016-10-29T09:05:23Z</time>
      </trkpt>
      <trkpt lat="43.39758" lon="5.42111">
        <ele>421</ele>
        <time>2016-10-29T09:05:33Z</time>
      </trkpt>
      <trkpt lat="43.39752" lon="5.42123">
        <ele>421</ele>
        <time>2016-10-29T09:05:43Z</time>
      </trkpt>
      <trkpt lat="43.39744" lon="5.42135">
        <ele>421</ele>
        <time>2016-10-29T09:05:53Z</time>
      </trkpt>
      <trkpt lat="43.39737" lon="5.42146">
        <ele>423</ele>
        <time>2016-10-29T09:06:03Z</time>
      </trkpt>
      <trkpt lat="43.3973" lon="5.42157">
        <ele>424</ele>
        <time>2016-10-29T09:06:12Z</time>
      </trkpt>
      <trkpt lat="43.39723" lon="5.42169">
        <ele>424</ele>
        <time>2016-10-29T09:06:21Z</time>
      </trkpt>
      <trkpt lat="43.39713" lon="5.42174">
        <ele>426</ele>
        <time>2016-10-29T09:06:31Z</time>
      </trkpt>
      <trkpt lat="43.39705" lon="5.42165">
        <ele>426</ele>
        <time>2016-10-29T09:06:41Z</time>
      </trkpt>
      <trkpt lat="43.39699" lon="5.42153">
        <ele>426</ele>
        <time>2016-10-29T09:06:50Z</time>
      </trkpt>
      <trkpt lat="43.39693" lon="5.42141">
        <ele>426</ele>
        <time>2016-10-29T09:07:00Z</time>
      </trkpt>
      <trkpt lat="43.39685" lon="5.42127">
        <ele>426</ele>
        <time>2016-10-29T09:07:10Z</time>
      </trkpt>
      <trkpt lat="43.39679" lon="5.42116">
        <ele>427</ele>
        <time>2016-10-29T09:07:19Z</time>
      </trkpt>
      <trkpt lat="43.3967" lon="5.42109">
        <ele>427</ele>
        <time>2016-10-29T09:07:29Z</time>
      </trkpt>
      <trkpt lat="43.3966" lon="5.42113">
        <ele>427</ele>
        <time>2016-10-29T09:07:38Z</time>
      </trkpt>
      <trkpt lat="43.39649" lon="5.4212">
        <ele>429</ele>
        <time>2016-10-29T09:07:47Z</time>
      </trkpt>
      <trkpt lat="43.39639" lon="5.42131">
        <ele>429</ele>
        <time>2016-10-29T09:07:57Z</time>
      </trkpt>
      <trkpt lat="43.39631" lon="5.42143">
        <ele>431</ele>
        <time>2016-10-29T09:08:07Z</time>
      </trkpt>
      <trkpt lat="43.39622" lon="5.42153">
        <ele>431</ele>
        <time>2016-10-29T09:08:17Z</time>
      </trkpt>
      <trkpt lat="43.39613" lon="5.42163">
        <ele>432</ele>
        <time>2016-10-29T09:08:27Z</time>
      </trkpt>
      <trkpt lat="43.39602" lon="5.4217">
        <ele>433</ele>
        <time>2016-10-29T09:08:37Z</time>
      </trkpt>
      <trkpt lat="43.39592" lon="5.42174">
        <ele>434</ele>
        <time>2016-10-29T09:08:46Z</time>
      </trkpt>
      <trkpt lat="43.39582" lon="5.42176">
        <ele>435</ele>
        <time>2016-10-29T09:08:55Z</time>
      </trkpt>
      <trkpt lat="43.39573" lon="5.42178">
        <ele>437</ele>
        <time>2016-10-29T09:09:04Z</time>
      </trkpt>
      <trkpt lat="43.39563" lon="5.42185">
        <ele>439</ele>
        <time>2016-10-29T09:09:14Z</time>
      </trkpt>
      <trkpt lat="43.39558" lon="5.42198">
        <ele>439</ele>
        <time>2016-10-29T09:09:23Z</time>
      </trkpt>
      <trkpt lat="43.39555" lon="5.42211">
        <ele>440</ele>
        <time>2016-10-29T09:09:32Z</time>
      </trkpt>
      <trkpt lat="43.39554" lon="5.42224">
        <ele>440</ele>
        <time>2016-10-29T09:09:41Z</time>
      </trkpt>
      <trkpt lat="43.39551" lon="5.4224">
        <ele>440</ele>
        <time>2016-10-29T09:09:51Z</time>
      </trkpt>
      <trkpt lat="43.39548" lon="5.42253">
        <ele>441</ele>
        <time>2016-10-29T09:10:00Z</time>
      </trkpt>
      <trkpt lat="43.39545" lon="5.42268">
        <ele>441</ele>
        <time>2016-10-29T09:10:10Z</time>
      </trkpt>
      <trkpt lat="43.39543" lon="5.42281">
        <ele>441</ele>
        <time>2016-10-29T09:10:19Z</time>
      </trkpt>
      <trkpt lat="43.39541" lon="5.42295">
        <ele>443</ele>
        <time>2016-10-29T09:10:28Z</time>
      </trkpt>
      <trkpt lat="43.39538" lon="5.42309">
        <ele>443</ele>
        <time>2016-10-29T09:10:37Z</time>
      </trkpt>
      <trkpt lat="43.39536" lon="5.42323">
        <ele>443</ele>
        <time>2016-10-29T09:10:46Z</time>
      </trkpt>
      <trkpt lat="43.39533" lon="5.42337">
        <ele>444</ele>
        <time>2016-10-29T09:10:55Z</time>
      </trkpt>
      <trkpt lat="43.39531" lon="5.42351">
        <ele>446</ele>
        <time>2016-10-29T09:11:04Z</time>
      </trkpt>
      <trkpt lat="43.39529" lon="5.42367">
        <ele>447</ele>
        <time>2016-10-29T09:11:14Z</time>
      </trkpt>
      <trkpt lat="43.39528" lon="5.42381">
        <ele>448</ele>
        <time>2016-10-29T09:11:23Z</time>
      </trkpt>
      <trkpt lat="43.39527" lon="5.42396">
        <ele>450</ele>
        <time>2016-10-29T09:11:32Z</time>
      </trkpt>
      <trkpt lat="43.39526" lon="5.42411">
        <ele>450</ele>
        <time>2016-10-29T09:11:41Z</time>
      </trkpt>
      <trkpt lat="43.39523" lon="5.42426">
        <ele>451</ele>
        <time>2016-10-29T09:11:50Z</time>
      </trkpt>
      <trkpt lat="43.39521" lon="5.4244">
        <ele>452</ele>
        <time>2016-10-29T09:11:59Z</time>
      </trkpt>
      <trkpt lat="43.39518" lon="5.42453">
        <ele>453</ele>
        <time>2016-10-29T09:12:08Z</time>
      </trkpt>
      <trkpt lat="43.39511" lon="5.42468">
        <ele>454</ele>
        <time>2016-10-29T09:12:18Z</time>
      </trkpt>
      <trkpt lat="43.39502" lon="5.42476">
        <ele>455</ele>
        <time>2016-10-29T09:12:28Z</time>
      </trkpt>
      <trkpt lat="43.39493" lon="5.42483">
        <ele>457</ele>
        <time>2016-10-29T09:12:37Z</time>
      </trkpt>
      <trkpt lat="43.39483" lon="5.42491">
        <ele>459</ele>
        <time>2016-10-29T09:12:46Z</time>
      </trkpt>
      <trkpt lat="43.39475" lon="5.42499">
        <ele>459</ele>
        <time>2016-10-29T09:12:55Z</time>
      </trkpt>
      <trkpt lat="43.39464" lon="5.42505">
        <ele>460</ele>
        <time>2016-10-29T09:13:06Z</time>
      </trkpt>
      <trkpt lat="43.39457" lon="5.42497">
        <ele>461</ele>
        <time>2016-10-29T09:13:15Z</time>
      </trkpt>
      <trkpt lat="43.39451" lon="5.42485">
        <ele>461</ele>
        <time>2016-10-29T09:13:25Z</time>
      </trkpt>
      <trkpt lat="43.39445" lon="5.42472">
        <ele>461</ele>
        <time>2016-10-29T09:13:35Z</time>
      </trkpt>
      <trkpt lat="43.39438" lon="5.42461">
        <ele>461</ele>
        <time>2016-10-29T09:13:44Z</time>
      </trkpt>
      <trkpt lat="43.39428" lon="5.42449">
        <ele>462</ele>
        <time>2016-10-29T09:13:55Z</time>
      </trkpt>
      <trkpt lat="43.39421" lon="5.42438">
        <ele>464</ele>
        <time>2016-10-29T09:14:04Z</time>
      </trkpt>
      <trkpt lat="43.39412" lon="5.42425">
        <ele>465</ele>
        <time>2016-10-29T09:14:14Z</time>
      </trkpt>
      <trkpt lat="43.39403" lon="5.42415">
        <ele>466</ele>
        <time>2016-10-29T09:14:24Z</time>
      </trkpt>
      <trkpt lat="43.39395" lon="5.42405">
        <ele>468</ele>
        <time>2016-10-29T09:14:34Z</time>
      </trkpt>
      <trkpt lat="43.39386" lon="5.42397">
        <ele>469</ele>
        <time>2016-10-29T09:14:44Z</time>
      </trkpt>
      <trkpt lat="43.39386" lon="5.42399">
        <ele>470</ele>
        <time>2016-10-29T09:14:55Z</time>
      </trkpt>
      <trkpt lat="43.39377" lon="5.42395">
        <ele>470</ele>
        <time>2016-10-29T09:15:04Z</time>
      </trkpt>
      <trkpt lat="43.39365" lon="5.42395">
        <ele>470</ele>
        <time>2016-10-29T09:15:14Z</time>
      </trkpt>
      <trkpt lat="43.39354" lon="5.42398">
        <ele>471</ele>
        <time>2016-10-29T09:15:23Z</time>
      </trkpt>
      <trkpt lat="43.39344" lon="5.42402">
        <ele>473</ele>
        <time>2016-10-29T09:15:32Z</time>
      </trkpt>
      <trkpt lat="43.39333" lon="5.42412">
        <ele>473</ele>
        <time>2016-10-29T09:15:42Z</time>
      </trkpt>
      <trkpt lat="43.39326" lon="5.42426">
        <ele>475</ele>
        <time>2016-10-29T09:15:52Z</time>
      </trkpt>
      <trkpt lat="43.39327" lon="5.4244">
        <ele>475</ele>
        <time>2016-10-29T09:16:01Z</time>
      </trkpt>
      <trkpt lat="43.39329" lon="5.42454">
        <ele>476</ele>
        <time>2016-10-29T09:16:10Z</time>
      </trkpt>
      <trkpt lat="43.39331" lon="5.42468">
        <ele>476</ele>
        <time>2016-10-29T09:16:19Z</time>
      </trkpt>
      <trkpt lat="43.39332" lon="5.42484">
        <ele>476</ele>
        <time>2016-10-29T09:16:29Z</time>
      </trkpt>
      <trkpt lat="43.39334" lon="5.42499">
        <ele>476</ele>
        <time>2016-10-29T09:16:39Z</time>
      </trkpt>
      <trkpt lat="43.39337" lon="5.42514">
        <ele>477</ele>
        <time>2016-10-29T09:16:48Z</time>
      </trkpt>
      <trkpt lat="43.39339" lon="5.42528">
        <ele>477</ele>
        <time>2016-10-29T09:16:57Z</time>
      </trkpt>
      <trkpt lat="43.39341" lon="5.42541">
        <ele>477</ele>
        <time>2016-10-29T09:17:06Z</time>
      </trkpt>
      <trkpt lat="43.39343" lon="5.42557">
        <ele>477</ele>
        <time>2016-10-29T09:17:16Z</time>
      </trkpt>
      <trkpt lat="43.39345" lon="5.42571">
        <ele>478</ele>
        <time>2016-10-29T09:17:25Z</time>
      </trkpt>
      <trkpt lat="43.39346" lon="5.42586">
        <ele>480</ele>
        <time>2016-10-29T09:17:35Z</time>
      </trkpt>
      <trkpt lat="43.39348" lon="5.42599">
        <ele>481</ele>
        <time>2016-10-29T09:17:45Z</time>
      </trkpt>
      <trkpt lat="43.3935" lon="5.42612">
        <ele>482</ele>
        <time>2016-10-29T09:17:54Z</time>
      </trkpt>
      <trkpt lat="43.39351" lon="5.42626">
        <ele>483</ele>
        <time>2016-10-29T09:18:03Z</time>
      </trkpt>
      <trkpt lat="43.39353" lon="5.42641">
        <ele>484</ele>
        <time>2016-10-29T09:18:13Z</time>
      </trkpt>
      <trkpt lat="43.39348" lon="5.42657">
        <ele>484</ele>
        <time>2016-10-29T09:18:23Z</time>
      </trkpt>
      <trkpt lat="43.39339" lon="5.42667">
        <ele>486</ele>
        <time>2016-10-29T09:18:33Z</time>
      </trkpt>
      <trkpt lat="43.39329" lon="5.42672">
        <ele>486</ele>
        <time>2016-10-29T09:18:42Z</time>
      </trkpt>
      <trkpt lat="43.39319" lon="5.42675">
        <ele>487</ele>
        <time>2016-10-29T09:18:52Z</time>
      </trkpt>
      <trkpt lat="43.39307" lon="5.42678">
        <ele>488</ele>
        <time>2016-10-29T09:19:02Z</time>
      </trkpt>
      <trkpt lat="43.39296" lon="5.42681">
        <ele>490</ele>
        <time>2016-10-29T09:19:12Z</time>
      </trkpt>
      <trkpt lat="43.39286" lon="5.42684">
        <ele>491</ele>
        <time>2016-10-29T09:19:21Z</time>
      </trkpt>
      <trkpt lat="43.39275" lon="5.42691">
        <ele>493</ele>
        <time>2016-10-29T09:19:31Z</time>
      </trkpt>
      <trkpt lat="43.3927" lon="5.42704">
        <ele>493</ele>
        <time>2016-10-29T09:19:40Z</time>
      </trkpt>
      <trkpt lat="43.39271" lon="5.4272">
        <ele>493</ele>
        <time>2016-10-29T09:19:50Z</time>
      </trkpt>
      <trkpt lat="43.39273" lon="5.42734">
        <ele>493</ele>
        <time>2016-10-29T09:19:59Z</time>
      </trkpt>
      <trkpt lat="43.39274" lon="5.42748">
        <ele>493</ele>
        <time>2016-10-29T09:20:08Z</time>
      </trkpt>
      <trkpt lat="43.39274" lon="5.42762">
        <ele>493</ele>
        <time>2016-10-29T09:20:17Z</time>
      </trkpt>
      <trkpt lat="43.39273" lon="5.42776">
        <ele>494</ele>
        <time>2016-10-29T09:20:26Z</time>
      </trkpt>
      <trkpt lat="43.39264" lon="5.42789">
        <ele>494</ele>
        <time>2016-10-29T09:20:36Z</time>
      </trkpt>
      <trkpt lat="43.39254" lon="5.42791">
        <ele>495</ele>
        <time>2016-10-29T09:20:46Z</time>
      </trkpt>
      <trkpt lat="43.39244" lon="5.42788">
        <ele>496</ele>
        <time>2016-10-29T09:20:56Z</time>
      </trkpt>
      <trkpt lat="43.39235" lon="5.42786">
        <ele>496</ele>
        <time>2016-10-29T09:21:05Z</time>
      </trkpt>
      <trkpt lat="43.39225" lon="5.42783">
        <ele>496</ele>
        <time>2016-10-29T09:21:14Z</time>
      </trkpt>
      <trkpt lat="43.39215" lon="5.42779">
        <ele>497</ele>
        <time>2016-10-29T09:21:24Z</time>
      </trkpt>
      <trkpt lat="43.39204" lon="5.42778">
        <ele>500</ele>
        <time>2016-10-29T09:21:34Z</time>
      </trkpt>
      <trkpt lat="43.39194" lon="5.42778">
        <ele>502</ele>
        <time>2016-10-29T09:21:43Z</time>
      </trkpt>
      <trkpt lat="43.39184" lon="5.42782">
        <ele>504</ele>
        <time>2016-10-29T09:21:52Z</time>
      </trkpt>
      <trkpt lat="43.39174" lon="5.42787">
        <ele>507</ele>
        <time>2016-10-29T09:22:02Z</time>
      </trkpt>
      <trkpt lat="43.39163" lon="5.42796">
        <ele>508</ele>
        <time>2016-10-29T09:22:13Z</time>
      </trkpt>
      <trkpt lat="43.39159" lon="5.42802">
        <ele>509</ele>
        <time>2016-10-29T09:22:25Z</time>
      </trkpt>
      <trkpt lat="43.39158" lon="5.42803">
        <ele>510</ele>
        <time>2016-10-29T09:22:38Z</time>
      </trkpt>
      <trkpt lat="43.39157" lon="5.42803">
        <ele>512</ele>
        <time>2016-10-29T09:23:02Z</time>
      </trkpt>
      <trkpt lat="43.39156" lon="5.42802">
        <ele>513</ele>
        <time>2016-10-29T09:23:22Z</time>
      </trkpt>
      <trkpt lat="43.39155" lon="5.42802">
        <ele>516</ele>
        <time>2016-10-29T09:23:34Z</time>
      </trkpt>
      <trkpt lat="43.39156" lon="5.42803">
        <ele>517</ele>
        <time>2016-10-29T09:24:20Z</time>
      </trkpt>
      <trkpt lat="43.39157" lon="5.42802">
        <ele>517</ele>
        <time>2016-10-29T09:25:04Z</time>
      </trkpt>
      <trkpt lat="43.39157" lon="5.42805">
        <ele>515</ele>
        <time>2016-10-29T09:25:26Z</time>
      </trkpt>
      <trkpt lat="43.39156" lon="5.42818">
        <ele>515</ele>
        <time>2016-10-29T09:25:35Z</time>
      </trkpt>
      <trkpt lat="43.39153" lon="5.42835">
        <ele>515</ele>
        <time>2016-10-29T09:25:45Z</time>
      </trkpt>
      <trkpt lat="43.39152" lon="5.4285">
        <ele>515</ele>
        <time>2016-10-29T09:25:55Z</time>
      </trkpt>
      <trkpt lat="43.3915" lon="5.42865">
        <ele>515</ele>
        <time>2016-10-29T09:26:04Z</time>
      </trkpt>
      <trkpt lat="43.39148" lon="5.42879">
        <ele>515</ele>
        <time>2016-10-29T09:26:14Z</time>
      </trkpt>
      <trkpt lat="43.39146" lon="5.42893">
        <ele>515</ele>
        <time>2016-10-29T09:26:23Z</time>
      </trkpt>
      <trkpt lat="43.39139" lon="5.42906">
        <ele>515</ele>
        <time>2016-10-29T09:26:32Z</time>
      </trkpt>
      <trkpt lat="43.39129" lon="5.42913">
        <ele>515</ele>
        <time>2016-10-29T09:26:42Z</time>
      </trkpt>
      <trkpt lat="43.39121" lon="5.42915">
        <ele>515</ele>
        <time>2016-10-29T09:26:51Z</time>
      </trkpt>
      <trkpt lat="43.3911" lon="5.42918">
        <ele>515</ele>
        <time>2016-10-29T09:27:01Z</time>
      </trkpt>
      <trkpt lat="43.39101" lon="5.42921">
        <ele>515</ele>
        <time>2016-10-29T09:27:10Z</time>
      </trkpt>
      <trkpt lat="43.39091" lon="5.42925">
        <ele>516</ele>
        <time>2016-10-29T09:27:19Z</time>
      </trkpt>
      <trkpt lat="43.3908" lon="5.42932">
        <ele>517</ele>
        <time>2016-10-29T09:27:29Z</time>
      </trkpt>
      <trkpt lat="43.39071" lon="5.42941">
        <ele>519</ele>
        <time>2016-10-29T09:27:39Z</time>
      </trkpt>
      <trkpt lat="43.39063" lon="5.42952">
        <ele>520</ele>
        <time>2016-10-29T09:27:49Z</time>
      </trkpt>
      <trkpt lat="43.39055" lon="5.42964">
        <ele>522</ele>
        <time>2016-10-29T09:27:59Z</time>
      </trkpt>
      <trkpt lat="43.39052" lon="5.42976">
        <ele>523</ele>
        <time>2016-10-29T09:28:08Z</time>
      </trkpt>
      <trkpt lat="43.3905" lon="5.42989">
        <ele>524</ele>
        <time>2016-10-29T09:28:17Z</time>
      </trkpt>
      <trkpt lat="43.3905" lon="5.43002">
        <ele>525</ele>
        <time>2016-10-29T09:28:26Z</time>
      </trkpt>
      <trkpt lat="43.39051" lon="5.43016">
        <ele>526</ele>
        <time>2016-10-29T09:28:36Z</time>
      </trkpt>
      <trkpt lat="43.39053" lon="5.43029">
        <ele>526</ele>
        <time>2016-10-29T09:28:45Z</time>
      </trkpt>
      <trkpt lat="43.39054" lon="5.43044">
        <ele>527</ele>
        <time>2016-10-29T09:28:54Z</time>
      </trkpt>
      <trkpt lat="43.39056" lon="5.43058">
        <ele>530</ele>
        <time>2016-10-29T09:29:03Z</time>
      </trkpt>
      <trkpt lat="43.39057" lon="5.43071">
        <ele>530</ele>
        <time>2016-10-29T09:29:12Z</time>
      </trkpt>
      <trkpt lat="43.39057" lon="5.43085">
        <ele>531</ele>
        <time>2016-10-29T09:29:21Z</time>
      </trkpt>
      <trkpt lat="43.39059" lon="5.43099">
        <ele>532</ele>
        <time>2016-10-29T09:29:30Z</time>
      </trkpt>
      <trkpt lat="43.39061" lon="5.43113">
        <ele>532</ele>
        <time>2016-10-29T09:29:39Z</time>
      </trkpt>
      <trkpt lat="43.39063" lon="5.43128">
        <ele>532</ele>
        <time>2016-10-29T09:29:48Z</time>
      </trkpt>
      <trkpt lat="43.39066" lon="5.43142">
        <ele>532</ele>
        <time>2016-10-29T09:29:57Z</time>
      </trkpt>
      <trkpt lat="43.39071" lon="5.43153">
        <ele>532</ele>
        <time>2016-10-29T09:30:06Z</time>
      </trkpt>
      <trkpt lat="43.3908" lon="5.43164">
        <ele>532</ele>
        <time>2016-10-29T09:30:16Z</time>
      </trkpt>
      <trkpt lat="43.39088" lon="5.43176">
        <ele>533</ele>
        <time>2016-10-29T09:30:26Z</time>
      </trkpt>
      <trkpt lat="43.39096" lon="5.43189">
        <ele>533</ele>
        <time>2016-10-29T09:30:37Z</time>
      </trkpt>
      <trkpt lat="43.39103" lon="5.43201">
        <ele>534</ele>
        <time>2016-10-29T09:30:47Z</time>
      </trkpt>
      <trkpt lat="43.39105" lon="5.43215">
        <ele>534</ele>
        <time>2016-10-29T09:30:56Z</time>
      </trkpt>
      <trkpt lat="43.39102" lon="5.43228">
        <ele>534</ele>
        <time>2016-10-29T09:31:05Z</time>
      </trkpt>
      <trkpt lat="43.39098" lon="5.43242">
        <ele>535</ele>
        <time>2016-10-29T09:31:15Z</time>
      </trkpt>
      <trkpt lat="43.39093" lon="5.43253">
        <ele>536</ele>
        <time>2016-10-29T09:31:24Z</time>
      </trkpt>
      <trkpt lat="43.39088" lon="5.43265">
        <ele>538</ele>
        <time>2016-10-29T09:31:33Z</time>
      </trkpt>
      <trkpt lat="43.39082" lon="5.4328">
        <ele>539</ele>
        <time>2016-10-29T09:31:43Z</time>
      </trkpt>
      <trkpt lat="43.3908" lon="5.43292">
        <ele>539</ele>
        <time>2016-10-29T09:31:52Z</time>
      </trkpt>
      <trkpt lat="43.39077" lon="5.43305">
        <ele>540</ele>
        <time>2016-10-29T09:32:01Z</time>
      </trkpt>
      <trkpt lat="43.39075" lon="5.4332">
        <ele>543</ele>
        <time>2016-10-29T09:32:10Z</time>
      </trkpt>
      <trkpt lat="43.39075" lon="5.43334">
        <ele>544</ele>
        <time>2016-10-29T09:32:19Z</time>
      </trkpt>
      <trkpt lat="43.39076" lon="5.43348">
        <ele>545</ele>
        <time>2016-10-29T09:32:28Z</time>
      </trkpt>
      <trkpt lat="43.39076" lon="5.43362">
        <ele>546</ele>
        <time>2016-10-29T09:32:37Z</time>
      </trkpt>
      <trkpt lat="43.39075" lon="5.43375">
        <ele>546</ele>
        <time>2016-10-29T09:32:46Z</time>
      </trkpt>
      <trkpt lat="43.39073" lon="5.43388">
        <ele>547</ele>
        <time>2016-10-29T09:32:55Z</time>
      </trkpt>
      <trkpt lat="43.39071" lon="5.43401">
        <ele>547</ele>
        <time>2016-10-29T09:33:05Z</time>
      </trkpt>
      <trkpt lat="43.39064" lon="5.43415">
        <ele>547</ele>
        <time>2016-10-29T09:33:15Z</time>
      </trkpt>
      <trkpt lat="43.39058" lon="5.43426">
        <ele>548</ele>
        <time>2016-10-29T09:33:25Z</time>
      </trkpt>
      <trkpt lat="43.39053" lon="5.43438">
        <ele>548</ele>
        <time>2016-10-29T09:33:34Z</time>
      </trkpt>
      <trkpt lat="43.39048" lon="5.4345">
        <ele>548</ele>
        <time>2016-10-29T09:33:43Z</time>
      </trkpt>
      <trkpt lat="43.39045" lon="5.43465">
        <ele>551</ele>
        <time>2016-10-29T09:33:52Z</time>
      </trkpt>
      <trkpt lat="43.39045" lon="5.43479">
        <ele>551</ele>
        <time>2016-10-29T09:34:01Z</time>
      </trkpt>
      <trkpt lat="43.39043" lon="5.43494">
        <ele>551</ele>
        <time>2016-10-29T09:34:10Z</time>
      </trkpt>
      <trkpt lat="43.39042" lon="5.43506">
        <ele>553</ele>
        <time>2016-10-29T09:34:19Z</time>
      </trkpt>
      <trkpt lat="43.39039" lon="5.4352">
        <ele>554</ele>
        <time>2016-10-29T09:34:28Z</time>
      </trkpt>
      <trkpt lat="43.39038" lon="5.43533">
        <ele>555</ele>
        <time>2016-10-29T09:34:37Z</time>
      </trkpt>
      <trkpt lat="43.39038" lon="5.43547">
        <ele>555</ele>
        <time>2016-10-29T09:34:47Z</time>
      </trkpt>
      <trkpt lat="43.39037" lon="5.4356">
        <ele>557</ele>
        <time>2016-10-29T09:34:56Z</time>
      </trkpt>
      <trkpt lat="43.39037" lon="5.43573">
        <ele>558</ele>
        <time>2016-10-29T09:35:05Z</time>
      </trkpt>
      <trkpt lat="43.39032" lon="5.43586">
        <ele>558</ele>
        <time>2016-10-29T09:35:15Z</time>
      </trkpt>
      <trkpt lat="43.39024" lon="5.43596">
        <ele>560</ele>
        <time>2016-10-29T09:35:26Z</time>
      </trkpt>
      <trkpt lat="43.39016" lon="5.43601">
        <ele>560</ele>
        <time>2016-10-29T09:35:36Z</time>
      </trkpt>
      <trkpt lat="43.39007" lon="5.43604">
        <ele>560</ele>
        <time>2016-10-29T09:35:45Z</time>
      </trkpt>
      <trkpt lat="43.38998" lon="5.43606">
        <ele>560</ele>
        <time>2016-10-29T09:35:55Z</time>
      </trkpt>
      <trkpt lat="43.38987" lon="5.43604">
        <ele>560</ele>
        <time>2016-10-29T09:36:05Z</time>
      </trkpt>
      <trkpt lat="43.38977" lon="5.436">
        <ele>559</ele>
        <time>2016-10-29T09:36:15Z</time>
      </trkpt>
      <trkpt lat="43.38968" lon="5.43592">
        <ele>559</ele>
        <time>2016-10-29T09:36:25Z</time>
      </trkpt>
      <trkpt lat="43.38958" lon="5.43585">
        <ele>559</ele>
        <time>2016-10-29T09:36:35Z</time>
      </trkpt>
      <trkpt lat="43.38948" lon="5.4358">
        <ele>559</ele>
        <time>2016-10-29T09:36:44Z</time>
      </trkpt>
      <trkpt lat="43.38938" lon="5.43577">
        <ele>559</ele>
        <time>2016-10-29T09:36:53Z</time>
      </trkpt>
      <trkpt lat="43.38928" lon="5.43577">
        <ele>559</ele>
        <time>2016-10-29T09:37:02Z</time>
      </trkpt>
      <trkpt lat="43.38918" lon="5.43578">
        <ele>559</ele>
        <time>2016-10-29T09:37:11Z</time>
      </trkpt>
      <trkpt lat="43.38907" lon="5.43579">
        <ele>560</ele>
        <time>2016-10-29T09:37:20Z</time>
      </trkpt>
      <trkpt lat="43.38898" lon="5.43578">
        <ele>560</ele>
        <time>2016-10-29T09:37:29Z</time>
      </trkpt>
      <trkpt lat="43.38886" lon="5.43578">
        <ele>561</ele>
        <time>2016-10-29T09:37:39Z</time>
      </trkpt>
      <trkpt lat="43.38874" lon="5.43574">
        <ele>561</ele>
        <time>2016-10-29T09:37:49Z</time>
      </trkpt>
      <trkpt lat="43.38864" lon="5.43568">
        <ele>561</ele>
        <time>2016-10-29T09:37:59Z</time>
      </trkpt>
      <trkpt lat="43.38856" lon="5.43558">
        <ele>561</ele>
        <time>2016-10-29T09:38:08Z</time>
      </trkpt>
      <trkpt lat="43.38848" lon="5.43548">
        <ele>561</ele>
        <time>2016-10-29T09:38:17Z</time>
      </trkpt>
      <trkpt lat="43.38839" lon="5.43538">
        <ele>561</ele>
        <time>2016-10-29T09:38:26Z</time>
      </trkpt>
      <trkpt lat="43.38828" lon="5.43529">
        <ele>562</ele>
        <time>2016-10-29T09:38:36Z</time>
      </trkpt>
      <trkpt lat="43.38818" lon="5.4352">
        <ele>565</ele>
        <time>2016-10-29T09:38:46Z</time>
      </trkpt>
      <trkpt lat="43.38809" lon="5.43512">
        <ele>567</ele>
        <time>2016-10-29T09:38:56Z</time>
      </trkpt>
      <trkpt lat="43.38803" lon="5.43503">
        <ele>567</ele>
        <time>2016-10-29T09:39:05Z</time>
      </trkpt>
      <trkpt lat="43.38796" lon="5.43494">
        <ele>567</ele>
        <time>2016-10-29T09:39:14Z</time>
      </trkpt>
      <trkpt lat="43.3879" lon="5.43484">
        <ele>567</ele>
        <time>2016-10-29T09:39:23Z</time>
      </trkpt>
      <trkpt lat="43.38783" lon="5.43472">
        <ele>567</ele>
        <time>2016-10-29T09:39:33Z</time>
      </trkpt>
      <trkpt lat="43.38777" lon="5.43457">
        <ele>570</ele>
        <time>2016-10-29T09:39:43Z</time>
      </trkpt>
      <trkpt lat="43.38771" lon="5.43444">
        <ele>571</ele>
        <time>2016-10-29T09:39:52Z</time>
      </trkpt>
      <trkpt lat="43.38765" lon="5.43432">
        <ele>571</ele>
        <time>2016-10-29T09:40:01Z</time>
      </trkpt>
      <trkpt lat="43.38757" lon="5.43419">
        <ele>571</ele>
        <time>2016-10-29T09:40:11Z</time>
      </trkpt>
      <trkpt lat="43.38749" lon="5.43405">
        <ele>573</ele>
        <time>2016-10-29T09:40:21Z</time>
      </trkpt>
      <trkpt lat="43.38741" lon="5.43393">
        <ele>573</ele>
        <time>2016-10-29T09:40:31Z</time>
      </trkpt>
      <trkpt lat="43.38731" lon="5.43383">
        <ele>573</ele>
        <time>2016-10-29T09:40:41Z</time>
      </trkpt>
      <trkpt lat="43.38723" lon="5.4337">
        <ele>574</ele>
        <time>2016-10-29T09:40:51Z</time>
      </trkpt>
      <trkpt lat="43.38715" lon="5.43359">
        <ele>574</ele>
        <time>2016-10-29T09:41:01Z</time>
      </trkpt>
      <trkpt lat="43.38709" lon="5.43352">
        <ele>575</ele>
        <time>2016-10-29T09:41:11Z</time>
      </trkpt>
      <trkpt lat="43.38699" lon="5.43347">
        <ele>575</ele>
        <time>2016-10-29T09:41:21Z</time>
      </trkpt>
      <trkpt lat="43.38691" lon="5.43347">
        <ele>575</ele>
        <time>2016-10-29T09:41:44Z</time>
      </trkpt>
      <trkpt lat="43.38689" lon="5.43348">
        <ele>575</ele>
        <time>2016-10-29T09:41:53Z</time>
      </trkpt>
      <trkpt lat="43.38687" lon="5.43347">
        <ele>578</ele>
        <time>2016-10-29T09:42:37Z</time>
      </trkpt>
      <trkpt lat="43.38685" lon="5.43347">
        <ele>578</ele>
        <time>2016-10-29T09:42:50Z</time>
      </trkpt>
      <trkpt lat="43.38686" lon="5.43348">
        <ele>578</ele>
        <time>2016-10-29T09:43:10Z</time>
      </trkpt>
      <trkpt lat="43.38685" lon="5.43349">
        <ele>577</ele>
        <time>2016-10-29T09:43:59Z</time>
      </trkpt>
      <trkpt lat="43.38685" lon="5.43351">
        <ele>577</ele>
        <time>2016-10-29T09:44:25Z</time>
      </trkpt>
      <trkpt lat="43.38684" lon="5.43349">
        <ele>577</ele>
        <time>2016-10-29T09:44:40Z</time>
      </trkpt>
      <trkpt lat="43.38684" lon="5.43347">
        <ele>577</ele>
        <time>2016-10-29T09:45:00Z</time>
      </trkpt>
      <trkpt lat="43.38683" lon="5.43346">
        <ele>579</ele>
        <time>2016-10-29T09:45:11Z</time>
      </trkpt>
      <trkpt lat="43.38682" lon="5.43344">
        <ele>583</ele>
        <time>2016-10-29T09:45:27Z</time>
      </trkpt>
      <trkpt lat="43.38683" lon="5.43346">
        <ele>578</ele>
        <time>2016-10-29T09:45:54Z</time>
      </trkpt>
      <trkpt lat="43.38682" lon="5.43349">
        <ele>574</ele>
        <time>2016-10-29T09:46:32Z</time>
      </trkpt>
      <trkpt lat="43.38681" lon="5.43349">
        <ele>574</ele>
        <time>2016-10-29T09:47:06Z</time>
      </trkpt>
      <trkpt lat="43.38682" lon="5.43346">
        <ele>574</ele>
        <time>2016-10-29T09:47:18Z</time>
      </trkpt>
      <trkpt lat="43.38684" lon="5.43346">
        <ele>574</ele>
        <time>2016-10-29T09:47:27Z</time>
      </trkpt>
      <trkpt lat="43.38685" lon="5.43348">
        <ele>574</ele>
        <time>2016-10-29T09:47:42Z</time>
      </trkpt>
      <trkpt lat="43.38683" lon="5.43344">
        <ele>574</ele>
        <time>2016-10-29T09:47:59Z</time>
      </trkpt>
      <trkpt lat="43.38683" lon="5.43336">
        <ele>574</ele>
        <time>2016-10-29T09:48:08Z</time>
      </trkpt>
      <trkpt lat="43.38682" lon="5.43327">
        <ele>573</ele>
        <time>2016-10-29T09:48:18Z</time>
      </trkpt>
      <trkpt lat="43.38677" lon="5.43317">
        <ele>572</ele>
        <time>2016-10-29T09:48:28Z</time>
      </trkpt>
      <trkpt lat="43.38671" lon="5.43307">
        <ele>572</ele>
        <time>2016-10-29T09:48:38Z</time>
      </trkpt>
      <trkpt lat="43.38668" lon="5.43297">
        <ele>571</ele>
        <time>2016-10-29T09:48:47Z</time>
      </trkpt>
      <trkpt lat="43.38662" lon="5.43287">
        <ele>569</ele>
        <time>2016-10-29T09:48:57Z</time>
      </trkpt>
      <trkpt lat="43.38656" lon="5.43277">
        <ele>567</ele>
        <time>2016-10-29T09:49:07Z</time>
      </trkpt>
      <trkpt lat="43.38649" lon="5.43267">
        <ele>565</ele>
        <time>2016-10-29T09:49:17Z</time>
      </trkpt>
      <trkpt lat="43.38643" lon="5.4326">
        <ele>563</ele>
        <time>2016-10-29T09:49:27Z</time>
      </trkpt>
      <trkpt lat="43.38636" lon="5.43249">
        <ele>561</ele>
        <time>2016-10-29T09:49:36Z</time>
      </trkpt>
      <trkpt lat="43.38631" lon="5.43238">
        <ele>559</ele>
        <time>2016-10-29T09:49:46Z</time>
      </trkpt>
      <trkpt lat="43.38624" lon="5.43228">
        <ele>559</ele>
        <time>2016-10-29T09:49:55Z</time>
      </trkpt>
      <trkpt lat="43.38618" lon="5.43217">
        <ele>557</ele>
        <time>2016-10-29T09:50:05Z</time>
      </trkpt>
      <trkpt lat="43.38614" lon="5.43204">
        <ele>555</ele>
        <time>2016-10-29T09:50:15Z</time>
      </trkpt>
      <trkpt lat="43.38611" lon="5.43193">
        <ele>555</ele>
        <time>2016-10-29T09:50:24Z</time>
      </trkpt>
      <trkpt lat="43.38607" lon="5.4318">
        <ele>554</ele>
        <time>2016-10-29T09:50:33Z</time>
      </trkpt>
      <trkpt lat="43.38601" lon="5.43166">
        <ele>554</ele>
        <time>2016-10-29T09:50:42Z</time>
      </trkpt>
      <trkpt lat="43.38595" lon="5.43156">
        <ele>554</ele>
        <time>2016-10-29T09:50:51Z</time>
      </trkpt>
      <trkpt lat="43.38593" lon="5.43156">
        <ele>554</ele>
        <time>2016-10-29T09:51:01Z</time>
      </trkpt>
      <trkpt lat="43.38591" lon="5.43159">
        <ele>555</ele>
        <time>2016-10-29T09:51:19Z</time>
      </trkpt>
      <trkpt lat="43.3859" lon="5.43152">
        <ele>555</ele>
        <time>2016-10-29T09:51:28Z</time>
      </trkpt>
      <trkpt lat="43.38584" lon="5.4314">
        <ele>556</ele>
        <time>2016-10-29T09:51:37Z</time>
      </trkpt>
      <trkpt lat="43.38578" lon="5.43127">
        <ele>556</ele>
        <time>2016-10-29T09:51:46Z</time>
      </trkpt>
      <trkpt lat="43.38573" lon="5.43112">
        <ele>556</ele>
        <time>2016-10-29T09:51:55Z</time>
      </trkpt>
      <trkpt lat="43.38567" lon="5.43097">
        <ele>556</ele>
        <time>2016-10-29T09:52:04Z</time>
      </trkpt>
      <trkpt lat="43.38562" lon="5.43083">
        <ele>556</ele>
        <time>2016-10-29T09:52:13Z</time>
      </trkpt>
      <trkpt lat="43.38557" lon="5.4307">
        <ele>556</ele>
        <time>2016-10-29T09:52:22Z</time>
      </trkpt>
      <trkpt lat="43.38552" lon="5.43057">
        <ele>556</ele>
        <time>2016-10-29T09:52:32Z</time>
      </trkpt>
      <trkpt lat="43.38547" lon="5.43046">
        <ele>556</ele>
        <time>2016-10-29T09:52:42Z</time>
      </trkpt>
      <trkpt lat="43.38541" lon="5.43034">
        <ele>556</ele>
        <time>2016-10-29T09:52:52Z</time>
      </trkpt>
      <trkpt lat="43.38535" lon="5.43024">
        <ele>557</ele>
        <time>2016-10-29T09:53:02Z</time>
      </trkpt>
      <trkpt lat="43.3853" lon="5.43012">
        <ele>558</ele>
        <time>2016-10-29T09:53:12Z</time>
      </trkpt>
      <trkpt lat="43.38525" lon="5.43001">
        <ele>558</ele>
        <time>2016-10-29T09:53:21Z</time>
      </trkpt>
      <trkpt lat="43.38521" lon="5.42988">
        <ele>558</ele>
        <time>2016-10-29T09:53:31Z</time>
      </trkpt>
      <trkpt lat="43.38516" lon="5.42976">
        <ele>558</ele>
        <time>2016-10-29T09:53:41Z</time>
      </trkpt>
      <trkpt lat="43.38512" lon="5.42964">
        <ele>558</ele>
        <time>2016-10-29T09:53:50Z</time>
      </trkpt>
      <trkpt lat="43.38509" lon="5.42952">
        <ele>559</ele>
        <time>2016-10-29T09:53:59Z</time>
      </trkpt>
      <trkpt lat="43.38507" lon="5.42939">
        <ele>560</ele>
        <time>2016-10-29T09:54:08Z</time>
      </trkpt>
      <trkpt lat="43.38505" lon="5.42927">
        <ele>561</ele>
        <time>2016-10-29T09:54:17Z</time>
      </trkpt>
      <trkpt lat="43.38506" lon="5.42918">
        <ele>562</ele>
        <time>2016-10-29T09:54:26Z</time>
      </trkpt>
      <trkpt lat="43.38508" lon="5.42905">
        <ele>563</ele>
        <time>2016-10-29T09:54:36Z</time>
      </trkpt>
      <trkpt lat="43.38512" lon="5.42893">
        <ele>565</ele>
        <time>2016-10-29T09:54:45Z</time>
      </trkpt>
      <trkpt lat="43.38517" lon="5.42879">
        <ele>565</ele>
        <time>2016-10-29T09:54:55Z</time>
      </trkpt>
      <trkpt lat="43.38523" lon="5.42868">
        <ele>565</ele>
        <time>2016-10-29T09:55:04Z</time>
      </trkpt>
      <trkpt lat="43.38532" lon="5.4286">
        <ele>565</ele>
        <time>2016-10-29T09:55:14Z</time>
      </trkpt>
      <trkpt lat="43.38543" lon="5.42857">
        <ele>565</ele>
        <time>2016-10-29T09:55:23Z</time>
      </trkpt>
      <trkpt lat="43.38557" lon="5.42853">
        <ele>565</ele>
        <time>2016-10-29T09:55:32Z</time>
      </trkpt>
      <trkpt lat="43.38568" lon="5.42847">
        <ele>566</ele>
        <time>2016-10-29T09:55:42Z</time>
      </trkpt>
      <trkpt lat="43.38578" lon="5.42838">
        <ele>566</ele>
        <time>2016-10-29T09:55:51Z</time>
      </trkpt>
      <trkpt lat="43.38586" lon="5.42828">
        <ele>566</ele>
        <time>2016-10-29T09:56:00Z</time>
      </trkpt>
      <trkpt lat="43.38592" lon="5.42817">
        <ele>566</ele>
        <time>2016-10-29T09:56:09Z</time>
      </trkpt>
      <trkpt lat="43.38597" lon="5.42804">
        <ele>566</ele>
        <time>2016-10-29T09:56:18Z</time>
      </trkpt>
      <trkpt lat="43.38602" lon="5.4279">
        <ele>565</ele>
        <time>2016-10-29T09:56:27Z</time>
      </trkpt>
      <trkpt lat="43.38608" lon="5.42775">
        <ele>564</ele>
        <time>2016-10-29T09:56:36Z</time>
      </trkpt>
      <trkpt lat="43.38612" lon="5.42761">
        <ele>561</ele>
        <time>2016-10-29T09:56:45Z</time>
      </trkpt>
      <trkpt lat="43.38617" lon="5.42747">
        <ele>560</ele>
        <time>2016-10-29T09:56:54Z</time>
      </trkpt>
      <trkpt lat="43.38616" lon="5.42733">
        <ele>560</ele>
        <time>2016-10-29T09:57:03Z</time>
      </trkpt>
      <trkpt lat="43.38612" lon="5.4272">
        <ele>560</ele>
        <time>2016-10-29T09:57:12Z</time>
      </trkpt>
      <trkpt lat="43.38604" lon="5.42709">
        <ele>560</ele>
        <time>2016-10-29T09:57:22Z</time>
      </trkpt>
      <trkpt lat="43.38595" lon="5.42706">
        <ele>560</ele>
        <time>2016-10-29T09:57:32Z</time>
      </trkpt>
      <trkpt lat="43.38584" lon="5.42706">
        <ele>559</ele>
        <time>2016-10-29T09:57:41Z</time>
      </trkpt>
      <trkpt lat="43.38574" lon="5.42707">
        <ele>559</ele>
        <time>2016-10-29T09:57:50Z</time>
      </trkpt>
      <trkpt lat="43.38562" lon="5.4271">
        <ele>559</ele>
        <time>2016-10-29T09:57:59Z</time>
      </trkpt>
      <trkpt lat="43.38551" lon="5.42712">
        <ele>559</ele>
        <time>2016-10-29T09:58:08Z</time>
      </trkpt>
      <trkpt lat="43.3854" lon="5.42717">
        <ele>559</ele>
        <time>2016-10-29T09:58:17Z</time>
      </trkpt>
      <trkpt lat="43.38529" lon="5.42721">
        <ele>559</ele>
        <time>2016-10-29T09:58:26Z</time>
      </trkpt>
      <trkpt lat="43.38518" lon="5.42724">
        <ele>559</ele>
        <time>2016-10-29T09:58:35Z</time>
      </trkpt>
      <trkpt lat="43.38506" lon="5.42726">
        <ele>559</ele>
        <time>2016-10-29T09:58:45Z</time>
      </trkpt>
      <trkpt lat="43.38496" lon="5.42719">
        <ele>559</ele>
        <time>2016-10-29T09:58:55Z</time>
      </trkpt>
      <trkpt lat="43.38492" lon="5.42713">
        <ele>559</ele>
        <time>2016-10-29T09:59:15Z</time>
      </trkpt>
      <trkpt lat="43.38494" lon="5.4271">
        <ele>559</ele>
        <time>2016-10-29T09:59:29Z</time>
      </trkpt>
      <trkpt lat="43.38496" lon="5.42709">
        <ele>559</ele>
        <time>2016-10-29T09:59:38Z</time>
      </trkpt>
      <trkpt lat="43.38493" lon="5.42702">
        <ele>562</ele>
        <time>2016-10-29T09:59:48Z</time>
      </trkpt>
      <trkpt lat="43.38489" lon="5.42691">
        <ele>562</ele>
        <time>2016-10-29T09:59:57Z</time>
      </trkpt>
      <trkpt lat="43.38486" lon="5.4268">
        <ele>562</ele>
        <time>2016-10-29T10:00:07Z</time>
      </trkpt>
      <trkpt lat="43.38483" lon="5.42665">
        <ele>561</ele>
        <time>2016-10-29T10:00:17Z</time>
      </trkpt>
      <trkpt lat="43.3848" lon="5.42652">
        <ele>560</ele>
        <time>2016-10-29T10:00:26Z</time>
      </trkpt>
      <trkpt lat="43.38477" lon="5.42638">
        <ele>558</ele>
        <time>2016-10-29T10:00:36Z</time>
      </trkpt>
      <trkpt lat="43.38475" lon="5.42625">
        <ele>556</ele>
        <time>2016-10-29T10:00:45Z</time>
      </trkpt>
      <trkpt lat="43.38477" lon="5.42611">
        <ele>555</ele>
        <time>2016-10-29T10:00:54Z</time>
      </trkpt>
      <trkpt lat="43.38482" lon="5.42596">
        <ele>555</ele>
        <time>2016-10-29T10:01:04Z</time>
      </trkpt>
      <trkpt lat="43.38486" lon="5.42589">
        <ele>555</ele>
        <time>2016-10-29T10:01:14Z</time>
      </trkpt>
      <trkpt lat="43.38494" lon="5.4258">
        <ele>555</ele>
        <time>2016-10-29T10:01:23Z</time>
      </trkpt>
      <trkpt lat="43.38505" lon="5.42569">
        <ele>555</ele>
        <time>2016-10-29T10:01:33Z</time>
      </trkpt>
      <trkpt lat="43.38514" lon="5.42557">
        <ele>554</ele>
        <time>2016-10-29T10:01:44Z</time>
      </trkpt>
      <trkpt lat="43.38518" lon="5.42542">
        <ele>554</ele>
        <time>2016-10-29T10:01:53Z</time>
      </trkpt>
      <trkpt lat="43.38517" lon="5.42527">
        <ele>553</ele>
        <time>2016-10-29T10:02:02Z</time>
      </trkpt>
      <trkpt lat="43.38513" lon="5.42514">
        <ele>552</ele>
        <time>2016-10-29T10:02:11Z</time>
      </trkpt>
      <trkpt lat="43.38507" lon="5.425">
        <ele>552</ele>
        <time>2016-10-29T10:02:21Z</time>
      </trkpt>
      <trkpt lat="43.38502" lon="5.42485">
        <ele>551</ele>
        <time>2016-10-29T10:02:30Z</time>
      </trkpt>
      <trkpt lat="43.38502" lon="5.42471">
        <ele>550</ele>
        <time>2016-10-29T10:02:39Z</time>
      </trkpt>
      <trkpt lat="43.38504" lon="5.42456">
        <ele>550</ele>
        <time>2016-10-29T10:02:48Z</time>
      </trkpt>
      <trkpt lat="43.38505" lon="5.42442">
        <ele>549</ele>
        <time>2016-10-29T10:02:58Z</time>
      </trkpt>
      <trkpt lat="43.38509" lon="5.42427">
        <ele>547</ele>
        <time>2016-10-29T10:03:08Z</time>
      </trkpt>
      <trkpt lat="43.38513" lon="5.42413">
        <ele>545</ele>
        <time>2016-10-29T10:03:17Z</time>
      </trkpt>
      <trkpt lat="43.38519" lon="5.424">
        <ele>544</ele>
        <time>2016-10-29T10:03:26Z</time>
      </trkpt>
      <trkpt lat="43.38525" lon="5.42388">
        <ele>543</ele>
        <time>2016-10-29T10:03:35Z</time>
      </trkpt>
      <trkpt lat="43.38532" lon="5.42375">
        <ele>543</ele>
        <time>2016-10-29T10:03:45Z</time>
      </trkpt>
      <trkpt lat="43.3854" lon="5.42362">
        <ele>543</ele>
        <time>2016-10-29T10:03:54Z</time>
      </trkpt>
      <trkpt lat="43.38542" lon="5.42347">
        <ele>542</ele>
        <time>2016-10-29T10:04:04Z</time>
      </trkpt>
      <trkpt lat="43.38547" lon="5.42332">
        <ele>540</ele>
        <time>2016-10-29T10:04:14Z</time>
      </trkpt>
      <trkpt lat="43.38551" lon="5.42317">
        <ele>538</ele>
        <time>2016-10-29T10:04:23Z</time>
      </trkpt>
      <trkpt lat="43.38558" lon="5.42306">
        <ele>537</ele>
        <time>2016-10-29T10:04:33Z</time>
      </trkpt>
      <trkpt lat="43.3857" lon="5.42295">
        <ele>537</ele>
        <time>2016-10-29T10:04:44Z</time>
      </trkpt>
      <trkpt lat="43.38581" lon="5.42286">
        <ele>536</ele>
        <time>2016-10-29T10:04:53Z</time>
      </trkpt>
      <trkpt lat="43.38588" lon="5.42275">
        <ele>535</ele>
        <time>2016-10-29T10:05:02Z</time>
      </trkpt>
      <trkpt lat="43.38589" lon="5.42259">
        <ele>535</ele>
        <time>2016-10-29T10:05:11Z</time>
      </trkpt>
      <trkpt lat="43.38585" lon="5.42245">
        <ele>534</ele>
        <time>2016-10-29T10:05:21Z</time>
      </trkpt>
      <trkpt lat="43.38577" lon="5.42231">
        <ele>534</ele>
        <time>2016-10-29T10:05:32Z</time>
      </trkpt>
      <trkpt lat="43.38569" lon="5.42219">
        <ele>534</ele>
        <time>2016-10-29T10:05:42Z</time>
      </trkpt>
      <trkpt lat="43.38562" lon="5.42207">
        <ele>534</ele>
        <time>2016-10-29T10:05:51Z</time>
      </trkpt>
      <trkpt lat="43.38556" lon="5.42195">
        <ele>533</ele>
        <time>2016-10-29T10:06:00Z</time>
      </trkpt>
      <trkpt lat="43.38551" lon="5.42185">
        <ele>532</ele>
        <time>2016-10-29T10:06:11Z</time>
      </trkpt>
      <trkpt lat="43.38544" lon="5.42189">
        <ele>531</ele>
        <time>2016-10-29T10:06:22Z</time>
      </trkpt>
      <trkpt lat="43.38544" lon="5.42194">
        <ele>531</ele>
        <time>2016-10-29T10:06:37Z</time>
      </trkpt>
      <trkpt lat="43.38542" lon="5.42194">
        <ele>531</ele>
        <time>2016-10-29T10:06:46Z</time>
      </trkpt>
      <trkpt lat="43.38542" lon="5.42193">
        <ele>531</ele>
        <time>2016-10-29T10:07:04Z</time>
      </trkpt>
      <trkpt lat="43.38544" lon="5.4219">
        <ele>531</ele>
        <time>2016-10-29T10:07:31Z</time>
      </trkpt>
      <trkpt lat="43.38541" lon="5.42195">
        <ele>531</ele>
        <time>2016-10-29T10:07:41Z</time>
      </trkpt>
      <trkpt lat="43.38535" lon="5.42207">
        <ele>531</ele>
        <time>2016-10-29T10:07:50Z</time>
      </trkpt>
      <trkpt lat="43.38531" lon="5.42211">
        <ele>531</ele>
        <time>2016-10-29T10:08:07Z</time>
      </trkpt>
      <trkpt lat="43.38531" lon="5.42213">
        <ele>531</ele>
        <time>2016-10-29T10:08:28Z</time>
      </trkpt>
      <trkpt lat="43.38531" lon="5.42214">
        <ele>531</ele>
        <time>2016-10-29T10:08:41Z</time>
      </trkpt>
      <trkpt lat="43.38524" lon="5.42225">
        <ele>531</ele>
        <time>2016-10-29T10:08:51Z</time>
      </trkpt>
      <trkpt lat="43.38522" lon="5.42228">
        <ele>531</ele>
        <time>2016-10-29T10:09:04Z</time>
      </trkpt>
      <trkpt lat="43.38521" lon="5.4223">
        <ele>531</ele>
        <time>2016-10-29T10:09:15Z</time>
      </trkpt>
      <trkpt lat="43.38517" lon="5.4224">
        <ele>531</ele>
        <time>2016-10-29T10:09:26Z</time>
      </trkpt>
      <trkpt lat="43.38515" lon="5.4225">
        <ele>531</ele>
        <time>2016-10-29T10:09:35Z</time>
      </trkpt>
      <trkpt lat="43.38511" lon="5.42262">
        <ele>531</ele>
        <time>2016-10-29T10:09:45Z</time>
      </trkpt>
      <trkpt lat="43.38506" lon="5.42272">
        <ele>532</ele>
        <time>2016-10-29T10:09:55Z</time>
      </trkpt>
      <trkpt lat="43.38499" lon="5.42285">
        <ele>532</ele>
        <time>2016-10-29T10:10:05Z</time>
      </trkpt>
      <trkpt lat="43.38494" lon="5.42296">
        <ele>532</ele>
        <time>2016-10-29T10:10:14Z</time>
      </trkpt>
      <trkpt lat="43.38489" lon="5.42308">
        <ele>533</ele>
        <time>2016-10-29T10:10:23Z</time>
      </trkpt>
      <trkpt lat="43.38484" lon="5.4232">
        <ele>534</ele>
        <time>2016-10-29T10:10:32Z</time>
      </trkpt>
      <trkpt lat="43.38479" lon="5.42333">
        <ele>535</ele>
        <time>2016-10-29T10:10:42Z</time>
      </trkpt>
      <trkpt lat="43.38476" lon="5.42344">
        <ele>536</ele>
        <time>2016-10-29T10:10:51Z</time>
      </trkpt>
      <trkpt lat="43.38473" lon="5.42357">
        <ele>537</ele>
        <time>2016-10-29T10:11:01Z</time>
      </trkpt>
      <trkpt lat="43.3847" lon="5.42369">
        <ele>539</ele>
        <time>2016-10-29T10:11:10Z</time>
      </trkpt>
      <trkpt lat="43.38466" lon="5.42381">
        <ele>539</ele>
        <time>2016-10-29T10:11:19Z</time>
      </trkpt>
      <trkpt lat="43.38462" lon="5.42392">
        <ele>539</ele>
        <time>2016-10-29T10:11:29Z</time>
      </trkpt>
      <trkpt lat="43.38459" lon="5.42403">
        <ele>541</ele>
        <time>2016-10-29T10:11:39Z</time>
      </trkpt>
      <trkpt lat="43.38453" lon="5.42415">
        <ele>541</ele>
        <time>2016-10-29T10:11:48Z</time>
      </trkpt>
      <trkpt lat="43.38446" lon="5.42427">
        <ele>541</ele>
        <time>2016-10-29T10:11:58Z</time>
      </trkpt>
      <trkpt lat="43.38437" lon="5.42437">
        <ele>541</ele>
        <time>2016-10-29T10:12:08Z</time>
      </trkpt>
      <trkpt lat="43.38429" lon="5.42446">
        <ele>541</ele>
        <time>2016-10-29T10:12:18Z</time>
      </trkpt>
      <trkpt lat="43.38421" lon="5.4245">
        <ele>541</ele>
        <time>2016-10-29T10:12:28Z</time>
      </trkpt>
      <trkpt lat="43.38414" lon="5.42453">
        <ele>541</ele>
        <time>2016-10-29T10:12:38Z</time>
      </trkpt>
      <trkpt lat="43.38405" lon="5.42453">
        <ele>538</ele>
        <time>2016-10-29T10:12:48Z</time>
      </trkpt>
      <trkpt lat="43.38396" lon="5.42452">
        <ele>537</ele>
        <time>2016-10-29T10:12:58Z</time>
      </trkpt>
      <trkpt lat="43.38388" lon="5.42451">
        <ele>537</ele>
        <time>2016-10-29T10:13:08Z</time>
      </trkpt>
      <trkpt lat="43.3838" lon="5.42448">
        <ele>537</ele>
        <time>2016-10-29T10:13:18Z</time>
      </trkpt>
      <trkpt lat="43.38372" lon="5.42446">
        <ele>537</ele>
        <time>2016-10-29T10:13:28Z</time>
      </trkpt>
      <trkpt lat="43.38364" lon="5.42439">
        <ele>537</ele>
        <time>2016-10-29T10:13:38Z</time>
      </trkpt>
      <trkpt lat="43.38358" lon="5.42428">
        <ele>537</ele>
        <time>2016-10-29T10:13:48Z</time>
      </trkpt>
      <trkpt lat="43.3835" lon="5.4242">
        <ele>537</ele>
        <time>2016-10-29T10:14:07Z</time>
      </trkpt>
      <trkpt lat="43.38346" lon="5.42414">
        <ele>537</ele>
        <time>2016-10-29T10:14:17Z</time>
      </trkpt>
      <trkpt lat="43.38337" lon="5.42404">
        <ele>537</ele>
        <time>2016-10-29T10:14:27Z</time>
      </trkpt>
      <trkpt lat="43.38331" lon="5.4239">
        <ele>537</ele>
        <time>2016-10-29T10:14:37Z</time>
      </trkpt>
      <trkpt lat="43.38322" lon="5.4238">
        <ele>537</ele>
        <time>2016-10-29T10:14:46Z</time>
      </trkpt>
      <trkpt lat="43.38315" lon="5.42368">
        <ele>537</ele>
        <time>2016-10-29T10:14:56Z</time>
      </trkpt>
      <trkpt lat="43.38314" lon="5.42358">
        <ele>537</ele>
        <time>2016-10-29T10:15:06Z</time>
      </trkpt>
      <trkpt lat="43.38308" lon="5.42347">
        <ele>536</ele>
        <time>2016-10-29T10:15:16Z</time>
      </trkpt>
      <trkpt lat="43.38299" lon="5.42336">
        <ele>536</ele>
        <time>2016-10-29T10:15:26Z</time>
      </trkpt>
      <trkpt lat="43.38294" lon="5.4233">
        <ele>536</ele>
        <time>2016-10-29T10:15:44Z</time>
      </trkpt>
      <trkpt lat="43.38284" lon="5.42322">
        <ele>535</ele>
        <time>2016-10-29T10:15:54Z</time>
      </trkpt>
      <trkpt lat="43.3828" lon="5.42312">
        <ele>534</ele>
        <time>2016-10-29T10:16:12Z</time>
      </trkpt>
      <trkpt lat="43.3828" lon="5.42314">
        <ele>534</ele>
        <time>2016-10-29T10:16:34Z</time>
      </trkpt>
      <trkpt lat="43.38278" lon="5.42304">
        <ele>534</ele>
        <time>2016-10-29T10:16:43Z</time>
      </trkpt>
      <trkpt lat="43.38274" lon="5.42297">
        <ele>534</ele>
        <time>2016-10-29T10:16:54Z</time>
      </trkpt>
      <trkpt lat="43.38273" lon="5.42289">
        <ele>534</ele>
        <time>2016-10-29T10:17:03Z</time>
      </trkpt>
      <trkpt lat="43.38272" lon="5.42281">
        <ele>534</ele>
        <time>2016-10-29T10:17:12Z</time>
      </trkpt>
      <trkpt lat="43.38269" lon="5.42278">
        <ele>537</ele>
        <time>2016-10-29T10:17:24Z</time>
      </trkpt>
      <trkpt lat="43.38265" lon="5.42279">
        <ele>539</ele>
        <time>2016-10-29T10:17:34Z</time>
      </trkpt>
      <trkpt lat="43.38263" lon="5.42285">
        <ele>539</ele>
        <time>2016-10-29T10:17:44Z</time>
      </trkpt>
      <trkpt lat="43.38262" lon="5.42286">
        <ele>541</ele>
        <time>2016-10-29T10:17:53Z</time>
      </trkpt>
      <trkpt lat="43.38263" lon="5.42287">
        <ele>543</ele>
        <time>2016-10-29T10:18:59Z</time>
      </trkpt>
      <trkpt lat="43.38265" lon="5.42287">
        <ele>544</ele>
        <time>2016-10-29T10:19:37Z</time>
      </trkpt>
      <trkpt lat="43.38265" lon="5.42289">
        <ele>544</ele>
        <time>2016-10-29T10:19:46Z</time>
      </trkpt>
      <trkpt lat="43.38266" lon="5.4229">
        <ele>544</ele>
        <time>2016-10-29T10:20:05Z</time>
      </trkpt>
      <trkpt lat="43.38269" lon="5.42291">
        <ele>544</ele>
        <time>2016-10-29T10:20:20Z</time>
      </trkpt>
      <trkpt lat="43.38271" lon="5.42293">
        <ele>544</ele>
        <time>2016-10-29T10:20:35Z</time>
      </trkpt>
      <trkpt lat="43.38273" lon="5.42297">
        <ele>543</ele>
        <time>2016-10-29T10:20:46Z</time>
      </trkpt>
      <trkpt lat="43.38276" lon="5.42302">
        <ele>542</ele>
        <time>2016-10-29T10:20:56Z</time>
      </trkpt>
      <trkpt lat="43.38279" lon="5.42308">
        <ele>539</ele>
        <time>2016-10-29T10:21:05Z</time>
      </trkpt>
      <trkpt lat="43.38281" lon="5.42317">
        <ele>538</ele>
        <time>2016-10-29T10:21:19Z</time>
      </trkpt>
      <trkpt lat="43.38281" lon="5.4232">
        <ele>536</ele>
        <time>2016-10-29T10:21:32Z</time>
      </trkpt>
      <trkpt lat="43.38282" lon="5.42321">
        <ele>536</ele>
        <time>2016-10-29T10:21:41Z</time>
      </trkpt>
      <trkpt lat="43.38278" lon="5.42328">
        <ele>533</ele>
        <time>2016-10-29T10:21:50Z</time>
      </trkpt>
      <trkpt lat="43.38272" lon="5.42334">
        <ele>531</ele>
        <time>2016-10-29T10:22:03Z</time>
      </trkpt>
      <trkpt lat="43.38271" lon="5.42333">
        <ele>531</ele>
        <time>2016-10-29T10:22:18Z</time>
      </trkpt>
      <trkpt lat="43.38273" lon="5.42332">
        <ele>535</ele>
        <time>2016-10-29T10:22:33Z</time>
      </trkpt>
      <trkpt lat="43.38275" lon="5.42336">
        <ele>535</ele>
        <time>2016-10-29T10:22:43Z</time>
      </trkpt>
      <trkpt lat="43.38276" lon="5.42339">
        <ele>535</ele>
        <time>2016-10-29T10:22:55Z</time>
      </trkpt>
      <trkpt lat="43.38276" lon="5.4234">
        <ele>535</ele>
        <time>2016-10-29T10:23:05Z</time>
      </trkpt>
      <trkpt lat="43.38276" lon="5.42341">
        <ele>535</ele>
        <time>2016-10-29T10:23:20Z</time>
      </trkpt>
      <trkpt lat="43.38274" lon="5.4234">
        <ele>534</ele>
        <time>2016-10-29T10:23:57Z</time>
      </trkpt>
      <trkpt lat="43.38273" lon="5.42339">
        <ele>534</ele>
        <time>2016-10-29T10:24:26Z</time>
      </trkpt>
      <trkpt lat="43.38276" lon="5.42339">
        <ele>535</ele>
        <time>2016-10-29T10:24:37Z</time>
      </trkpt>
      <trkpt lat="43.38277" lon="5.42338">
        <ele>540</ele>
        <time>2016-10-29T10:25:13Z</time>
      </trkpt>
      <trkpt lat="43.38277" lon="5.42342">
        <ele>540</ele>
        <time>2016-10-29T10:25:23Z</time>
      </trkpt>
      <trkpt lat="43.38279" lon="5.4235">
        <ele>540</ele>
        <time>2016-10-29T10:25:33Z</time>
      </trkpt>
      <trkpt lat="43.38279" lon="5.42353">
        <ele>540</ele>
        <time>2016-10-29T10:25:51Z</time>
      </trkpt>
      <trkpt lat="43.38282" lon="5.42366">
        <ele>540</ele>
        <time>2016-10-29T10:26:00Z</time>
      </trkpt>
      <trkpt lat="43.38283" lon="5.42379">
        <ele>540</ele>
        <time>2016-10-29T10:26:10Z</time>
      </trkpt>
      <trkpt lat="43.38285" lon="5.42391">
        <ele>540</ele>
        <time>2016-10-29T10:26:20Z</time>
      </trkpt>
      <trkpt lat="43.38287" lon="5.42401">
        <ele>540</ele>
        <time>2016-10-29T10:26:30Z</time>
      </trkpt>
      <trkpt lat="43.38289" lon="5.42414">
        <ele>540</ele>
        <time>2016-10-29T10:26:40Z</time>
      </trkpt>
      <trkpt lat="43.38289" lon="5.42428">
        <ele>540</ele>
        <time>2016-10-29T10:26:51Z</time>
      </trkpt>
      <trkpt lat="43.38289" lon="5.4244">
        <ele>540</ele>
        <time>2016-10-29T10:27:00Z</time>
      </trkpt>
      <trkpt lat="43.38289" lon="5.42453">
        <ele>540</ele>
        <time>2016-10-29T10:27:10Z</time>
      </trkpt>
      <trkpt lat="43.38291" lon="5.42466">
        <ele>540</ele>
        <time>2016-10-29T10:27:21Z</time>
      </trkpt>
      <trkpt lat="43.38292" lon="5.42479">
        <ele>541</ele>
        <time>2016-10-29T10:27:31Z</time>
      </trkpt>
      <trkpt lat="43.38293" lon="5.4249">
        <ele>541</ele>
        <time>2016-10-29T10:27:40Z</time>
      </trkpt>
      <trkpt lat="43.38293" lon="5.42505">
        <ele>542</ele>
        <time>2016-10-29T10:27:50Z</time>
      </trkpt>
      <trkpt lat="43.38294" lon="5.42519">
        <ele>543</ele>
        <time>2016-10-29T10:28:01Z</time>
      </trkpt>
      <trkpt lat="43.38296" lon="5.4253">
        <ele>543</ele>
        <time>2016-10-29T10:28:10Z</time>
      </trkpt>
      <trkpt lat="43.38296" lon="5.42543">
        <ele>544</ele>
        <time>2016-10-29T10:28:20Z</time>
      </trkpt>
      <trkpt lat="43.38296" lon="5.42551">
        <ele>548</ele>
        <time>2016-10-29T10:28:47Z</time>
      </trkpt>
      <trkpt lat="43.38297" lon="5.42553">
        <ele>550</ele>
        <time>2016-10-29T10:29:00Z</time>
      </trkpt>
      <trkpt lat="43.38299" lon="5.42566">
        <ele>550</ele>
        <time>2016-10-29T10:29:10Z</time>
      </trkpt>
      <trkpt lat="43.383" lon="5.4258">
        <ele>550</ele>
        <time>2016-10-29T10:29:20Z</time>
      </trkpt>
      <trkpt lat="43.38301" lon="5.42595">
        <ele>550</ele>
        <time>2016-10-29T10:29:30Z</time>
      </trkpt>
      <trkpt lat="43.38302" lon="5.42611">
        <ele>550</ele>
        <time>2016-10-29T10:29:41Z</time>
      </trkpt>
      <trkpt lat="43.38302" lon="5.42624">
        <ele>550</ele>
        <time>2016-10-29T10:29:50Z</time>
      </trkpt>
      <trkpt lat="43.38305" lon="5.42634">
        <ele>550</ele>
        <time>2016-10-29T10:30:00Z</time>
      </trkpt>
      <trkpt lat="43.38311" lon="5.42648">
        <ele>550</ele>
        <time>2016-10-29T10:30:10Z</time>
      </trkpt>
      <trkpt lat="43.38317" lon="5.42659">
        <ele>550</ele>
        <time>2016-10-29T10:30:20Z</time>
      </trkpt>
      <trkpt lat="43.38325" lon="5.42673">
        <ele>550</ele>
        <time>2016-10-29T10:30:31Z</time>
      </trkpt>
      <trkpt lat="43.38331" lon="5.42685">
        <ele>550</ele>
        <time>2016-10-29T10:30:41Z</time>
      </trkpt>
      <trkpt lat="43.38335" lon="5.42698">
        <ele>550</ele>
        <time>2016-10-29T10:30:50Z</time>
      </trkpt>
      <trkpt lat="43.38342" lon="5.4271">
        <ele>550</ele>
        <time>2016-10-29T10:31:01Z</time>
      </trkpt>
      <trkpt lat="43.38343" lon="5.42723">
        <ele>550</ele>
        <time>2016-10-29T10:31:10Z</time>
      </trkpt>
      <trkpt lat="43.3835" lon="5.42739">
        <ele>550</ele>
        <time>2016-10-29T10:31:21Z</time>
      </trkpt>
      <trkpt lat="43.38359" lon="5.42746">
        <ele>550</ele>
        <time>2016-10-29T10:31:30Z</time>
      </trkpt>
      <trkpt lat="43.3836" lon="5.42755">
        <ele>550</ele>
        <time>2016-10-29T10:31:40Z</time>
      </trkpt>
      <trkpt lat="43.38364" lon="5.42767">
        <ele>550</ele>
        <time>2016-10-29T10:31:51Z</time>
      </trkpt>
      <trkpt lat="43.3837" lon="5.42777">
        <ele>550</ele>
        <time>2016-10-29T10:32:01Z</time>
      </trkpt>
      <trkpt lat="43.38369" lon="5.42787">
        <ele>550</ele>
        <time>2016-10-29T10:32:10Z</time>
      </trkpt>
      <trkpt lat="43.38367" lon="5.428">
        <ele>554</ele>
        <time>2016-10-29T10:32:20Z</time>
      </trkpt>
      <trkpt lat="43.3837" lon="5.42808">
        <ele>557</ele>
        <time>2016-10-29T10:32:31Z</time>
      </trkpt>
      <trkpt lat="43.38373" lon="5.42817">
        <ele>559</ele>
        <time>2016-10-29T10:32:41Z</time>
      </trkpt>
      <trkpt lat="43.38376" lon="5.42825">
        <ele>559</ele>
        <time>2016-10-29T10:32:51Z</time>
      </trkpt>
      <trkpt lat="43.3838" lon="5.42834">
        <ele>560</ele>
        <time>2016-10-29T10:33:02Z</time>
      </trkpt>
      <trkpt lat="43.38384" lon="5.42845">
        <ele>561</ele>
        <time>2016-10-29T10:33:12Z</time>
      </trkpt>
      <trkpt lat="43.38385" lon="5.42856">
        <ele>561</ele>
        <time>2016-10-29T10:33:22Z</time>
      </trkpt>
      <trkpt lat="43.38392" lon="5.42866">
        <ele>561</ele>
        <time>2016-10-29T10:33:32Z</time>
      </trkpt>
      <trkpt lat="43.38396" lon="5.42868">
        <ele>560</ele>
        <time>2016-10-29T10:33:41Z</time>
      </trkpt>
      <trkpt lat="43.38403" lon="5.42871">
        <ele>560</ele>
        <time>2016-10-29T10:33:51Z</time>
      </trkpt>
      <trkpt lat="43.3841" lon="5.42875">
        <ele>560</ele>
        <time>2016-10-29T10:34:01Z</time>
      </trkpt>
      <trkpt lat="43.38418" lon="5.42876">
        <ele>560</ele>
        <time>2016-10-29T10:34:11Z</time>
      </trkpt>
      <trkpt lat="43.38424" lon="5.42876">
        <ele>560</ele>
        <time>2016-10-29T10:34:21Z</time>
      </trkpt>
      <trkpt lat="43.38429" lon="5.42873">
        <ele>561</ele>
        <time>2016-10-29T10:34:31Z</time>
      </trkpt>
      <trkpt lat="43.38435" lon="5.42874">
        <ele>563</ele>
        <time>2016-10-29T10:34:41Z</time>
      </trkpt>
      <trkpt lat="43.38443" lon="5.42876">
        <ele>564</ele>
        <time>2016-10-29T10:34:51Z</time>
      </trkpt>
      <trkpt lat="43.38449" lon="5.42878">
        <ele>565</ele>
        <time>2016-10-29T10:35:00Z</time>
      </trkpt>
      <trkpt lat="43.38457" lon="5.4288">
        <ele>566</ele>
        <time>2016-10-29T10:35:10Z</time>
      </trkpt>
      <trkpt lat="43.38463" lon="5.42881">
        <ele>569</ele>
        <time>2016-10-29T10:35:21Z</time>
      </trkpt>
      <trkpt lat="43.38467" lon="5.42887">
        <ele>569</ele>
        <time>2016-10-29T10:35:31Z</time>
      </trkpt>
      <trkpt lat="43.38469" lon="5.42887">
        <ele>571</ele>
        <time>2016-10-29T10:35:44Z</time>
      </trkpt>
      <trkpt lat="43.38467" lon="5.4289">
        <ele>576</ele>
        <time>2016-10-29T10:35:54Z</time>
      </trkpt>
      <trkpt lat="43.38468" lon="5.42889">
        <ele>578</ele>
        <time>2016-10-29T10:36:05Z</time>
      </trkpt>
      <trkpt lat="43.38473" lon="5.42895">
        <ele>578</ele>
        <time>2016-10-29T10:36:15Z</time>
      </trkpt>
      <trkpt lat="43.38478" lon="5.42905">
        <ele>578</ele>
        <time>2016-10-29T10:36:25Z</time>
      </trkpt>
      <trkpt lat="43.38488" lon="5.42912">
        <ele>578</ele>
        <time>2016-10-29T10:36:35Z</time>
      </trkpt>
      <trkpt lat="43.38498" lon="5.42914">
        <ele>578</ele>
        <time>2016-10-29T10:36:46Z</time>
      </trkpt>
      <trkpt lat="43.38501" lon="5.4292">
        <ele>578</ele>
        <time>2016-10-29T10:36:55Z</time>
      </trkpt>
      <trkpt lat="43.38502" lon="5.42935">
        <ele>577</ele>
        <time>2016-10-29T10:37:05Z</time>
      </trkpt>
      <trkpt lat="43.38504" lon="5.42948">
        <ele>576</ele>
        <time>2016-10-29T10:37:15Z</time>
      </trkpt>
      <trkpt lat="43.38503" lon="5.42964">
        <ele>576</ele>
        <time>2016-10-29T10:37:26Z</time>
      </trkpt>
      <trkpt lat="43.38504" lon="5.42976">
        <ele>576</ele>
        <time>2016-10-29T10:37:36Z</time>
      </trkpt>
      <trkpt lat="43.38505" lon="5.4299">
        <ele>576</ele>
        <time>2016-10-29T10:37:45Z</time>
      </trkpt>
      <trkpt lat="43.3851" lon="5.43005">
        <ele>576</ele>
        <time>2016-10-29T10:37:56Z</time>
      </trkpt>
      <trkpt lat="43.3851" lon="5.43016">
        <ele>576</ele>
        <time>2016-10-29T10:38:05Z</time>
      </trkpt>
      <trkpt lat="43.38512" lon="5.43027">
        <ele>577</ele>
        <time>2016-10-29T10:38:15Z</time>
      </trkpt>
      <trkpt lat="43.38519" lon="5.43036">
        <ele>578</ele>
        <time>2016-10-29T10:38:25Z</time>
      </trkpt>
      <trkpt lat="43.38524" lon="5.43048">
        <ele>579</ele>
        <time>2016-10-29T10:38:35Z</time>
      </trkpt>
      <trkpt lat="43.38527" lon="5.4306">
        <ele>581</ele>
        <time>2016-10-29T10:38:45Z</time>
      </trkpt>
      <trkpt lat="43.38533" lon="5.4307">
        <ele>582</ele>
        <time>2016-10-29T10:38:55Z</time>
      </trkpt>
      <trkpt lat="43.38539" lon="5.43077">
        <ele>582</ele>
        <time>2016-10-29T10:39:06Z</time>
      </trkpt>
      <trkpt lat="43.38544" lon="5.43084">
        <ele>582</ele>
        <time>2016-10-29T10:39:16Z</time>
      </trkpt>
      <trkpt lat="43.3855" lon="5.43091">
        <ele>581</ele>
        <time>2016-10-29T10:39:26Z</time>
      </trkpt>
      <trkpt lat="43.38555" lon="5.43102">
        <ele>579</ele>
        <time>2016-10-29T10:39:35Z</time>
      </trkpt>
      <trkpt lat="43.38562" lon="5.43113">
        <ele>578</ele>
        <time>2016-10-29T10:39:45Z</time>
      </trkpt>
      <trkpt lat="43.38571" lon="5.43122">
        <ele>577</ele>
        <time>2016-10-29T10:39:55Z</time>
      </trkpt>
      <trkpt lat="43.3858" lon="5.43135">
        <ele>575</ele>
        <time>2016-10-29T10:40:06Z</time>
      </trkpt>
      <trkpt lat="43.38588" lon="5.43145">
        <ele>574</ele>
        <time>2016-10-29T10:40:17Z</time>
      </trkpt>
      <trkpt lat="43.3859" lon="5.4315">
        <ele>573</ele>
        <time>2016-10-29T10:40:30Z</time>
      </trkpt>
      <trkpt lat="43.38594" lon="5.43156">
        <ele>573</ele>
        <time>2016-10-29T10:40:40Z</time>
      </trkpt>
      <trkpt lat="43.38599" lon="5.4317">
        <ele>573</ele>
        <time>2016-10-29T10:40:51Z</time>
      </trkpt>
      <trkpt lat="43.38603" lon="5.43184">
        <ele>573</ele>
        <time>2016-10-29T10:41:00Z</time>
      </trkpt>
      <trkpt lat="43.38607" lon="5.432">
        <ele>573</ele>
        <time>2016-10-29T10:41:11Z</time>
      </trkpt>
      <trkpt lat="43.3861" lon="5.43212">
        <ele>573</ele>
        <time>2016-10-29T10:41:20Z</time>
      </trkpt>
      <trkpt lat="43.38616" lon="5.43225">
        <ele>573</ele>
        <time>2016-10-29T10:41:31Z</time>
      </trkpt>
      <trkpt lat="43.38622" lon="5.43237">
        <ele>574</ele>
        <time>2016-10-29T10:41:41Z</time>
      </trkpt>
      <trkpt lat="43.38627" lon="5.43247">
        <ele>574</ele>
        <time>2016-10-29T10:41:51Z</time>
      </trkpt>
      <trkpt lat="43.38635" lon="5.43256">
        <ele>575</ele>
        <time>2016-10-29T10:42:01Z</time>
      </trkpt>
      <trkpt lat="43.38643" lon="5.43265">
        <ele>575</ele>
        <time>2016-10-29T10:42:11Z</time>
      </trkpt>
      <trkpt lat="43.38651" lon="5.43275">
        <ele>575</ele>
        <time>2016-10-29T10:42:21Z</time>
      </trkpt>
      <trkpt lat="43.38658" lon="5.43286">
        <ele>575</ele>
        <time>2016-10-29T10:42:30Z</time>
      </trkpt>
      <trkpt lat="43.38667" lon="5.43297">
        <ele>575</ele>
        <time>2016-10-29T10:42:41Z</time>
      </trkpt>
      <trkpt lat="43.38673" lon="5.43307">
        <ele>575</ele>
        <time>2016-10-29T10:42:50Z</time>
      </trkpt>
      <trkpt lat="43.38681" lon="5.43318">
        <ele>575</ele>
        <time>2016-10-29T10:43:00Z</time>
      </trkpt>
      <trkpt lat="43.38685" lon="5.43331">
        <ele>578</ele>
        <time>2016-10-29T10:43:10Z</time>
      </trkpt>
      <trkpt lat="43.38687" lon="5.43347">
        <ele>579</ele>
        <time>2016-10-29T10:43:21Z</time>
      </trkpt>
      <trkpt lat="43.38687" lon="5.4336">
        <ele>580</ele>
        <time>2016-10-29T10:43:30Z</time>
      </trkpt>
      <trkpt lat="43.38686" lon="5.43373">
        <ele>582</ele>
        <time>2016-10-29T10:43:40Z</time>
      </trkpt>
      <trkpt lat="43.38686" lon="5.43384">
        <ele>584</ele>
        <time>2016-10-29T10:43:50Z</time>
      </trkpt>
      <trkpt lat="43.38687" lon="5.43398">
        <ele>587</ele>
        <time>2016-10-29T10:44:01Z</time>
      </trkpt>
      <trkpt lat="43.38689" lon="5.43411">
        <ele>589</ele>
        <time>2016-10-29T10:44:11Z</time>
      </trkpt>
      <trkpt lat="43.38691" lon="5.43422">
        <ele>591</ele>
        <time>2016-10-29T10:44:21Z</time>
      </trkpt>
      <trkpt lat="43.38694" lon="5.43432">
        <ele>593</ele>
        <time>2016-10-29T10:44:30Z</time>
      </trkpt>
      <trkpt lat="43.38699" lon="5.43439">
        <ele>593</ele>
        <time>2016-10-29T10:44:40Z</time>
      </trkpt>
      <trkpt lat="43.38702" lon="5.43444">
        <ele>594</ele>
        <time>2016-10-29T10:44:49Z</time>
      </trkpt>
      <trkpt lat="43.38707" lon="5.43454">
        <ele>594</ele>
        <time>2016-10-29T10:44:59Z</time>
      </trkpt>
      <trkpt lat="43.3871" lon="5.43461">
        <ele>595</ele>
        <time>2016-10-29T10:45:09Z</time>
      </trkpt>
      <trkpt lat="43.3871" lon="5.4347">
        <ele>598</ele>
        <time>2016-10-29T10:45:19Z</time>
      </trkpt>
      <trkpt lat="43.38711" lon="5.43479">
        <ele>598</ele>
        <time>2016-10-29T10:45:29Z</time>
      </trkpt>
      <trkpt lat="43.38715" lon="5.43485">
        <ele>598</ele>
        <time>2016-10-29T10:45:38Z</time>
      </trkpt>
      <trkpt lat="43.38719" lon="5.43495">
        <ele>597</ele>
        <time>2016-10-29T10:45:48Z</time>
      </trkpt>
      <trkpt lat="43.38723" lon="5.43502">
        <ele>596</ele>
        <time>2016-10-29T10:45:57Z</time>
      </trkpt>
      <trkpt lat="43.38721" lon="5.43513">
        <ele>596</ele>
        <time>2016-10-29T10:46:06Z</time>
      </trkpt>
      <trkpt lat="43.38717" lon="5.43525">
        <ele>597</ele>
        <time>2016-10-29T10:46:15Z</time>
      </trkpt>
      <trkpt lat="43.38715" lon="5.4354">
        <ele>599</ele>
        <time>2016-10-29T10:46:26Z</time>
      </trkpt>
      <trkpt lat="43.38716" lon="5.43553">
        <ele>600</ele>
        <time>2016-10-29T10:46:36Z</time>
      </trkpt>
      <trkpt lat="43.38721" lon="5.43561">
        <ele>600</ele>
        <time>2016-10-29T10:46:46Z</time>
      </trkpt>
      <trkpt lat="43.38726" lon="5.43568">
        <ele>600</ele>
        <time>2016-10-29T10:46:56Z</time>
      </trkpt>
      <trkpt lat="43.38729" lon="5.43578">
        <ele>600</ele>
        <time>2016-10-29T10:47:05Z</time>
      </trkpt>
      <trkpt lat="43.38734" lon="5.43586">
        <ele>600</ele>
        <time>2016-10-29T10:47:14Z</time>
      </trkpt>
      <trkpt lat="43.38742" lon="5.43587">
        <ele>600</ele>
        <time>2016-10-29T10:47:24Z</time>
      </trkpt>
      <trkpt lat="43.38749" lon="5.43589">
        <ele>603</ele>
        <time>2016-10-29T10:47:34Z</time>
      </trkpt>
      <trkpt lat="43.38753" lon="5.4359">
        <ele>603</ele>
        <time>2016-10-29T10:47:43Z</time>
      </trkpt>
      <trkpt lat="43.38761" lon="5.43589">
        <ele>604</ele>
        <time>2016-10-29T10:47:53Z</time>
      </trkpt>
      <trkpt lat="43.38763" lon="5.4359">
        <ele>605</ele>
        <time>2016-10-29T10:48:05Z</time>
      </trkpt>
      <trkpt lat="43.38766" lon="5.43594">
        <ele>605</ele>
        <time>2016-10-29T10:48:15Z</time>
      </trkpt>
      <trkpt lat="43.38774" lon="5.436">
        <ele>606</ele>
        <time>2016-10-29T10:48:25Z</time>
      </trkpt>
      <trkpt lat="43.38782" lon="5.43607">
        <ele>607</ele>
        <time>2016-10-29T10:48:35Z</time>
      </trkpt>
      <trkpt lat="43.38789" lon="5.43614">
        <ele>607</ele>
        <time>2016-10-29T10:48:45Z</time>
      </trkpt>
      <trkpt lat="43.38797" lon="5.43619">
        <ele>607</ele>
        <time>2016-10-29T10:48:55Z</time>
      </trkpt>
      <trkpt lat="43.38803" lon="5.43623">
        <ele>608</ele>
        <time>2016-10-29T10:49:05Z</time>
      </trkpt>
      <trkpt lat="43.38811" lon="5.43633">
        <ele>608</ele>
        <time>2016-10-29T10:49:16Z</time>
      </trkpt>
      <trkpt lat="43.38814" lon="5.43639">
        <ele>610</ele>
        <time>2016-10-29T10:49:26Z</time>
      </trkpt>
      <trkpt lat="43.38817" lon="5.43646">
        <ele>611</ele>
        <time>2016-10-29T10:49:35Z</time>
      </trkpt>
      <trkpt lat="43.3882" lon="5.43652">
        <ele>613</ele>
        <time>2016-10-29T10:49:47Z</time>
      </trkpt>
      <trkpt lat="43.38819" lon="5.43658">
        <ele>615</ele>
        <time>2016-10-29T10:49:59Z</time>
      </trkpt>
      <trkpt lat="43.3882" lon="5.43664">
        <ele>615</ele>
        <time>2016-10-29T10:50:09Z</time>
      </trkpt>
      <trkpt lat="43.38824" lon="5.43664">
        <ele>615</ele>
        <time>2016-10-29T10:50:18Z</time>
      </trkpt>
      <trkpt lat="43.38831" lon="5.43669">
        <ele>617</ele>
        <time>2016-10-29T10:50:28Z</time>
      </trkpt>
      <trkpt lat="43.38835" lon="5.43677">
        <ele>618</ele>
        <time>2016-10-29T10:50:38Z</time>
      </trkpt>
      <trkpt lat="43.38839" lon="5.43687">
        <ele>620</ele>
        <time>2016-10-29T10:50:48Z</time>
      </trkpt>
      <trkpt lat="43.38846" lon="5.43695">
        <ele>622</ele>
        <time>2016-10-29T10:50:58Z</time>
      </trkpt>
      <trkpt lat="43.38852" lon="5.43703">
        <ele>623</ele>
        <time>2016-10-29T10:51:07Z</time>
      </trkpt>
      <trkpt lat="43.3886" lon="5.43711">
        <ele>624</ele>
        <time>2016-10-29T10:51:17Z</time>
      </trkpt>
      <trkpt lat="43.38866" lon="5.43719">
        <ele>625</ele>
        <time>2016-10-29T10:51:27Z</time>
      </trkpt>
      <trkpt lat="43.38874" lon="5.43726">
        <ele>627</ele>
        <time>2016-10-29T10:51:37Z</time>
      </trkpt>
      <trkpt lat="43.38882" lon="5.43732">
        <ele>627</ele>
        <time>2016-10-29T10:51:47Z</time>
      </trkpt>
      <trkpt lat="43.3889" lon="5.43738">
        <ele>628</ele>
        <time>2016-10-29T10:51:57Z</time>
      </trkpt>
      <trkpt lat="43.38897" lon="5.43745">
        <ele>629</ele>
        <time>2016-10-29T10:52:07Z</time>
      </trkpt>
      <trkpt lat="43.38904" lon="5.43748">
        <ele>630</ele>
        <time>2016-10-29T10:52:18Z</time>
      </trkpt>
      <trkpt lat="43.38906" lon="5.4375">
        <ele>630</ele>
        <time>2016-10-29T10:52:36Z</time>
      </trkpt>
      <trkpt lat="43.38907" lon="5.43751">
        <ele>630</ele>
        <time>2016-10-29T10:52:49Z</time>
      </trkpt>
      <trkpt lat="43.38909" lon="5.43753">
        <ele>630</ele>
        <time>2016-10-29T10:53:02Z</time>
      </trkpt>
      <trkpt lat="43.38915" lon="5.43752">
        <ele>630</ele>
        <time>2016-10-29T10:53:11Z</time>
      </trkpt>
      <trkpt lat="43.38919" lon="5.43749">
        <ele>629</ele>
        <time>2016-10-29T10:53:20Z</time>
      </trkpt>
      <trkpt lat="43.38927" lon="5.43751">
        <ele>628</ele>
        <time>2016-10-29T10:53:31Z</time>
      </trkpt>
      <trkpt lat="43.38935" lon="5.43753">
        <ele>627</ele>
        <time>2016-10-29T10:53:41Z</time>
      </trkpt>
      <trkpt lat="43.38943" lon="5.43754">
        <ele>627</ele>
        <time>2016-10-29T10:53:51Z</time>
      </trkpt>
      <trkpt lat="43.38947" lon="5.4376">
        <ele>627</ele>
        <time>2016-10-29T10:54:00Z</time>
      </trkpt>
      <trkpt lat="43.38954" lon="5.43765">
        <ele>627</ele>
        <time>2016-10-29T10:54:10Z</time>
      </trkpt>
      <trkpt lat="43.38958" lon="5.43766">
        <ele>627</ele>
        <time>2016-10-29T10:54:19Z</time>
      </trkpt>
      <trkpt lat="43.3896" lon="5.43769">
        <ele>627</ele>
        <time>2016-10-29T10:54:30Z</time>
      </trkpt>
      <trkpt lat="43.38962" lon="5.43774">
        <ele>629</ele>
        <time>2016-10-29T10:54:41Z</time>
      </trkpt>
      <trkpt lat="43.38967" lon="5.43779">
        <ele>630</ele>
        <time>2016-10-29T10:54:51Z</time>
      </trkpt>
      <trkpt lat="43.38974" lon="5.43784">
        <ele>632</ele>
        <time>2016-10-29T10:55:01Z</time>
      </trkpt>
      <trkpt lat="43.3898" lon="5.43791">
        <ele>633</ele>
        <time>2016-10-29T10:55:11Z</time>
      </trkpt>
      <trkpt lat="43.38988" lon="5.43796">
        <ele>635</ele>
        <time>2016-10-29T10:55:21Z</time>
      </trkpt>
      <trkpt lat="43.38994" lon="5.43799">
        <ele>636</ele>
        <time>2016-10-29T10:55:30Z</time>
      </trkpt>
      <trkpt lat="43.39002" lon="5.43802">
        <ele>637</ele>
        <time>2016-10-29T10:55:40Z</time>
      </trkpt>
      <trkpt lat="43.3901" lon="5.43802">
        <ele>638</ele>
        <time>2016-10-29T10:55:50Z</time>
      </trkpt>
      <trkpt lat="43.39018" lon="5.43805">
        <ele>638</ele>
        <time>2016-10-29T10:56:00Z</time>
      </trkpt>
      <trkpt lat="43.39026" lon="5.43813">
        <ele>638</ele>
        <time>2016-10-29T10:56:10Z</time>
      </trkpt>
      <trkpt lat="43.39031" lon="5.43814">
        <ele>638</ele>
        <time>2016-10-29T10:56:21Z</time>
      </trkpt>
      <trkpt lat="43.3904" lon="5.43812">
        <ele>639</ele>
        <time>2016-10-29T10:56:30Z</time>
      </trkpt>
      <trkpt lat="43.39047" lon="5.43804">
        <ele>641</ele>
        <time>2016-10-29T10:56:40Z</time>
      </trkpt>
      <trkpt lat="43.39051" lon="5.43805">
        <ele>643</ele>
        <time>2016-10-29T10:56:51Z</time>
      </trkpt>
      <trkpt lat="43.39056" lon="5.43811">
        <ele>645</ele>
        <time>2016-10-29T10:57:01Z</time>
      </trkpt>
      <trkpt lat="43.3906" lon="5.4382">
        <ele>646</ele>
        <time>2016-10-29T10:57:11Z</time>
      </trkpt>
      <trkpt lat="43.39067" lon="5.43825">
        <ele>647</ele>
        <time>2016-10-29T10:57:21Z</time>
      </trkpt>
      <trkpt lat="43.39075" lon="5.43829">
        <ele>648</ele>
        <time>2016-10-29T10:57:31Z</time>
      </trkpt>
      <trkpt lat="43.39083" lon="5.43832">
        <ele>649</ele>
        <time>2016-10-29T10:57:41Z</time>
      </trkpt>
      <trkpt lat="43.39089" lon="5.43837">
        <ele>650</ele>
        <time>2016-10-29T10:57:51Z</time>
      </trkpt>
      <trkpt lat="43.39097" lon="5.43842">
        <ele>650</ele>
        <time>2016-10-29T10:58:01Z</time>
      </trkpt>
      <trkpt lat="43.39106" lon="5.43848">
        <ele>653</ele>
        <time>2016-10-29T10:58:11Z</time>
      </trkpt>
      <trkpt lat="43.39111" lon="5.43854">
        <ele>654</ele>
        <time>2016-10-29T10:58:21Z</time>
      </trkpt>
      <trkpt lat="43.39117" lon="5.4386">
        <ele>657</ele>
        <time>2016-10-29T10:58:30Z</time>
      </trkpt>
      <trkpt lat="43.39118" lon="5.43868">
        <ele>657</ele>
        <time>2016-10-29T10:58:39Z</time>
      </trkpt>
      <trkpt lat="43.39117" lon="5.43871">
        <ele>657</ele>
        <time>2016-10-29T10:58:49Z</time>
      </trkpt>
      <trkpt lat="43.39117" lon="5.43874">
        <ele>655</ele>
        <time>2016-10-29T10:59:01Z</time>
      </trkpt>
      <trkpt lat="43.39118" lon="5.43877">
        <ele>654</ele>
        <time>2016-10-29T10:59:15Z</time>
      </trkpt>
      <trkpt lat="43.39122" lon="5.43878">
        <ele>654</ele>
        <time>2016-10-29T10:59:24Z</time>
      </trkpt>
      <trkpt lat="43.39127" lon="5.43877">
        <ele>657</ele>
        <time>2016-10-29T10:59:38Z</time>
      </trkpt>
      <trkpt lat="43.39119" lon="5.43873">
        <ele>660</ele>
        <time>2016-10-29T10:59:50Z</time>
      </trkpt>
      <trkpt lat="43.39116" lon="5.43872">
        <ele>659</ele>
        <time>2016-10-29T11:00:07Z</time>
      </trkpt>
      <trkpt lat="43.39117" lon="5.4387">
        <ele>659</ele>
        <time>2016-10-29T11:00:18Z</time>
      </trkpt>
      <trkpt lat="43.39117" lon="5.43869">
        <ele>659</ele>
        <time>2016-10-29T11:00:45Z</time>
      </trkpt>
      <trkpt lat="43.39117" lon="5.43863">
        <ele>659</ele>
        <time>2016-10-29T11:00:55Z</time>
      </trkpt>
      <trkpt lat="43.39115" lon="5.43855">
        <ele>659</ele>
        <time>2016-10-29T11:01:05Z</time>
      </trkpt>
      <trkpt lat="43.39112" lon="5.43846">
        <ele>659</ele>
        <time>2016-10-29T11:01:15Z</time>
      </trkpt>
      <trkpt lat="43.39111" lon="5.43833">
        <ele>657</ele>
        <time>2016-10-29T11:01:25Z</time>
      </trkpt>
      <trkpt lat="43.3911" lon="5.43821">
        <ele>655</ele>
        <time>2016-10-29T11:01:35Z</time>
      </trkpt>
      <trkpt lat="43.39119" lon="5.43813">
        <ele>655</ele>
        <time>2016-10-29T11:01:45Z</time>
      </trkpt>
      <trkpt lat="43.39129" lon="5.43808">
        <ele>653</ele>
        <time>2016-10-29T11:01:55Z</time>
      </trkpt>
      <trkpt lat="43.39138" lon="5.43804">
        <ele>651</ele>
        <time>2016-10-29T11:02:04Z</time>
      </trkpt>
      <trkpt lat="43.39148" lon="5.43798">
        <ele>649</ele>
        <time>2016-10-29T11:02:14Z</time>
      </trkpt>
      <trkpt lat="43.39157" lon="5.43791">
        <ele>644</ele>
        <time>2016-10-29T11:02:24Z</time>
      </trkpt>
      <trkpt lat="43.39164" lon="5.4378">
        <ele>642</ele>
        <time>2016-10-29T11:02:34Z</time>
      </trkpt>
      <trkpt lat="43.39172" lon="5.43769">
        <ele>642</ele>
        <time>2016-10-29T11:02:44Z</time>
      </trkpt>
      <trkpt lat="43.39177" lon="5.43759">
        <ele>642</ele>
        <time>2016-10-29T11:02:54Z</time>
      </trkpt>
      <trkpt lat="43.39181" lon="5.43748">
        <ele>641</ele>
        <time>2016-10-29T11:03:04Z</time>
      </trkpt>
      <trkpt lat="43.39184" lon="5.43738">
        <ele>641</ele>
        <time>2016-10-29T11:03:13Z</time>
      </trkpt>
      <trkpt lat="43.39184" lon="5.4373">
        <ele>641</ele>
        <time>2016-10-29T11:03:22Z</time>
      </trkpt>
      <trkpt lat="43.39188" lon="5.43722">
        <ele>640</ele>
        <time>2016-10-29T11:03:32Z</time>
      </trkpt>
      <trkpt lat="43.39191" lon="5.43721">
        <ele>637</ele>
        <time>2016-10-29T11:03:43Z</time>
      </trkpt>
      <trkpt lat="43.39193" lon="5.43723">
        <ele>633</ele>
        <time>2016-10-29T11:03:58Z</time>
      </trkpt>
      <trkpt lat="43.39194" lon="5.43722">
        <ele>632</ele>
        <time>2016-10-29T11:04:14Z</time>
      </trkpt>
      <trkpt lat="43.39194" lon="5.43723">
        <ele>632</ele>
        <time>2016-10-29T11:04:28Z</time>
      </trkpt>
      <trkpt lat="43.39193" lon="5.43723">
        <ele>632</ele>
        <time>2016-10-29T11:04:44Z</time>
      </trkpt>
      <trkpt lat="43.39193" lon="5.43725">
        <ele>632</ele>
        <time>2016-10-29T11:05:04Z</time>
      </trkpt>
      <trkpt lat="43.39201" lon="5.43728">
        <ele>630</ele>
        <time>2016-10-29T11:05:14Z</time>
      </trkpt>
      <trkpt lat="43.39207" lon="5.4373">
        <ele>629</ele>
        <time>2016-10-29T11:05:24Z</time>
      </trkpt>
      <trkpt lat="43.39215" lon="5.43729">
        <ele>627</ele>
        <time>2016-10-29T11:05:34Z</time>
      </trkpt>
      <trkpt lat="43.39222" lon="5.43734">
        <ele>626</ele>
        <time>2016-10-29T11:05:43Z</time>
      </trkpt>
      <trkpt lat="43.39227" lon="5.43738">
        <ele>623</ele>
        <time>2016-10-29T11:05:52Z</time>
      </trkpt>
      <trkpt lat="43.39233" lon="5.43737">
        <ele>620</ele>
        <time>2016-10-29T11:06:01Z</time>
      </trkpt>
      <trkpt lat="43.39239" lon="5.43743">
        <ele>617</ele>
        <time>2016-10-29T11:06:10Z</time>
      </trkpt>
      <trkpt lat="43.39246" lon="5.43745">
        <ele>615</ele>
        <time>2016-10-29T11:06:20Z</time>
      </trkpt>
      <trkpt lat="43.39252" lon="5.43747">
        <ele>613</ele>
        <time>2016-10-29T11:06:29Z</time>
      </trkpt>
      <trkpt lat="43.39255" lon="5.43745">
        <ele>610</ele>
        <time>2016-10-29T11:06:38Z</time>
      </trkpt>
      <trkpt lat="43.39262" lon="5.43744">
        <ele>608</ele>
        <time>2016-10-29T11:06:47Z</time>
      </trkpt>
      <trkpt lat="43.39267" lon="5.4374">
        <ele>606</ele>
        <time>2016-10-29T11:06:57Z</time>
      </trkpt>
      <trkpt lat="43.39274" lon="5.43751">
        <ele>602</ele>
        <time>2016-10-29T11:07:07Z</time>
      </trkpt>
      <trkpt lat="43.39281" lon="5.43755">
        <ele>602</ele>
        <time>2016-10-29T11:07:17Z</time>
      </trkpt>
      <trkpt lat="43.39286" lon="5.43751">
        <ele>602</ele>
        <time>2016-10-29T11:07:26Z</time>
      </trkpt>
      <trkpt lat="43.3929" lon="5.43751">
        <ele>601</ele>
        <time>2016-10-29T11:07:36Z</time>
      </trkpt>
      <trkpt lat="43.39298" lon="5.43753">
        <ele>599</ele>
        <time>2016-10-29T11:07:46Z</time>
      </trkpt>
      <trkpt lat="43.39306" lon="5.43755">
        <ele>596</ele>
        <time>2016-10-29T11:07:57Z</time>
      </trkpt>
      <trkpt lat="43.39315" lon="5.43763">
        <ele>593</ele>
        <time>2016-10-29T11:08:07Z</time>
      </trkpt>
      <trkpt lat="43.39322" lon="5.43769">
        <ele>591</ele>
        <time>2016-10-29T11:08:17Z</time>
      </trkpt>
      <trkpt lat="43.39331" lon="5.4377">
        <ele>590</ele>
        <time>2016-10-29T11:08:26Z</time>
      </trkpt>
      <trkpt lat="43.39341" lon="5.4377">
        <ele>587</ele>
        <time>2016-10-29T11:08:35Z</time>
      </trkpt>
      <trkpt lat="43.39352" lon="5.4377">
        <ele>586</ele>
        <time>2016-10-29T11:08:45Z</time>
      </trkpt>
      <trkpt lat="43.39361" lon="5.43772">
        <ele>586</ele>
        <time>2016-10-29T11:08:54Z</time>
      </trkpt>
      <trkpt lat="43.39371" lon="5.43775">
        <ele>586</ele>
        <time>2016-10-29T11:09:04Z</time>
      </trkpt>
      <trkpt lat="43.3938" lon="5.43778">
        <ele>586</ele>
        <time>2016-10-29T11:09:14Z</time>
      </trkpt>
      <trkpt lat="43.39388" lon="5.43778">
        <ele>586</ele>
        <time>2016-10-29T11:09:24Z</time>
      </trkpt>
      <trkpt lat="43.39395" lon="5.43774">
        <ele>586</ele>
        <time>2016-10-29T11:09:34Z</time>
      </trkpt>
      <trkpt lat="43.394" lon="5.43776">
        <ele>586</ele>
        <time>2016-10-29T11:09:43Z</time>
      </trkpt>
      <trkpt lat="43.39405" lon="5.43782">
        <ele>586</ele>
        <time>2016-10-29T11:09:52Z</time>
      </trkpt>
      <trkpt lat="43.3941" lon="5.43784">
        <ele>588</ele>
        <time>2016-10-29T11:10:02Z</time>
      </trkpt>
      <trkpt lat="43.39417" lon="5.43783">
        <ele>590</ele>
        <time>2016-10-29T11:10:13Z</time>
      </trkpt>
      <trkpt lat="43.39423" lon="5.43782">
        <ele>592</ele>
        <time>2016-10-29T11:10:23Z</time>
      </trkpt>
      <trkpt lat="43.39429" lon="5.43784">
        <ele>594</ele>
        <time>2016-10-29T11:10:33Z</time>
      </trkpt>
      <trkpt lat="43.39434" lon="5.43786">
        <ele>596</ele>
        <time>2016-10-29T11:10:42Z</time>
      </trkpt>
      <trkpt lat="43.3944" lon="5.43788">
        <ele>598</ele>
        <time>2016-10-29T11:10:53Z</time>
      </trkpt>
      <trkpt lat="43.39446" lon="5.43793">
        <ele>600</ele>
        <time>2016-10-29T11:11:04Z</time>
      </trkpt>
      <trkpt lat="43.39452" lon="5.43795">
        <ele>602</ele>
        <time>2016-10-29T11:11:13Z</time>
      </trkpt>
      <trkpt lat="43.39458" lon="5.43799">
        <ele>603</ele>
        <time>2016-10-29T11:11:23Z</time>
      </trkpt>
      <trkpt lat="43.39463" lon="5.43803">
        <ele>604</ele>
        <time>2016-10-29T11:11:32Z</time>
      </trkpt>
      <trkpt lat="43.39469" lon="5.43806">
        <ele>606</ele>
        <time>2016-10-29T11:11:42Z</time>
      </trkpt>
      <trkpt lat="43.39474" lon="5.43808">
        <ele>607</ele>
        <time>2016-10-29T11:11:51Z</time>
      </trkpt>
      <trkpt lat="43.39481" lon="5.43811">
        <ele>609</ele>
        <time>2016-10-29T11:12:01Z</time>
      </trkpt>
      <trkpt lat="43.39486" lon="5.43813">
        <ele>610</ele>
        <time>2016-10-29T11:12:10Z</time>
      </trkpt>
      <trkpt lat="43.39491" lon="5.43815">
        <ele>612</ele>
        <time>2016-10-29T11:12:19Z</time>
      </trkpt>
      <trkpt lat="43.39497" lon="5.4382">
        <ele>613</ele>
        <time>2016-10-29T11:12:29Z</time>
      </trkpt>
      <trkpt lat="43.39502" lon="5.43826">
        <ele>615</ele>
        <time>2016-10-29T11:12:38Z</time>
      </trkpt>
      <trkpt lat="43.39509" lon="5.4383">
        <ele>617</ele>
        <time>2016-10-29T11:12:48Z</time>
      </trkpt>
      <trkpt lat="43.39516" lon="5.43835">
        <ele>618</ele>
        <time>2016-10-29T11:12:59Z</time>
      </trkpt>
      <trkpt lat="43.39522" lon="5.43841">
        <ele>619</ele>
        <time>2016-10-29T11:13:09Z</time>
      </trkpt>
      <trkpt lat="43.39529" lon="5.4385">
        <ele>619</ele>
        <time>2016-10-29T11:13:19Z</time>
      </trkpt>
      <trkpt lat="43.39537" lon="5.4386">
        <ele>619</ele>
        <time>2016-10-29T11:13:29Z</time>
      </trkpt>
      <trkpt lat="43.39545" lon="5.43869">
        <ele>619</ele>
        <time>2016-10-29T11:13:39Z</time>
      </trkpt>
      <trkpt lat="43.39553" lon="5.43874">
        <ele>621</ele>
        <time>2016-10-29T11:13:49Z</time>
      </trkpt>
      <trkpt lat="43.3956" lon="5.43886">
        <ele>621</ele>
        <time>2016-10-29T11:13:59Z</time>
      </trkpt>
      <trkpt lat="43.39566" lon="5.43897">
        <ele>621</ele>
        <time>2016-10-29T11:14:08Z</time>
      </trkpt>
      <trkpt lat="43.39573" lon="5.43906">
        <ele>622</ele>
        <time>2016-10-29T11:14:18Z</time>
      </trkpt>
      <trkpt lat="43.3958" lon="5.43912">
        <ele>623</ele>
        <time>2016-10-29T11:14:28Z</time>
      </trkpt>
      <trkpt lat="43.39587" lon="5.43921">
        <ele>626</ele>
        <time>2016-10-29T11:14:38Z</time>
      </trkpt>
      <trkpt lat="43.39592" lon="5.43931">
        <ele>626</ele>
        <time>2016-10-29T11:14:48Z</time>
      </trkpt>
      <trkpt lat="43.39598" lon="5.43943">
        <ele>626</ele>
        <time>2016-10-29T11:14:58Z</time>
      </trkpt>
      <trkpt lat="43.39601" lon="5.43955">
        <ele>624</ele>
        <time>2016-10-29T11:15:08Z</time>
      </trkpt>
      <trkpt lat="43.39602" lon="5.43965">
        <ele>621</ele>
        <time>2016-10-29T11:15:17Z</time>
      </trkpt>
      <trkpt lat="43.39605" lon="5.43976">
        <ele>619</ele>
        <time>2016-10-29T11:15:27Z</time>
      </trkpt>
      <trkpt lat="43.39604" lon="5.43989">
        <ele>617</ele>
        <time>2016-10-29T11:15:36Z</time>
      </trkpt>
      <trkpt lat="43.39603" lon="5.44001">
        <ele>616</ele>
        <time>2016-10-29T11:15:46Z</time>
      </trkpt>
      <trkpt lat="43.39605" lon="5.44011">
        <ele>613</ele>
        <time>2016-10-29T11:15:56Z</time>
      </trkpt>
      <trkpt lat="43.39606" lon="5.4402">
        <ele>610</ele>
        <time>2016-10-29T11:16:05Z</time>
      </trkpt>
      <trkpt lat="43.39607" lon="5.44031">
        <ele>608</ele>
        <time>2016-10-29T11:16:15Z</time>
      </trkpt>
      <trkpt lat="43.39612" lon="5.44036">
        <ele>607</ele>
        <time>2016-10-29T11:16:24Z</time>
      </trkpt>
      <trkpt lat="43.39615" lon="5.44043">
        <ele>605</ele>
        <time>2016-10-29T11:16:34Z</time>
      </trkpt>
      <trkpt lat="43.39615" lon="5.44054">
        <ele>603</ele>
        <time>2016-10-29T11:16:44Z</time>
      </trkpt>
      <trkpt lat="43.39614" lon="5.44066">
        <ele>601</ele>
        <time>2016-10-29T11:16:54Z</time>
      </trkpt>
      <trkpt lat="43.39617" lon="5.44076">
        <ele>599</ele>
        <time>2016-10-29T11:17:04Z</time>
      </trkpt>
      <trkpt lat="43.39623" lon="5.44085">
        <ele>597</ele>
        <time>2016-10-29T11:17:14Z</time>
      </trkpt>
      <trkpt lat="43.39624" lon="5.44096">
        <ele>596</ele>
        <time>2016-10-29T11:17:23Z</time>
      </trkpt>
      <trkpt lat="43.39626" lon="5.44108">
        <ele>593</ele>
        <time>2016-10-29T11:17:40Z</time>
      </trkpt>
      <trkpt lat="43.39629" lon="5.44112">
        <ele>592</ele>
        <time>2016-10-29T11:17:50Z</time>
      </trkpt>
      <trkpt lat="43.39632" lon="5.44113">
        <ele>590</ele>
        <time>2016-10-29T11:18:02Z</time>
      </trkpt>
      <trkpt lat="43.39632" lon="5.44115">
        <ele>590</ele>
        <time>2016-10-29T11:18:12Z</time>
      </trkpt>
      <trkpt lat="43.39631" lon="5.44116">
        <ele>590</ele>
        <time>2016-10-29T11:18:23Z</time>
      </trkpt>
      <trkpt lat="43.39631" lon="5.44118">
        <ele>590</ele>
        <time>2016-10-29T11:18:45Z</time>
      </trkpt>
      <trkpt lat="43.39631" lon="5.44119">
        <ele>590</ele>
        <time>2016-10-29T11:18:56Z</time>
      </trkpt>
      <trkpt lat="43.39631" lon="5.44118">
        <ele>590</ele>
        <time>2016-10-29T11:19:21Z</time>
      </trkpt>
      <trkpt lat="43.39629" lon="5.44115">
        <ele>590</ele>
        <time>2016-10-29T11:19:33Z</time>
      </trkpt>
      <trkpt lat="43.39627" lon="5.44111">
        <ele>590</ele>
        <time>2016-10-29T11:20:12Z</time>
      </trkpt>
      <trkpt lat="43.39625" lon="5.44111">
        <ele>590</ele>
        <time>2016-10-29T11:20:29Z</time>
      </trkpt>
      <trkpt lat="43.39629" lon="5.44116">
        <ele>587</ele>
        <time>2016-10-29T11:20:43Z</time>
      </trkpt>
      <trkpt lat="43.3963" lon="5.44117">
        <ele>587</ele>
        <time>2016-10-29T11:20:52Z</time>
      </trkpt>
      <trkpt lat="43.39631" lon="5.44114">
        <ele>587</ele>
        <time>2016-10-29T11:21:04Z</time>
      </trkpt>
      <trkpt lat="43.3963" lon="5.44113">
        <ele>587</ele>
        <time>2016-10-29T11:21:15Z</time>
      </trkpt>
      <trkpt lat="43.39628" lon="5.44114">
        <ele>589</ele>
        <time>2016-10-29T11:21:31Z</time>
      </trkpt>
      <trkpt lat="43.39627" lon="5.44114">
        <ele>590</ele>
        <time>2016-10-29T11:21:45Z</time>
      </trkpt>
      <trkpt lat="43.39625" lon="5.44115">
        <ele>590</ele>
        <time>2016-10-29T11:21:55Z</time>
      </trkpt>
      <trkpt lat="43.39624" lon="5.44118">
        <ele>590</ele>
        <time>2016-10-29T11:22:09Z</time>
      </trkpt>
      <trkpt lat="43.39626" lon="5.44125">
        <ele>590</ele>
        <time>2016-10-29T11:22:19Z</time>
      </trkpt>
      <trkpt lat="43.39629" lon="5.44132">
        <ele>590</ele>
        <time>2016-10-29T11:22:28Z</time>
      </trkpt>
      <trkpt lat="43.39633" lon="5.44143">
        <ele>590</ele>
        <time>2016-10-29T11:22:38Z</time>
      </trkpt>
      <trkpt lat="43.39636" lon="5.44156">
        <ele>588</ele>
        <time>2016-10-29T11:22:48Z</time>
      </trkpt>
      <trkpt lat="43.39635" lon="5.4417">
        <ele>587</ele>
        <time>2016-10-29T11:22:58Z</time>
      </trkpt>
      <trkpt lat="43.39636" lon="5.44184">
        <ele>586</ele>
        <time>2016-10-29T11:23:08Z</time>
      </trkpt>
      <trkpt lat="43.39639" lon="5.44198">
        <ele>586</ele>
        <time>2016-10-29T11:23:18Z</time>
      </trkpt>
      <trkpt lat="43.39643" lon="5.44213">
        <ele>586</ele>
        <time>2016-10-29T11:23:29Z</time>
      </trkpt>
      <trkpt lat="43.39646" lon="5.44223">
        <ele>586</ele>
        <time>2016-10-29T11:23:38Z</time>
      </trkpt>
      <trkpt lat="43.39645" lon="5.44235">
        <ele>586</ele>
        <time>2016-10-29T11:23:47Z</time>
      </trkpt>
      <trkpt lat="43.39647" lon="5.4425">
        <ele>586</ele>
        <time>2016-10-29T11:23:57Z</time>
      </trkpt>
      <trkpt lat="43.39649" lon="5.44263">
        <ele>586</ele>
        <time>2016-10-29T11:24:07Z</time>
      </trkpt>
      <trkpt lat="43.39653" lon="5.44275">
        <ele>586</ele>
        <time>2016-10-29T11:24:17Z</time>
      </trkpt>
      <trkpt lat="43.39656" lon="5.44284">
        <ele>586</ele>
        <time>2016-10-29T11:24:27Z</time>
      </trkpt>
      <trkpt lat="43.39656" lon="5.44295">
        <ele>586</ele>
        <time>2016-10-29T11:24:36Z</time>
      </trkpt>
      <trkpt lat="43.39656" lon="5.44309">
        <ele>586</ele>
        <time>2016-10-29T11:24:47Z</time>
      </trkpt>
      <trkpt lat="43.39658" lon="5.4432">
        <ele>586</ele>
        <time>2016-10-29T11:24:57Z</time>
      </trkpt>
      <trkpt lat="43.39661" lon="5.44323">
        <ele>586</ele>
        <time>2016-10-29T11:25:06Z</time>
      </trkpt>
      <trkpt lat="43.39668" lon="5.44332">
        <ele>586</ele>
        <time>2016-10-29T11:25:16Z</time>
      </trkpt>
      <trkpt lat="43.39671" lon="5.44345">
        <ele>586</ele>
        <time>2016-10-29T11:25:25Z</time>
      </trkpt>
      <trkpt lat="43.39675" lon="5.44358">
        <ele>586</ele>
        <time>2016-10-29T11:25:34Z</time>
      </trkpt>
      <trkpt lat="43.39675" lon="5.4437">
        <ele>586</ele>
        <time>2016-10-29T11:25:43Z</time>
      </trkpt>
      <trkpt lat="43.39678" lon="5.44382">
        <ele>586</ele>
        <time>2016-10-29T11:25:53Z</time>
      </trkpt>
      <trkpt lat="43.39679" lon="5.44393">
        <ele>586</ele>
        <time>2016-10-29T11:26:03Z</time>
      </trkpt>
      <trkpt lat="43.3968" lon="5.44404">
        <ele>587</ele>
        <time>2016-10-29T11:26:13Z</time>
      </trkpt>
      <trkpt lat="43.39681" lon="5.44411">
        <ele>588</ele>
        <time>2016-10-29T11:26:23Z</time>
      </trkpt>
      <trkpt lat="43.39684" lon="5.44423">
        <ele>589</ele>
        <time>2016-10-29T11:26:33Z</time>
      </trkpt>
      <trkpt lat="43.39688" lon="5.44436">
        <ele>590</ele>
        <time>2016-10-29T11:26:43Z</time>
      </trkpt>
      <trkpt lat="43.39691" lon="5.44448">
        <ele>591</ele>
        <time>2016-10-29T11:26:53Z</time>
      </trkpt>
      <trkpt lat="43.39694" lon="5.44461">
        <ele>593</ele>
        <time>2016-10-29T11:27:04Z</time>
      </trkpt>
      <trkpt lat="43.39698" lon="5.44472">
        <ele>594</ele>
        <time>2016-10-29T11:27:13Z</time>
      </trkpt>
      <trkpt lat="43.39702" lon="5.44486">
        <ele>595</ele>
        <time>2016-10-29T11:27:24Z</time>
      </trkpt>
      <trkpt lat="43.39703" lon="5.44496">
        <ele>596</ele>
        <time>2016-10-29T11:27:34Z</time>
      </trkpt>
      <trkpt lat="43.39707" lon="5.44506">
        <ele>596</ele>
        <time>2016-10-29T11:27:43Z</time>
      </trkpt>
      <trkpt lat="43.39712" lon="5.44517">
        <ele>596</ele>
        <time>2016-10-29T11:27:53Z</time>
      </trkpt>
      <trkpt lat="43.39717" lon="5.44526">
        <ele>596</ele>
        <time>2016-10-29T11:28:02Z</time>
      </trkpt>
      <trkpt lat="43.39725" lon="5.44532">
        <ele>596</ele>
        <time>2016-10-29T11:28:12Z</time>
      </trkpt>
      <trkpt lat="43.39734" lon="5.4454">
        <ele>596</ele>
        <time>2016-10-29T11:28:22Z</time>
      </trkpt>
      <trkpt lat="43.3974" lon="5.44549">
        <ele>596</ele>
        <time>2016-10-29T11:28:31Z</time>
      </trkpt>
      <trkpt lat="43.39741" lon="5.4456">
        <ele>596</ele>
        <time>2016-10-29T11:28:40Z</time>
      </trkpt>
      <trkpt lat="43.39747" lon="5.44568">
        <ele>594</ele>
        <time>2016-10-29T11:28:50Z</time>
      </trkpt>
      <trkpt lat="43.39753" lon="5.4458">
        <ele>591</ele>
        <time>2016-10-29T11:29:00Z</time>
      </trkpt>
      <trkpt lat="43.39759" lon="5.44591">
        <ele>590</ele>
        <time>2016-10-29T11:29:09Z</time>
      </trkpt>
      <trkpt lat="43.39762" lon="5.44602">
        <ele>590</ele>
        <time>2016-10-29T11:29:18Z</time>
      </trkpt>
      <trkpt lat="43.3977" lon="5.44613">
        <ele>588</ele>
        <time>2016-10-29T11:29:29Z</time>
      </trkpt>
      <trkpt lat="43.39771" lon="5.44624">
        <ele>587</ele>
        <time>2016-10-29T11:29:39Z</time>
      </trkpt>
      <trkpt lat="43.39777" lon="5.44636">
        <ele>585</ele>
        <time>2016-10-29T11:29:49Z</time>
      </trkpt>
      <trkpt lat="43.39782" lon="5.44648">
        <ele>584</ele>
        <time>2016-10-29T11:29:58Z</time>
      </trkpt>
      <trkpt lat="43.39787" lon="5.44663">
        <ele>583</ele>
        <time>2016-10-29T11:30:08Z</time>
      </trkpt>
      <trkpt lat="43.39793" lon="5.44677">
        <ele>582</ele>
        <time>2016-10-29T11:30:18Z</time>
      </trkpt>
      <trkpt lat="43.39795" lon="5.44693">
        <ele>582</ele>
        <time>2016-10-29T11:30:28Z</time>
      </trkpt>
      <trkpt lat="43.39797" lon="5.44709">
        <ele>582</ele>
        <time>2016-10-29T11:30:38Z</time>
      </trkpt>
      <trkpt lat="43.39799" lon="5.44724">
        <ele>582</ele>
        <time>2016-10-29T11:30:48Z</time>
      </trkpt>
      <trkpt lat="43.39799" lon="5.44739">
        <ele>582</ele>
        <time>2016-10-29T11:30:58Z</time>
      </trkpt>
      <trkpt lat="43.39799" lon="5.44752">
        <ele>582</ele>
        <time>2016-10-29T11:31:08Z</time>
      </trkpt>
      <trkpt lat="43.39798" lon="5.44766">
        <ele>582</ele>
        <time>2016-10-29T11:31:19Z</time>
      </trkpt>
      <trkpt lat="43.39796" lon="5.44779">
        <ele>582</ele>
        <time>2016-10-29T11:31:29Z</time>
      </trkpt>
      <trkpt lat="43.39794" lon="5.4479">
        <ele>582</ele>
        <time>2016-10-29T11:31:38Z</time>
      </trkpt>
      <trkpt lat="43.3979" lon="5.44799">
        <ele>582</ele>
        <time>2016-10-29T11:32:00Z</time>
      </trkpt>
      <trkpt lat="43.39783" lon="5.44811">
        <ele>582</ele>
        <time>2016-10-29T11:32:10Z</time>
      </trkpt>
      <trkpt lat="43.39779" lon="5.44824">
        <ele>582</ele>
        <time>2016-10-29T11:32:20Z</time>
      </trkpt>
      <trkpt lat="43.39776" lon="5.44837">
        <ele>582</ele>
        <time>2016-10-29T11:32:29Z</time>
      </trkpt>
      <trkpt lat="43.39773" lon="5.4485">
        <ele>582</ele>
        <time>2016-10-29T11:32:38Z</time>
      </trkpt>
      <trkpt lat="43.39767" lon="5.44862">
        <ele>582</ele>
        <time>2016-10-29T11:32:48Z</time>
      </trkpt>
      <trkpt lat="43.39763" lon="5.44875">
        <ele>583</ele>
        <time>2016-10-29T11:32:58Z</time>
      </trkpt>
      <trkpt lat="43.39761" lon="5.44887">
        <ele>583</ele>
        <time>2016-10-29T11:33:08Z</time>
      </trkpt>
      <trkpt lat="43.39763" lon="5.44891">
        <ele>583</ele>
        <time>2016-10-29T11:33:18Z</time>
      </trkpt>
      <trkpt lat="43.39758" lon="5.44886">
        <ele>583</ele>
        <time>2016-10-29T11:33:43Z</time>
      </trkpt>
      <trkpt lat="43.39761" lon="5.44882">
        <ele>583</ele>
        <time>2016-10-29T11:33:54Z</time>
      </trkpt>
      <trkpt lat="43.3976" lon="5.44885">
        <ele>583</ele>
        <time>2016-10-29T11:34:06Z</time>
      </trkpt>
      <trkpt lat="43.39758" lon="5.44894">
        <ele>583</ele>
        <time>2016-10-29T11:34:16Z</time>
      </trkpt>
      <trkpt lat="43.39756" lon="5.44908">
        <ele>583</ele>
        <time>2016-10-29T11:34:25Z</time>
      </trkpt>
      <trkpt lat="43.39756" lon="5.44921">
        <ele>583</ele>
        <time>2016-10-29T11:34:34Z</time>
      </trkpt>
      <trkpt lat="43.39755" lon="5.44933">
        <ele>583</ele>
        <time>2016-10-29T11:34:43Z</time>
      </trkpt>
      <trkpt lat="43.39755" lon="5.44945">
        <ele>583</ele>
        <time>2016-10-29T11:34:53Z</time>
      </trkpt>
      <trkpt lat="43.39756" lon="5.44957">
        <ele>583</ele>
        <time>2016-10-29T11:35:02Z</time>
      </trkpt>
      <trkpt lat="43.39757" lon="5.44971">
        <ele>583</ele>
        <time>2016-10-29T11:35:13Z</time>
      </trkpt>
      <trkpt lat="43.39758" lon="5.44983">
        <ele>583</ele>
        <time>2016-10-29T11:35:24Z</time>
      </trkpt>
      <trkpt lat="43.39762" lon="5.44995">
        <ele>582</ele>
        <time>2016-10-29T11:35:34Z</time>
      </trkpt>
      <trkpt lat="43.39765" lon="5.45008">
        <ele>582</ele>
        <time>2016-10-29T11:35:43Z</time>
      </trkpt>
      <trkpt lat="43.39766" lon="5.45022">
        <ele>580</ele>
        <time>2016-10-29T11:35:54Z</time>
      </trkpt>
      <trkpt lat="43.39768" lon="5.45035">
        <ele>579</ele>
        <time>2016-10-29T11:36:03Z</time>
      </trkpt>
      <trkpt lat="43.3977" lon="5.45047">
        <ele>579</ele>
        <time>2016-10-29T11:36:13Z</time>
      </trkpt>
      <trkpt lat="43.39767" lon="5.45059">
        <ele>578</ele>
        <time>2016-10-29T11:36:24Z</time>
      </trkpt>
      <trkpt lat="43.39767" lon="5.4507">
        <ele>577</ele>
        <time>2016-10-29T11:36:33Z</time>
      </trkpt>
      <trkpt lat="43.39774" lon="5.45076">
        <ele>577</ele>
        <time>2016-10-29T11:36:43Z</time>
      </trkpt>
      <trkpt lat="43.39773" lon="5.45091">
        <ele>577</ele>
        <time>2016-10-29T11:36:54Z</time>
      </trkpt>
      <trkpt lat="43.39773" lon="5.45103">
        <ele>577</ele>
        <time>2016-10-29T11:37:03Z</time>
      </trkpt>
      <trkpt lat="43.39775" lon="5.45117">
        <ele>577</ele>
        <time>2016-10-29T11:37:14Z</time>
      </trkpt>
      <trkpt lat="43.39776" lon="5.45128">
        <ele>577</ele>
        <time>2016-10-29T11:37:24Z</time>
      </trkpt>
      <trkpt lat="43.39777" lon="5.45137">
        <ele>577</ele>
        <time>2016-10-29T11:37:34Z</time>
      </trkpt>
      <trkpt lat="43.39776" lon="5.45146">
        <ele>579</ele>
        <time>2016-10-29T11:37:44Z</time>
      </trkpt>
      <trkpt lat="43.39773" lon="5.45154">
        <ele>579</ele>
        <time>2016-10-29T11:37:53Z</time>
      </trkpt>
      <trkpt lat="43.39769" lon="5.45162">
        <ele>580</ele>
        <time>2016-10-29T11:38:03Z</time>
      </trkpt>
      <trkpt lat="43.39768" lon="5.4517">
        <ele>581</ele>
        <time>2016-10-29T11:38:13Z</time>
      </trkpt>
      <trkpt lat="43.39767" lon="5.45179">
        <ele>582</ele>
        <time>2016-10-29T11:38:24Z</time>
      </trkpt>
      <trkpt lat="43.39765" lon="5.45186">
        <ele>583</ele>
        <time>2016-10-29T11:38:33Z</time>
      </trkpt>
      <trkpt lat="43.39764" lon="5.45192">
        <ele>585</ele>
        <time>2016-10-29T11:38:43Z</time>
      </trkpt>
      <trkpt lat="43.39762" lon="5.452">
        <ele>586</ele>
        <time>2016-10-29T11:38:54Z</time>
      </trkpt>
      <trkpt lat="43.39761" lon="5.45207">
        <ele>587</ele>
        <time>2016-10-29T11:39:03Z</time>
      </trkpt>
      <trkpt lat="43.39761" lon="5.45215">
        <ele>588</ele>
        <time>2016-10-29T11:39:13Z</time>
      </trkpt>
      <trkpt lat="43.39761" lon="5.45219">
        <ele>589</ele>
        <time>2016-10-29T11:39:23Z</time>
      </trkpt>
      <trkpt lat="43.39759" lon="5.45227">
        <ele>591</ele>
        <time>2016-10-29T11:39:33Z</time>
      </trkpt>
      <trkpt lat="43.39755" lon="5.45233">
        <ele>593</ele>
        <time>2016-10-29T11:39:44Z</time>
      </trkpt>
      <trkpt lat="43.3975" lon="5.45236">
        <ele>595</ele>
        <time>2016-10-29T11:39:54Z</time>
      </trkpt>
      <trkpt lat="43.39745" lon="5.45242">
        <ele>597</ele>
        <time>2016-10-29T11:40:05Z</time>
      </trkpt>
      <trkpt lat="43.39742" lon="5.45247">
        <ele>600</ele>
        <time>2016-10-29T11:40:17Z</time>
      </trkpt>
      <trkpt lat="43.39742" lon="5.45253">
        <ele>601</ele>
        <time>2016-10-29T11:40:26Z</time>
      </trkpt>
      <trkpt lat="43.39744" lon="5.45262">
        <ele>602</ele>
        <time>2016-10-29T11:40:37Z</time>
      </trkpt>
      <trkpt lat="43.39746" lon="5.45274">
        <ele>602</ele>
        <time>2016-10-29T11:40:47Z</time>
      </trkpt>
      <trkpt lat="43.39748" lon="5.45285">
        <ele>603</ele>
        <time>2016-10-29T11:40:56Z</time>
      </trkpt>
      <trkpt lat="43.3975" lon="5.4529">
        <ele>604</ele>
        <time>2016-10-29T11:41:32Z</time>
      </trkpt>
      <trkpt lat="43.39752" lon="5.45302">
        <ele>604</ele>
        <time>2016-10-29T11:41:41Z</time>
      </trkpt>
      <trkpt lat="43.39754" lon="5.45314">
        <ele>605</ele>
        <time>2016-10-29T11:41:50Z</time>
      </trkpt>
      <trkpt lat="43.39756" lon="5.45324">
        <ele>606</ele>
        <time>2016-10-29T11:41:59Z</time>
      </trkpt>
      <trkpt lat="43.39756" lon="5.45325">
        <ele>606</ele>
        <time>2016-10-29T11:42:28Z</time>
      </trkpt>
      <trkpt lat="43.39757" lon="5.4534">
        <ele>606</ele>
        <time>2016-10-29T11:42:38Z</time>
      </trkpt>
      <trkpt lat="43.39756" lon="5.45345">
        <ele>606</ele>
        <time>2016-10-29T11:42:51Z</time>
      </trkpt>
      <trkpt lat="43.39754" lon="5.45359">
        <ele>606</ele>
        <time>2016-10-29T11:43:01Z</time>
      </trkpt>
      <trkpt lat="43.3975" lon="5.45372">
        <ele>606</ele>
        <time>2016-10-29T11:43:11Z</time>
      </trkpt>
      <trkpt lat="43.39745" lon="5.45383">
        <ele>608</ele>
        <time>2016-10-29T11:43:20Z</time>
      </trkpt>
      <trkpt lat="43.39743" lon="5.45396">
        <ele>608</ele>
        <time>2016-10-29T11:43:29Z</time>
      </trkpt>
      <trkpt lat="43.39741" lon="5.4541">
        <ele>608</ele>
        <time>2016-10-29T11:43:38Z</time>
      </trkpt>
      <trkpt lat="43.39742" lon="5.45425">
        <ele>608</ele>
        <time>2016-10-29T11:43:48Z</time>
      </trkpt>
      <trkpt lat="43.39743" lon="5.4544">
        <ele>608</ele>
        <time>2016-10-29T11:43:58Z</time>
      </trkpt>
      <trkpt lat="43.39742" lon="5.45454">
        <ele>608</ele>
        <time>2016-10-29T11:44:08Z</time>
      </trkpt>
      <trkpt lat="43.39741" lon="5.4547">
        <ele>608</ele>
        <time>2016-10-29T11:44:18Z</time>
      </trkpt>
      <trkpt lat="43.39742" lon="5.45486">
        <ele>607</ele>
        <time>2016-10-29T11:44:28Z</time>
      </trkpt>
      <trkpt lat="43.39742" lon="5.45502">
        <ele>607</ele>
        <time>2016-10-29T11:44:38Z</time>
      </trkpt>
      <trkpt lat="43.39743" lon="5.45517">
        <ele>605</ele>
        <time>2016-10-29T11:44:48Z</time>
      </trkpt>
      <trkpt lat="43.39746" lon="5.45532">
        <ele>603</ele>
        <time>2016-10-29T11:44:59Z</time>
      </trkpt>
      <trkpt lat="43.39751" lon="5.45547">
        <ele>601</ele>
        <time>2016-10-29T11:45:09Z</time>
      </trkpt>
      <trkpt lat="43.39759" lon="5.45557">
        <ele>601</ele>
        <time>2016-10-29T11:45:18Z</time>
      </trkpt>
      <trkpt lat="43.39767" lon="5.45569">
        <ele>600</ele>
        <time>2016-10-29T11:45:28Z</time>
      </trkpt>
      <trkpt lat="43.39772" lon="5.45584">
        <ele>600</ele>
        <time>2016-10-29T11:45:38Z</time>
      </trkpt>
      <trkpt lat="43.39776" lon="5.456">
        <ele>598</ele>
        <time>2016-10-29T11:45:49Z</time>
      </trkpt>
      <trkpt lat="43.39778" lon="5.45611">
        <ele>597</ele>
        <time>2016-10-29T11:45:58Z</time>
      </trkpt>
      <trkpt lat="43.39781" lon="5.45622">
        <ele>595</ele>
        <time>2016-10-29T11:46:09Z</time>
      </trkpt>
      <trkpt lat="43.3978" lon="5.45632">
        <ele>593</ele>
        <time>2016-10-29T11:46:19Z</time>
      </trkpt>
      <trkpt lat="43.39778" lon="5.45642">
        <ele>591</ele>
        <time>2016-10-29T11:46:29Z</time>
      </trkpt>
      <trkpt lat="43.39778" lon="5.45655">
        <ele>590</ele>
        <time>2016-10-29T11:46:39Z</time>
      </trkpt>
      <trkpt lat="43.3978" lon="5.45668">
        <ele>588</ele>
        <time>2016-10-29T11:46:49Z</time>
      </trkpt>
      <trkpt lat="43.39782" lon="5.45677">
        <ele>586</ele>
        <time>2016-10-29T11:46:59Z</time>
      </trkpt>
      <trkpt lat="43.39785" lon="5.45683">
        <ele>584</ele>
        <time>2016-10-29T11:47:08Z</time>
      </trkpt>
      <trkpt lat="43.39783" lon="5.45696">
        <ele>584</ele>
        <time>2016-10-29T11:47:18Z</time>
      </trkpt>
      <trkpt lat="43.39784" lon="5.45707">
        <ele>584</ele>
        <time>2016-10-29T11:47:34Z</time>
      </trkpt>
      <trkpt lat="43.39789" lon="5.45714">
        <ele>584</ele>
        <time>2016-10-29T11:47:43Z</time>
      </trkpt>
      <trkpt lat="43.39791" lon="5.45724">
        <ele>584</ele>
        <time>2016-10-29T11:47:53Z</time>
      </trkpt>
      <trkpt lat="43.39801" lon="5.45733">
        <ele>584</ele>
        <time>2016-10-29T11:48:04Z</time>
      </trkpt>
      <trkpt lat="43.39803" lon="5.45744">
        <ele>584</ele>
        <time>2016-10-29T11:48:13Z</time>
      </trkpt>
      <trkpt lat="43.39805" lon="5.45757">
        <ele>584</ele>
        <time>2016-10-29T11:48:24Z</time>
      </trkpt>
      <trkpt lat="43.39802" lon="5.45768">
        <ele>584</ele>
        <time>2016-10-29T11:48:34Z</time>
      </trkpt>
      <trkpt lat="43.39804" lon="5.45778">
        <ele>584</ele>
        <time>2016-10-29T11:48:44Z</time>
      </trkpt>
      <trkpt lat="43.39809" lon="5.45789">
        <ele>582</ele>
        <time>2016-10-29T11:48:54Z</time>
      </trkpt>
      <trkpt lat="43.39814" lon="5.45798">
        <ele>581</ele>
        <time>2016-10-29T11:49:03Z</time>
      </trkpt>
      <trkpt lat="43.39821" lon="5.45808">
        <ele>581</ele>
        <time>2016-10-29T11:49:13Z</time>
      </trkpt>
      <trkpt lat="43.39826" lon="5.45821">
        <ele>581</ele>
        <time>2016-10-29T11:49:23Z</time>
      </trkpt>
      <trkpt lat="43.3983" lon="5.45828">
        <ele>581</ele>
        <time>2016-10-29T11:49:40Z</time>
      </trkpt>
      <trkpt lat="43.3983" lon="5.4583">
        <ele>581</ele>
        <time>2016-10-29T11:50:33Z</time>
      </trkpt>
      <trkpt lat="43.39832" lon="5.4584">
        <ele>581</ele>
        <time>2016-10-29T11:50:44Z</time>
      </trkpt>
      <trkpt lat="43.39837" lon="5.45845">
        <ele>582</ele>
        <time>2016-10-29T11:50:54Z</time>
      </trkpt>
      <trkpt lat="43.39838" lon="5.45857">
        <ele>583</ele>
        <time>2016-10-29T11:51:04Z</time>
      </trkpt>
      <trkpt lat="43.39842" lon="5.45866">
        <ele>583</ele>
        <time>2016-10-29T11:51:14Z</time>
      </trkpt>
      <trkpt lat="43.39847" lon="5.45871">
        <ele>583</ele>
        <time>2016-10-29T11:51:23Z</time>
      </trkpt>
      <trkpt lat="43.39852" lon="5.45876">
        <ele>583</ele>
        <time>2016-10-29T11:51:33Z</time>
      </trkpt>
      <trkpt lat="43.39858" lon="5.45884">
        <ele>583</ele>
        <time>2016-10-29T11:51:43Z</time>
      </trkpt>
      <trkpt lat="43.39867" lon="5.45889">
        <ele>582</ele>
        <time>2016-10-29T11:51:53Z</time>
      </trkpt>
      <trkpt lat="43.39876" lon="5.45896">
        <ele>581</ele>
        <time>2016-10-29T11:52:03Z</time>
      </trkpt>
      <trkpt lat="43.39886" lon="5.45904">
        <ele>581</ele>
        <time>2016-10-29T11:52:14Z</time>
      </trkpt>
      <trkpt lat="43.39893" lon="5.45912">
        <ele>581</ele>
        <time>2016-10-29T11:52:24Z</time>
      </trkpt>
      <trkpt lat="43.39897" lon="5.45913">
        <ele>580</ele>
        <time>2016-10-29T11:52:33Z</time>
      </trkpt>
      <trkpt lat="43.39906" lon="5.45914">
        <ele>580</ele>
        <time>2016-10-29T11:52:43Z</time>
      </trkpt>
      <trkpt lat="43.39915" lon="5.4591">
        <ele>577</ele>
        <time>2016-10-29T11:52:54Z</time>
      </trkpt>
      <trkpt lat="43.39922" lon="5.45905">
        <ele>575</ele>
        <time>2016-10-29T11:53:04Z</time>
      </trkpt>
      <trkpt lat="43.39928" lon="5.45908">
        <ele>572</ele>
        <time>2016-10-29T11:53:13Z</time>
      </trkpt>
      <trkpt lat="43.39936" lon="5.45913">
        <ele>569</ele>
        <time>2016-10-29T11:53:25Z</time>
      </trkpt>
      <trkpt lat="43.3994" lon="5.45919">
        <ele>567</ele>
        <time>2016-10-29T11:53:34Z</time>
      </trkpt>
      <trkpt lat="43.39945" lon="5.45925">
        <ele>566</ele>
        <time>2016-10-29T11:53:44Z</time>
      </trkpt>
      <trkpt lat="43.3995" lon="5.45933">
        <ele>566</ele>
        <time>2016-10-29T11:53:53Z</time>
      </trkpt>
      <trkpt lat="43.39961" lon="5.45937">
        <ele>565</ele>
        <time>2016-10-29T11:54:03Z</time>
      </trkpt>
      <trkpt lat="43.39967" lon="5.45949">
        <ele>565</ele>
        <time>2016-10-29T11:54:13Z</time>
      </trkpt>
      <trkpt lat="43.39974" lon="5.45954">
        <ele>565</ele>
        <time>2016-10-29T11:54:24Z</time>
      </trkpt>
      <trkpt lat="43.39978" lon="5.45962">
        <ele>565</ele>
        <time>2016-10-29T11:54:34Z</time>
      </trkpt>
      <trkpt lat="43.39982" lon="5.45966">
        <ele>565</ele>
        <time>2016-10-29T11:54:43Z</time>
      </trkpt>
      <trkpt lat="43.39988" lon="5.45965">
        <ele>565</ele>
        <time>2016-10-29T11:54:53Z</time>
      </trkpt>
      <trkpt lat="43.39991" lon="5.45963">
        <ele>565</ele>
        <time>2016-10-29T11:55:06Z</time>
      </trkpt>
      <trkpt lat="43.39993" lon="5.45959">
        <ele>565</ele>
        <time>2016-10-29T11:55:28Z</time>
      </trkpt>
      <trkpt lat="43.39994" lon="5.4596">
        <ele>565</ele>
        <time>2016-10-29T11:56:12Z</time>
      </trkpt>
      <trkpt lat="43.39995" lon="5.45963">
        <ele>565</ele>
        <time>2016-10-29T11:56:21Z</time>
      </trkpt>
      <trkpt lat="43.40001" lon="5.45973">
        <ele>565</ele>
        <time>2016-10-29T11:56:31Z</time>
      </trkpt>
      <trkpt lat="43.40005" lon="5.45981">
        <ele>565</ele>
        <time>2016-10-29T11:56:40Z</time>
      </trkpt>
      <trkpt lat="43.40007" lon="5.45992">
        <ele>564</ele>
        <time>2016-10-29T11:56:50Z</time>
      </trkpt>
      <trkpt lat="43.40011" lon="5.45996">
        <ele>562</ele>
        <time>2016-10-29T11:56:59Z</time>
      </trkpt>
      <trkpt lat="43.40015" lon="5.46002">
        <ele>560</ele>
        <time>2016-10-29T11:57:08Z</time>
      </trkpt>
      <trkpt lat="43.40023" lon="5.46004">
        <ele>557</ele>
        <time>2016-10-29T11:57:18Z</time>
      </trkpt>
      <trkpt lat="43.40032" lon="5.45999">
        <ele>555</ele>
        <time>2016-10-29T11:57:31Z</time>
      </trkpt>
      <trkpt lat="43.40031" lon="5.45999">
        <ele>553</ele>
        <time>2016-10-29T11:58:20Z</time>
      </trkpt>
      <trkpt lat="43.40032" lon="5.46">
        <ele>552</ele>
        <time>2016-10-29T11:58:50Z</time>
      </trkpt>
      <trkpt lat="43.40032" lon="5.46001">
        <ele>552</ele>
        <time>2016-10-29T11:59:03Z</time>
      </trkpt>
      <trkpt lat="43.40033" lon="5.46">
        <ele>552</ele>
        <time>2016-10-29T11:59:19Z</time>
      </trkpt>
      <trkpt lat="43.40034" lon="5.45999">
        <ele>552</ele>
        <time>2016-10-29T11:59:48Z</time>
      </trkpt>
      <trkpt lat="43.40036" lon="5.46001">
        <ele>552</ele>
        <time>2016-10-29T12:00:04Z</time>
      </trkpt>
      <trkpt lat="43.40045" lon="5.46001">
        <ele>552</ele>
        <time>2016-10-29T12:00:13Z</time>
      </trkpt>
      <trkpt lat="43.40054" lon="5.46001">
        <ele>552</ele>
        <time>2016-10-29T12:00:23Z</time>
      </trkpt>
      <trkpt lat="43.4006" lon="5.45999">
        <ele>552</ele>
        <time>2016-10-29T12:00:32Z</time>
      </trkpt>
      <trkpt lat="43.40065" lon="5.45996">
        <ele>552</ele>
        <time>2016-10-29T12:00:42Z</time>
      </trkpt>
      <trkpt lat="43.40072" lon="5.45994">
        <ele>552</ele>
        <time>2016-10-29T12:00:52Z</time>
      </trkpt>
      <trkpt lat="43.40079" lon="5.45989">
        <ele>552</ele>
        <time>2016-10-29T12:01:02Z</time>
      </trkpt>
      <trkpt lat="43.40088" lon="5.45988">
        <ele>552</ele>
        <time>2016-10-29T12:01:12Z</time>
      </trkpt>
      <trkpt lat="43.40097" lon="5.45986">
        <ele>552</ele>
        <time>2016-10-29T12:01:21Z</time>
      </trkpt>
      <trkpt lat="43.40106" lon="5.45986">
        <ele>553</ele>
        <time>2016-10-29T12:01:30Z</time>
      </trkpt>
      <trkpt lat="43.40115" lon="5.45988">
        <ele>554</ele>
        <time>2016-10-29T12:01:39Z</time>
      </trkpt>
      <trkpt lat="43.40125" lon="5.45991">
        <ele>554</ele>
        <time>2016-10-29T12:01:48Z</time>
      </trkpt>
      <trkpt lat="43.40135" lon="5.45994">
        <ele>554</ele>
        <time>2016-10-29T12:01:57Z</time>
      </trkpt>
      <trkpt lat="43.40144" lon="5.45998">
        <ele>554</ele>
        <time>2016-10-29T12:02:06Z</time>
      </trkpt>
      <trkpt lat="43.4015" lon="5.46002">
        <ele>554</ele>
        <time>2016-10-29T12:02:15Z</time>
      </trkpt>
      <trkpt lat="43.40155" lon="5.46005">
        <ele>556</ele>
        <time>2016-10-29T12:02:24Z</time>
      </trkpt>
      <trkpt lat="43.4016" lon="5.46008">
        <ele>557</ele>
        <time>2016-10-29T12:02:34Z</time>
      </trkpt>
      <trkpt lat="43.40166" lon="5.46008">
        <ele>560</ele>
        <time>2016-10-29T12:02:43Z</time>
      </trkpt>
      <trkpt lat="43.40171" lon="5.4601">
        <ele>564</ele>
        <time>2016-10-29T12:02:53Z</time>
      </trkpt>
      <trkpt lat="43.40175" lon="5.46014">
        <ele>568</ele>
        <time>2016-10-29T12:03:03Z</time>
      </trkpt>
      <trkpt lat="43.40181" lon="5.46013">
        <ele>568</ele>
        <time>2016-10-29T12:03:13Z</time>
      </trkpt>
      <trkpt lat="43.40184" lon="5.46016">
        <ele>568</ele>
        <time>2016-10-29T12:03:23Z</time>
      </trkpt>
      <trkpt lat="43.40188" lon="5.46017">
        <ele>573</ele>
        <time>2016-10-29T12:03:39Z</time>
      </trkpt>
      <trkpt lat="43.40192" lon="5.46017">
        <ele>575</ele>
        <time>2016-10-29T12:03:49Z</time>
      </trkpt>
      <trkpt lat="43.40194" lon="5.46021">
        <ele>580</ele>
        <time>2016-10-29T12:03:58Z</time>
      </trkpt>
      <trkpt lat="43.40199" lon="5.46024">
        <ele>581</ele>
        <time>2016-10-29T12:04:08Z</time>
      </trkpt>
      <trkpt lat="43.40201" lon="5.46027">
        <ele>581</ele>
        <time>2016-10-29T12:04:19Z</time>
      </trkpt>
      <trkpt lat="43.40207" lon="5.46031">
        <ele>581</ele>
        <time>2016-10-29T12:04:28Z</time>
      </trkpt>
      <trkpt lat="43.40213" lon="5.46027">
        <ele>581</ele>
        <time>2016-10-29T12:04:38Z</time>
      </trkpt>
      <trkpt lat="43.40217" lon="5.46026">
        <ele>581</ele>
        <time>2016-10-29T12:04:51Z</time>
      </trkpt>
      <trkpt lat="43.40222" lon="5.46022">
        <ele>581</ele>
        <time>2016-10-29T12:05:00Z</time>
      </trkpt>
      <trkpt lat="43.40226" lon="5.46019">
        <ele>581</ele>
        <time>2016-10-29T12:05:09Z</time>
      </trkpt>
      <trkpt lat="43.40231" lon="5.46015">
        <ele>581</ele>
        <time>2016-10-29T12:05:20Z</time>
      </trkpt>
      <trkpt lat="43.40238" lon="5.46013">
        <ele>581</ele>
        <time>2016-10-29T12:05:30Z</time>
      </trkpt>
      <trkpt lat="43.40243" lon="5.46011">
        <ele>581</ele>
        <time>2016-10-29T12:05:41Z</time>
      </trkpt>
      <trkpt lat="43.40247" lon="5.4601">
        <ele>582</ele>
        <time>2016-10-29T12:05:55Z</time>
      </trkpt>
      <trkpt lat="43.40251" lon="5.46009">
        <ele>585</ele>
        <time>2016-10-29T12:06:05Z</time>
      </trkpt>
      <trkpt lat="43.40253" lon="5.46009">
        <ele>588</ele>
        <time>2016-10-29T12:06:16Z</time>
      </trkpt>
      <trkpt lat="43.40253" lon="5.4601">
        <ele>589</ele>
        <time>2016-10-29T12:06:25Z</time>
      </trkpt>
      <trkpt lat="43.40253" lon="5.46008">
        <ele>595</ele>
        <time>2016-10-29T12:06:34Z</time>
      </trkpt>
      <trkpt lat="43.40253" lon="5.46002">
        <ele>596</ele>
        <time>2016-10-29T12:06:45Z</time>
      </trkpt>
      <trkpt lat="43.40252" lon="5.46001">
        <ele>597</ele>
        <time>2016-10-29T12:06:57Z</time>
      </trkpt>
      <trkpt lat="43.40252" lon="5.46002">
        <ele>597</ele>
        <time>2016-10-29T12:07:17Z</time>
      </trkpt>
      <trkpt lat="43.40256" lon="5.45998">
        <ele>597</ele>
        <time>2016-10-29T12:07:27Z</time>
      </trkpt>
      <trkpt lat="43.40259" lon="5.46001">
        <ele>603</ele>
        <time>2016-10-29T12:07:36Z</time>
      </trkpt>
      <trkpt lat="43.40263" lon="5.46004">
        <ele>606</ele>
        <time>2016-10-29T12:07:47Z</time>
      </trkpt>
      <trkpt lat="43.40268" lon="5.46009">
        <ele>606</ele>
        <time>2016-10-29T12:07:58Z</time>
      </trkpt>
      <trkpt lat="43.40276" lon="5.46011">
        <ele>607</ele>
        <time>2016-10-29T12:08:08Z</time>
      </trkpt>
      <trkpt lat="43.40279" lon="5.46013">
        <ele>611</ele>
        <time>2016-10-29T12:08:18Z</time>
      </trkpt>
      <trkpt lat="43.40282" lon="5.46017">
        <ele>618</ele>
        <time>2016-10-29T12:08:28Z</time>
      </trkpt>
      <trkpt lat="43.40287" lon="5.46019">
        <ele>621</ele>
        <time>2016-10-29T12:08:37Z</time>
      </trkpt>
      <trkpt lat="43.4029" lon="5.46022">
        <ele>614</ele>
        <time>2016-10-29T12:08:48Z</time>
      </trkpt>
      <trkpt lat="43.40295" lon="5.46019">
        <ele>604</ele>
        <time>2016-10-29T12:08:59Z</time>
      </trkpt>
      <trkpt lat="43.40298" lon="5.46019">
        <ele>601</ele>
        <time>2016-10-29T12:09:14Z</time>
      </trkpt>
      <trkpt lat="43.403" lon="5.46014">
        <ele>593</ele>
        <time>2016-10-29T12:09:25Z</time>
      </trkpt>
      <trkpt lat="43.403" lon="5.46011">
        <ele>588</ele>
        <time>2016-10-29T12:09:39Z</time>
      </trkpt>
      <trkpt lat="43.40302" lon="5.4601">
        <ele>585</ele>
        <time>2016-10-29T12:09:49Z</time>
      </trkpt>
      <trkpt lat="43.40301" lon="5.46011">
        <ele>586</ele>
        <time>2016-10-29T12:09:59Z</time>
      </trkpt>
      <trkpt lat="43.40298" lon="5.46012">
        <ele>608</ele>
        <time>2016-10-29T12:10:15Z</time>
      </trkpt>
      <trkpt lat="43.40301" lon="5.46014">
        <ele>616</ele>
        <time>2016-10-29T12:10:26Z</time>
      </trkpt>
      <trkpt lat="43.403" lon="5.46018">
        <ele>622</ele>
        <time>2016-10-29T12:10:40Z</time>
      </trkpt>
      <trkpt lat="43.40301" lon="5.4602">
        <ele>633</ele>
        <time>2016-10-29T12:10:54Z</time>
      </trkpt>
      <trkpt lat="43.403" lon="5.46014">
        <ele>635</ele>
        <time>2016-10-29T12:11:03Z</time>
      </trkpt>
      <trkpt lat="43.40301" lon="5.46016">
        <ele>635</ele>
        <time>2016-10-29T12:11:25Z</time>
      </trkpt>
      <trkpt lat="43.40303" lon="5.46018">
        <ele>635</ele>
        <time>2016-10-29T12:11:34Z</time>
      </trkpt>
      <trkpt lat="43.40304" lon="5.46022">
        <ele>635</ele>
        <time>2016-10-29T12:11:45Z</time>
      </trkpt>
      <trkpt lat="43.40305" lon="5.46025">
        <ele>635</ele>
        <time>2016-10-29T12:11:58Z</time>
      </trkpt>
      <trkpt lat="43.4031" lon="5.46029">
        <ele>635</ele>
        <time>2016-10-29T12:12:08Z</time>
      </trkpt>
      <trkpt lat="43.4031" lon="5.46035">
        <ele>637</ele>
        <time>2016-10-29T12:12:18Z</time>
      </trkpt>
      <trkpt lat="43.40311" lon="5.46041">
        <ele>637</ele>
        <time>2016-10-29T12:12:27Z</time>
      </trkpt>
      <trkpt lat="43.40312" lon="5.46047">
        <ele>637</ele>
        <time>2016-10-29T12:12:38Z</time>
      </trkpt>
      <trkpt lat="43.40315" lon="5.46051">
        <ele>639</ele>
        <time>2016-10-29T12:12:49Z</time>
      </trkpt>
      <trkpt lat="43.40316" lon="5.46058">
        <ele>642</ele>
        <time>2016-10-29T12:13:00Z</time>
      </trkpt>
      <trkpt lat="43.40319" lon="5.46061">
        <ele>642</ele>
        <time>2016-10-29T12:13:11Z</time>
      </trkpt>
      <trkpt lat="43.40319" lon="5.46067">
        <ele>642</ele>
        <time>2016-10-29T12:13:20Z</time>
      </trkpt>
      <trkpt lat="43.40325" lon="5.46073">
        <ele>643</ele>
        <time>2016-10-29T12:13:31Z</time>
      </trkpt>
      <trkpt lat="43.40326" lon="5.46075">
        <ele>643</ele>
        <time>2016-10-29T12:13:40Z</time>
      </trkpt>
      <trkpt lat="43.40331" lon="5.46081">
        <ele>643</ele>
        <time>2016-10-29T12:13:50Z</time>
      </trkpt>
      <trkpt lat="43.40335" lon="5.46086">
        <ele>643</ele>
        <time>2016-10-29T12:13:59Z</time>
      </trkpt>
      <trkpt lat="43.40343" lon="5.46092">
        <ele>643</ele>
        <time>2016-10-29T12:14:08Z</time>
      </trkpt>
      <trkpt lat="43.40348" lon="5.46099">
        <ele>643</ele>
        <time>2016-10-29T12:14:19Z</time>
      </trkpt>
      <trkpt lat="43.40351" lon="5.461">
        <ele>643</ele>
        <time>2016-10-29T12:14:31Z</time>
      </trkpt>
      <trkpt lat="43.40354" lon="5.46104">
        <ele>643</ele>
        <time>2016-10-29T12:14:41Z</time>
      </trkpt>
      <trkpt lat="43.40356" lon="5.46109">
        <ele>644</ele>
        <time>2016-10-29T12:14:51Z</time>
      </trkpt>
      <trkpt lat="43.40359" lon="5.46108">
        <ele>645</ele>
        <time>2016-10-29T12:15:01Z</time>
      </trkpt>
      <trkpt lat="43.40363" lon="5.46108">
        <ele>649</ele>
        <time>2016-10-29T12:15:15Z</time>
      </trkpt>
      <trkpt lat="43.40364" lon="5.46107">
        <ele>649</ele>
        <time>2016-10-29T12:15:25Z</time>
      </trkpt>
      <trkpt lat="43.40367" lon="5.46109">
        <ele>649</ele>
        <time>2016-10-29T12:15:40Z</time>
      </trkpt>
      <trkpt lat="43.40376" lon="5.46113">
        <ele>649</ele>
        <time>2016-10-29T12:15:49Z</time>
      </trkpt>
      <trkpt lat="43.40382" lon="5.46115">
        <ele>655</ele>
        <time>2016-10-29T12:15:58Z</time>
      </trkpt>
      <trkpt lat="43.40387" lon="5.46115">
        <ele>655</ele>
        <time>2016-10-29T12:16:07Z</time>
      </trkpt>
      <trkpt lat="43.40393" lon="5.46115">
        <ele>649</ele>
        <time>2016-10-29T12:16:16Z</time>
      </trkpt>
      <trkpt lat="43.40397" lon="5.46117">
        <ele>648</ele>
        <time>2016-10-29T12:16:25Z</time>
      </trkpt>
      <trkpt lat="43.40405" lon="5.4612">
        <ele>647</ele>
        <time>2016-10-29T12:16:35Z</time>
      </trkpt>
      <trkpt lat="43.40413" lon="5.46125">
        <ele>646</ele>
        <time>2016-10-29T12:16:46Z</time>
      </trkpt>
      <trkpt lat="43.40417" lon="5.46132">
        <ele>646</ele>
        <time>2016-10-29T12:16:55Z</time>
      </trkpt>
      <trkpt lat="43.40421" lon="5.4614">
        <ele>646</ele>
        <time>2016-10-29T12:17:04Z</time>
      </trkpt>
      <trkpt lat="43.40425" lon="5.46152">
        <ele>648</ele>
        <time>2016-10-29T12:17:14Z</time>
      </trkpt>
      <trkpt lat="43.40429" lon="5.4616">
        <ele>648</ele>
        <time>2016-10-29T12:17:28Z</time>
      </trkpt>
      <trkpt lat="43.40432" lon="5.46165">
        <ele>648</ele>
        <time>2016-10-29T12:17:37Z</time>
      </trkpt>
      <trkpt lat="43.40436" lon="5.4617">
        <ele>654</ele>
        <time>2016-10-29T12:17:47Z</time>
      </trkpt>
      <trkpt lat="43.4044" lon="5.46176">
        <ele>654</ele>
        <time>2016-10-29T12:17:56Z</time>
      </trkpt>
      <trkpt lat="43.40446" lon="5.46181">
        <ele>654</ele>
        <time>2016-10-29T12:18:05Z</time>
      </trkpt>
      <trkpt lat="43.40451" lon="5.46184">
        <ele>654</ele>
        <time>2016-10-29T12:18:16Z</time>
      </trkpt>
      <trkpt lat="43.40456" lon="5.46189">
        <ele>654</ele>
        <time>2016-10-29T12:18:25Z</time>
      </trkpt>
      <trkpt lat="43.4046" lon="5.46194">
        <ele>654</ele>
        <time>2016-10-29T12:18:34Z</time>
      </trkpt>
      <trkpt lat="43.40465" lon="5.46197">
        <ele>654</ele>
        <time>2016-10-29T12:18:45Z</time>
      </trkpt>
      <trkpt lat="43.4047" lon="5.462">
        <ele>654</ele>
        <time>2016-10-29T12:18:55Z</time>
      </trkpt>
      <trkpt lat="43.40474" lon="5.46204">
        <ele>654</ele>
        <time>2016-10-29T12:19:04Z</time>
      </trkpt>
      <trkpt lat="43.40478" lon="5.46207">
        <ele>656</ele>
        <time>2016-10-29T12:19:15Z</time>
      </trkpt>
      <trkpt lat="43.40483" lon="5.46211">
        <ele>657</ele>
        <time>2016-10-29T12:19:32Z</time>
      </trkpt>
      <trkpt lat="43.40487" lon="5.46217">
        <ele>660</ele>
        <time>2016-10-29T12:19:41Z</time>
      </trkpt>
      <trkpt lat="43.40488" lon="5.46221">
        <ele>661</ele>
        <time>2016-10-29T12:19:50Z</time>
      </trkpt>
      <trkpt lat="43.40493" lon="5.46226">
        <ele>662</ele>
        <time>2016-10-29T12:19:59Z</time>
      </trkpt>
      <trkpt lat="43.40494" lon="5.46229">
        <ele>662</ele>
        <time>2016-10-29T12:20:08Z</time>
      </trkpt>
      <trkpt lat="43.40496" lon="5.46232">
        <ele>662</ele>
        <time>2016-10-29T12:20:17Z</time>
      </trkpt>
      <trkpt lat="43.40501" lon="5.46235">
        <ele>662</ele>
        <time>2016-10-29T12:20:29Z</time>
      </trkpt>
      <trkpt lat="43.40506" lon="5.46237">
        <ele>662</ele>
        <time>2016-10-29T12:20:41Z</time>
      </trkpt>
      <trkpt lat="43.4051" lon="5.4624">
        <ele>665</ele>
        <time>2016-10-29T12:20:51Z</time>
      </trkpt>
      <trkpt lat="43.40514" lon="5.46241">
        <ele>666</ele>
        <time>2016-10-29T12:21:00Z</time>
      </trkpt>
      <trkpt lat="43.40518" lon="5.46243">
        <ele>667</ele>
        <time>2016-10-29T12:21:11Z</time>
      </trkpt>
      <trkpt lat="43.40519" lon="5.46248">
        <ele>667</ele>
        <time>2016-10-29T12:21:20Z</time>
      </trkpt>
      <trkpt lat="43.40523" lon="5.4625">
        <ele>670</ele>
        <time>2016-10-29T12:21:30Z</time>
      </trkpt>
      <trkpt lat="43.40525" lon="5.4625">
        <ele>670</ele>
        <time>2016-10-29T12:21:42Z</time>
      </trkpt>
      <trkpt lat="43.40523" lon="5.46248">
        <ele>675</ele>
        <time>2016-10-29T12:21:53Z</time>
      </trkpt>
      <trkpt lat="43.40525" lon="5.4625">
        <ele>675</ele>
        <time>2016-10-29T12:22:04Z</time>
      </trkpt>
      <trkpt lat="43.4053" lon="5.46256">
        <ele>675</ele>
        <time>2016-10-29T12:22:17Z</time>
      </trkpt>
      <trkpt lat="43.40532" lon="5.46261">
        <ele>675</ele>
        <time>2016-10-29T12:22:29Z</time>
      </trkpt>
      <trkpt lat="43.40537" lon="5.46265">
        <ele>674</ele>
        <time>2016-10-29T12:22:45Z</time>
      </trkpt>
      <trkpt lat="43.40539" lon="5.46262">
        <ele>674</ele>
        <time>2016-10-29T12:22:54Z</time>
      </trkpt>
      <trkpt lat="43.40543" lon="5.46259">
        <ele>674</ele>
        <time>2016-10-29T12:23:04Z</time>
      </trkpt>
      <trkpt lat="43.40547" lon="5.46253">
        <ele>674</ele>
        <time>2016-10-29T12:23:14Z</time>
      </trkpt>
      <trkpt lat="43.40549" lon="5.46249">
        <ele>672</ele>
        <time>2016-10-29T12:23:24Z</time>
      </trkpt>
      <trkpt lat="43.40552" lon="5.46241">
        <ele>670</ele>
        <time>2016-10-29T12:23:33Z</time>
      </trkpt>
      <trkpt lat="43.40554" lon="5.4623">
        <ele>667</ele>
        <time>2016-10-29T12:23:42Z</time>
      </trkpt>
      <trkpt lat="43.40555" lon="5.46218">
        <ele>662</ele>
        <time>2016-10-29T12:23:52Z</time>
      </trkpt>
      <trkpt lat="43.40554" lon="5.46203">
        <ele>655</ele>
        <time>2016-10-29T12:24:02Z</time>
      </trkpt>
      <trkpt lat="43.40554" lon="5.4619">
        <ele>648</ele>
        <time>2016-10-29T12:24:12Z</time>
      </trkpt>
      <trkpt lat="43.40556" lon="5.46178">
        <ele>647</ele>
        <time>2016-10-29T12:24:21Z</time>
      </trkpt>
      <trkpt lat="43.40554" lon="5.46166">
        <ele>647</ele>
        <time>2016-10-29T12:24:30Z</time>
      </trkpt>
      <trkpt lat="43.40555" lon="5.46161">
        <ele>645</ele>
        <time>2016-10-29T12:24:41Z</time>
      </trkpt>
      <trkpt lat="43.40558" lon="5.46155">
        <ele>643</ele>
        <time>2016-10-29T12:24:51Z</time>
      </trkpt>
      <trkpt lat="43.40561" lon="5.46146">
        <ele>642</ele>
        <time>2016-10-29T12:25:01Z</time>
      </trkpt>
      <trkpt lat="43.40565" lon="5.46136">
        <ele>641</ele>
        <time>2016-10-29T12:25:11Z</time>
      </trkpt>
      <trkpt lat="43.40565" lon="5.46127">
        <ele>639</ele>
        <time>2016-10-29T12:25:21Z</time>
      </trkpt>
      <trkpt lat="43.40569" lon="5.46119">
        <ele>638</ele>
        <time>2016-10-29T12:25:30Z</time>
      </trkpt>
      <trkpt lat="43.40569" lon="5.46114">
        <ele>636</ele>
        <time>2016-10-29T12:25:40Z</time>
      </trkpt>
      <trkpt lat="43.4057" lon="5.46113">
        <ele>633</ele>
        <time>2016-10-29T12:25:49Z</time>
      </trkpt>
      <trkpt lat="43.40571" lon="5.46109">
        <ele>632</ele>
        <time>2016-10-29T12:26:01Z</time>
      </trkpt>
      <trkpt lat="43.40572" lon="5.46103">
        <ele>631</ele>
        <time>2016-10-29T12:26:12Z</time>
      </trkpt>
      <trkpt lat="43.40575" lon="5.46099">
        <ele>631</ele>
        <time>2016-10-29T12:26:21Z</time>
      </trkpt>
      <trkpt lat="43.40579" lon="5.46093">
        <ele>629</ele>
        <time>2016-10-29T12:26:30Z</time>
      </trkpt>
      <trkpt lat="43.40584" lon="5.46093">
        <ele>629</ele>
        <time>2016-10-29T12:26:44Z</time>
      </trkpt>
      <trkpt lat="43.40585" lon="5.46095">
        <ele>629</ele>
        <time>2016-10-29T12:26:58Z</time>
      </trkpt>
      <trkpt lat="43.40585" lon="5.46088">
        <ele>629</ele>
        <time>2016-10-29T12:27:08Z</time>
      </trkpt>
      <trkpt lat="43.40588" lon="5.46081">
        <ele>627</ele>
        <time>2016-10-29T12:27:17Z</time>
      </trkpt>
      <trkpt lat="43.40591" lon="5.46071">
        <ele>626</ele>
        <time>2016-10-29T12:27:28Z</time>
      </trkpt>
      <trkpt lat="43.40598" lon="5.46066">
        <ele>626</ele>
        <time>2016-10-29T12:27:38Z</time>
      </trkpt>
      <trkpt lat="43.40603" lon="5.46061">
        <ele>623</ele>
        <time>2016-10-29T12:27:47Z</time>
      </trkpt>
      <trkpt lat="43.40608" lon="5.46059">
        <ele>619</ele>
        <time>2016-10-29T12:27:56Z</time>
      </trkpt>
      <trkpt lat="43.40614" lon="5.46055">
        <ele>618</ele>
        <time>2016-10-29T12:28:06Z</time>
      </trkpt>
      <trkpt lat="43.40617" lon="5.46055">
        <ele>615</ele>
        <time>2016-10-29T12:28:17Z</time>
      </trkpt>
      <trkpt lat="43.40622" lon="5.46055">
        <ele>612</ele>
        <time>2016-10-29T12:28:29Z</time>
      </trkpt>
      <trkpt lat="43.40625" lon="5.46057">
        <ele>611</ele>
        <time>2016-10-29T12:28:41Z</time>
      </trkpt>
      <trkpt lat="43.40629" lon="5.46059">
        <ele>609</ele>
        <time>2016-10-29T12:28:51Z</time>
      </trkpt>
      <trkpt lat="43.40635" lon="5.46055">
        <ele>609</ele>
        <time>2016-10-29T12:29:04Z</time>
      </trkpt>
      <trkpt lat="43.40643" lon="5.46045">
        <ele>609</ele>
        <time>2016-10-29T12:29:14Z</time>
      </trkpt>
      <trkpt lat="43.40652" lon="5.46034">
        <ele>608</ele>
        <time>2016-10-29T12:29:24Z</time>
      </trkpt>
      <trkpt lat="43.4066" lon="5.46024">
        <ele>607</ele>
        <time>2016-10-29T12:29:33Z</time>
      </trkpt>
      <trkpt lat="43.40668" lon="5.46015">
        <ele>606</ele>
        <time>2016-10-29T12:29:55Z</time>
      </trkpt>
      <trkpt lat="43.40671" lon="5.46013">
        <ele>605</ele>
        <time>2016-10-29T12:30:36Z</time>
      </trkpt>
      <trkpt lat="43.4068" lon="5.46008">
        <ele>605</ele>
        <time>2016-10-29T12:30:46Z</time>
      </trkpt>
      <trkpt lat="43.40688" lon="5.46003">
        <ele>603</ele>
        <time>2016-10-29T12:30:55Z</time>
      </trkpt>
      <trkpt lat="43.40697" lon="5.45996">
        <ele>603</ele>
        <time>2016-10-29T12:31:05Z</time>
      </trkpt>
      <trkpt lat="43.40704" lon="5.45985">
        <ele>602</ele>
        <time>2016-10-29T12:31:15Z</time>
      </trkpt>
      <trkpt lat="43.4071" lon="5.45973">
        <ele>600</ele>
        <time>2016-10-29T12:31:25Z</time>
      </trkpt>
      <trkpt lat="43.40718" lon="5.45962">
        <ele>599</ele>
        <time>2016-10-29T12:31:35Z</time>
      </trkpt>
      <trkpt lat="43.40725" lon="5.45954">
        <ele>599</ele>
        <time>2016-10-29T12:31:44Z</time>
      </trkpt>
      <trkpt lat="43.40734" lon="5.45947">
        <ele>599</ele>
        <time>2016-10-29T12:31:53Z</time>
      </trkpt>
      <trkpt lat="43.40744" lon="5.45941">
        <ele>599</ele>
        <time>2016-10-29T12:32:02Z</time>
      </trkpt>
      <trkpt lat="43.40754" lon="5.45935">
        <ele>599</ele>
        <time>2016-10-29T12:32:11Z</time>
      </trkpt>
      <trkpt lat="43.40764" lon="5.45926">
        <ele>599</ele>
        <time>2016-10-29T12:32:21Z</time>
      </trkpt>
      <trkpt lat="43.40773" lon="5.45917">
        <ele>599</ele>
        <time>2016-10-29T12:32:31Z</time>
      </trkpt>
      <trkpt lat="43.40779" lon="5.45906">
        <ele>599</ele>
        <time>2016-10-29T12:32:40Z</time>
      </trkpt>
      <trkpt lat="43.40781" lon="5.45894">
        <ele>596</ele>
        <time>2016-10-29T12:32:49Z</time>
      </trkpt>
      <trkpt lat="43.40783" lon="5.45882">
        <ele>595</ele>
        <time>2016-10-29T12:32:58Z</time>
      </trkpt>
      <trkpt lat="43.40783" lon="5.45868">
        <ele>593</ele>
        <time>2016-10-29T12:33:07Z</time>
      </trkpt>
      <trkpt lat="43.40787" lon="5.45852">
        <ele>593</ele>
        <time>2016-10-29T12:33:16Z</time>
      </trkpt>
      <trkpt lat="43.40789" lon="5.45838">
        <ele>592</ele>
        <time>2016-10-29T12:33:25Z</time>
      </trkpt>
      <trkpt lat="43.40794" lon="5.45825">
        <ele>592</ele>
        <time>2016-10-29T12:33:34Z</time>
      </trkpt>
      <trkpt lat="43.40798" lon="5.45812">
        <ele>591</ele>
        <time>2016-10-29T12:33:43Z</time>
      </trkpt>
      <trkpt lat="43.40805" lon="5.45797">
        <ele>591</ele>
        <time>2016-10-29T12:33:53Z</time>
      </trkpt>
      <trkpt lat="43.40811" lon="5.45786">
        <ele>590</ele>
        <time>2016-10-29T12:34:02Z</time>
      </trkpt>
      <trkpt lat="43.40817" lon="5.45775">
        <ele>590</ele>
        <time>2016-10-29T12:34:11Z</time>
      </trkpt>
      <trkpt lat="43.40824" lon="5.45765">
        <ele>590</ele>
        <time>2016-10-29T12:34:20Z</time>
      </trkpt>
      <trkpt lat="43.40831" lon="5.45754">
        <ele>588</ele>
        <time>2016-10-29T12:34:29Z</time>
      </trkpt>
      <trkpt lat="43.40838" lon="5.45744">
        <ele>585</ele>
        <time>2016-10-29T12:34:38Z</time>
      </trkpt>
      <trkpt lat="43.40846" lon="5.45734">
        <ele>582</ele>
        <time>2016-10-29T12:34:47Z</time>
      </trkpt>
      <trkpt lat="43.40853" lon="5.45721">
        <ele>581</ele>
        <time>2016-10-29T12:34:57Z</time>
      </trkpt>
      <trkpt lat="43.40857" lon="5.45708">
        <ele>581</ele>
        <time>2016-10-29T12:35:06Z</time>
      </trkpt>
      <trkpt lat="43.4086" lon="5.45695">
        <ele>581</ele>
        <time>2016-10-29T12:35:15Z</time>
      </trkpt>
      <trkpt lat="43.40861" lon="5.45682">
        <ele>582</ele>
        <time>2016-10-29T12:35:24Z</time>
      </trkpt>
      <trkpt lat="43.40862" lon="5.45668">
        <ele>583</ele>
        <time>2016-10-29T12:35:33Z</time>
      </trkpt>
      <trkpt lat="43.40861" lon="5.45655">
        <ele>583</ele>
        <time>2016-10-29T12:35:42Z</time>
      </trkpt>
      <trkpt lat="43.40856" lon="5.45641">
        <ele>583</ele>
        <time>2016-10-29T12:35:52Z</time>
      </trkpt>
      <trkpt lat="43.4085" lon="5.4563">
        <ele>583</ele>
        <time>2016-10-29T12:36:01Z</time>
      </trkpt>
      <trkpt lat="43.40843" lon="5.45619">
        <ele>583</ele>
        <time>2016-10-29T12:36:11Z</time>
      </trkpt>
      <trkpt lat="43.40833" lon="5.45613">
        <ele>583</ele>
        <time>2016-10-29T12:36:20Z</time>
      </trkpt>
      <trkpt lat="43.40823" lon="5.45605">
        <ele>583</ele>
        <time>2016-10-29T12:36:29Z</time>
      </trkpt>
      <trkpt lat="43.40813" lon="5.45601">
        <ele>583</ele>
        <time>2016-10-29T12:36:38Z</time>
      </trkpt>
      <trkpt lat="43.40803" lon="5.45594">
        <ele>583</ele>
        <time>2016-10-29T12:36:48Z</time>
      </trkpt>
      <trkpt lat="43.40793" lon="5.45586">
        <ele>583</ele>
        <time>2016-10-29T12:36:58Z</time>
      </trkpt>
      <trkpt lat="43.40783" lon="5.45578">
        <ele>583</ele>
        <time>2016-10-29T12:37:08Z</time>
      </trkpt>
      <trkpt lat="43.40774" lon="5.4557">
        <ele>583</ele>
        <time>2016-10-29T12:37:17Z</time>
      </trkpt>
      <trkpt lat="43.40765" lon="5.4557">
        <ele>583</ele>
        <time>2016-10-29T12:37:27Z</time>
      </trkpt>
      <trkpt lat="43.40758" lon="5.45579">
        <ele>583</ele>
        <time>2016-10-29T12:37:37Z</time>
      </trkpt>
      <trkpt lat="43.4075" lon="5.45589">
        <ele>583</ele>
        <time>2016-10-29T12:37:47Z</time>
      </trkpt>
      <trkpt lat="43.40743" lon="5.456">
        <ele>583</ele>
        <time>2016-10-29T12:37:57Z</time>
      </trkpt>
      <trkpt lat="43.40737" lon="5.45612">
        <ele>583</ele>
        <time>2016-10-29T12:38:06Z</time>
      </trkpt>
      <trkpt lat="43.40729" lon="5.45623">
        <ele>582</ele>
        <time>2016-10-29T12:38:16Z</time>
      </trkpt>
      <trkpt lat="43.40721" lon="5.45634">
        <ele>582</ele>
        <time>2016-10-29T12:38:26Z</time>
      </trkpt>
      <trkpt lat="43.40712" lon="5.45642">
        <ele>582</ele>
        <time>2016-10-29T12:38:36Z</time>
      </trkpt>
      <trkpt lat="43.40702" lon="5.45649">
        <ele>581</ele>
        <time>2016-10-29T12:38:46Z</time>
      </trkpt>
      <trkpt lat="43.40694" lon="5.45658">
        <ele>579</ele>
        <time>2016-10-29T12:38:56Z</time>
      </trkpt>
      <trkpt lat="43.40685" lon="5.45666">
        <ele>577</ele>
        <time>2016-10-29T12:39:05Z</time>
      </trkpt>
      <trkpt lat="43.40675" lon="5.45675">
        <ele>576</ele>
        <time>2016-10-29T12:39:15Z</time>
      </trkpt>
      <trkpt lat="43.40665" lon="5.45685">
        <ele>573</ele>
        <time>2016-10-29T12:39:25Z</time>
      </trkpt>
      <trkpt lat="43.40658" lon="5.45695">
        <ele>573</ele>
        <time>2016-10-29T12:39:34Z</time>
      </trkpt>
      <trkpt lat="43.40652" lon="5.45709">
        <ele>573</ele>
        <time>2016-10-29T12:39:44Z</time>
      </trkpt>
      <trkpt lat="43.40646" lon="5.45721">
        <ele>573</ele>
        <time>2016-10-29T12:39:54Z</time>
      </trkpt>
      <trkpt lat="43.40641" lon="5.45733">
        <ele>573</ele>
        <time>2016-10-29T12:40:03Z</time>
      </trkpt>
      <trkpt lat="43.40638" lon="5.45747">
        <ele>573</ele>
        <time>2016-10-29T12:40:12Z</time>
      </trkpt>
      <trkpt lat="43.40636" lon="5.45758">
        <ele>573</ele>
        <time>2016-10-29T12:40:22Z</time>
      </trkpt>
      <trkpt lat="43.40636" lon="5.45769">
        <ele>573</ele>
        <time>2016-10-29T12:40:40Z</time>
      </trkpt>
      <trkpt lat="43.40637" lon="5.45769">
        <ele>576</ele>
        <time>2016-10-29T12:41:25Z</time>
      </trkpt>
      <trkpt lat="43.40638" lon="5.45769">
        <ele>576</ele>
        <time>2016-10-29T12:41:42Z</time>
      </trkpt>
      <trkpt lat="43.4064" lon="5.45769">
        <ele>576</ele>
        <time>2016-10-29T12:41:56Z</time>
      </trkpt>
      <trkpt lat="43.40638" lon="5.45768">
        <ele>576</ele>
        <time>2016-10-29T12:42:08Z</time>
      </trkpt>
      <trkpt lat="43.40634" lon="5.45772">
        <ele>576</ele>
        <time>2016-10-29T12:42:18Z</time>
      </trkpt>
      <trkpt lat="43.40626" lon="5.45782">
        <ele>576</ele>
        <time>2016-10-29T12:42:30Z</time>
      </trkpt>
      <trkpt lat="43.40626" lon="5.45783">
        <ele>573</ele>
        <time>2016-10-29T12:42:54Z</time>
      </trkpt>
      <trkpt lat="43.40619" lon="5.45793">
        <ele>573</ele>
        <time>2016-10-29T12:43:03Z</time>
      </trkpt>
      <trkpt lat="43.4061" lon="5.45803">
        <ele>572</ele>
        <time>2016-10-29T12:43:13Z</time>
      </trkpt>
      <trkpt lat="43.40604" lon="5.45816">
        <ele>571</ele>
        <time>2016-10-29T12:43:22Z</time>
      </trkpt>
      <trkpt lat="43.406" lon="5.45831">
        <ele>567</ele>
        <time>2016-10-29T12:43:32Z</time>
      </trkpt>
      <trkpt lat="43.40597" lon="5.45842">
        <ele>565</ele>
        <time>2016-10-29T12:43:42Z</time>
      </trkpt>
      <trkpt lat="43.40592" lon="5.45856">
        <ele>562</ele>
        <time>2016-10-29T12:43:52Z</time>
      </trkpt>
      <trkpt lat="43.40585" lon="5.45867">
        <ele>561</ele>
        <time>2016-10-29T12:44:02Z</time>
      </trkpt>
      <trkpt lat="43.40578" lon="5.45877">
        <ele>561</ele>
        <time>2016-10-29T12:44:11Z</time>
      </trkpt>
      <trkpt lat="43.4057" lon="5.45885">
        <ele>561</ele>
        <time>2016-10-29T12:44:21Z</time>
      </trkpt>
      <trkpt lat="43.40561" lon="5.45889">
        <ele>561</ele>
        <time>2016-10-29T12:44:31Z</time>
      </trkpt>
      <trkpt lat="43.40558" lon="5.45893">
        <ele>561</ele>
        <time>2016-10-29T12:45:00Z</time>
      </trkpt>
      <trkpt lat="43.40559" lon="5.45893">
        <ele>561</ele>
        <time>2016-10-29T12:45:23Z</time>
      </trkpt>
      <trkpt lat="43.40559" lon="5.45894">
        <ele>553</ele>
        <time>2016-10-29T12:45:40Z</time>
      </trkpt>
      <trkpt lat="43.40551" lon="5.45905">
        <ele>554</ele>
        <time>2016-10-29T12:45:50Z</time>
      </trkpt>
      <trkpt lat="43.40549" lon="5.45919">
        <ele>555</ele>
        <time>2016-10-29T12:45:59Z</time>
      </trkpt>
      <trkpt lat="43.40548" lon="5.45932">
        <ele>555</ele>
        <time>2016-10-29T12:46:08Z</time>
      </trkpt>
      <trkpt lat="43.40544" lon="5.45947">
        <ele>555</ele>
        <time>2016-10-29T12:46:18Z</time>
      </trkpt>
      <trkpt lat="43.40539" lon="5.45943">
        <ele>555</ele>
        <time>2016-10-29T12:46:28Z</time>
      </trkpt>
      <trkpt lat="43.40542" lon="5.45928">
        <ele>553</ele>
        <time>2016-10-29T12:46:39Z</time>
      </trkpt>
      <trkpt lat="43.40541" lon="5.45913">
        <ele>551</ele>
        <time>2016-10-29T12:46:48Z</time>
      </trkpt>
      <trkpt lat="43.40538" lon="5.45896">
        <ele>548</ele>
        <time>2016-10-29T12:46:58Z</time>
      </trkpt>
      <trkpt lat="43.40541" lon="5.45881">
        <ele>547</ele>
        <time>2016-10-29T12:47:08Z</time>
      </trkpt>
      <trkpt lat="43.4055" lon="5.45874">
        <ele>547</ele>
        <time>2016-10-29T12:47:18Z</time>
      </trkpt>
      <trkpt lat="43.4056" lon="5.45869">
        <ele>547</ele>
        <time>2016-10-29T12:47:27Z</time>
      </trkpt>
      <trkpt lat="43.40568" lon="5.45858">
        <ele>547</ele>
        <time>2016-10-29T12:47:38Z</time>
      </trkpt>
      <trkpt lat="43.40574" lon="5.45844">
        <ele>547</ele>
        <time>2016-10-29T12:47:48Z</time>
      </trkpt>
      <trkpt lat="43.40575" lon="5.45826">
        <ele>547</ele>
        <time>2016-10-29T12:47:58Z</time>
      </trkpt>
      <trkpt lat="43.40571" lon="5.45811">
        <ele>544</ele>
        <time>2016-10-29T12:48:08Z</time>
      </trkpt>
      <trkpt lat="43.40572" lon="5.45795">
        <ele>543</ele>
        <time>2016-10-29T12:48:18Z</time>
      </trkpt>
      <trkpt lat="43.40579" lon="5.45782">
        <ele>543</ele>
        <time>2016-10-29T12:48:28Z</time>
      </trkpt>
      <trkpt lat="43.40588" lon="5.4577">
        <ele>543</ele>
        <time>2016-10-29T12:48:38Z</time>
      </trkpt>
      <trkpt lat="43.40593" lon="5.45757">
        <ele>543</ele>
        <time>2016-10-29T12:48:47Z</time>
      </trkpt>
      <trkpt lat="43.40594" lon="5.45741">
        <ele>542</ele>
        <time>2016-10-29T12:48:56Z</time>
      </trkpt>
      <trkpt lat="43.40598" lon="5.45725">
        <ele>542</ele>
        <time>2016-10-29T12:49:06Z</time>
      </trkpt>
      <trkpt lat="43.40601" lon="5.4571">
        <ele>542</ele>
        <time>2016-10-29T12:49:15Z</time>
      </trkpt>
      <trkpt lat="43.40602" lon="5.45695">
        <ele>539</ele>
        <time>2016-10-29T12:49:24Z</time>
      </trkpt>
      <trkpt lat="43.40602" lon="5.45679">
        <ele>537</ele>
        <time>2016-10-29T12:49:33Z</time>
      </trkpt>
      <trkpt lat="43.40602" lon="5.45663">
        <ele>535</ele>
        <time>2016-10-29T12:49:42Z</time>
      </trkpt>
      <trkpt lat="43.40601" lon="5.45645">
        <ele>533</ele>
        <time>2016-10-29T12:49:52Z</time>
      </trkpt>
      <trkpt lat="43.40601" lon="5.45627">
        <ele>532</ele>
        <time>2016-10-29T12:50:02Z</time>
      </trkpt>
      <trkpt lat="43.4061" lon="5.45614">
        <ele>532</ele>
        <time>2016-10-29T12:50:13Z</time>
      </trkpt>
      <trkpt lat="43.40622" lon="5.45609">
        <ele>532</ele>
        <time>2016-10-29T12:50:23Z</time>
      </trkpt>
      <trkpt lat="43.40635" lon="5.45606">
        <ele>532</ele>
        <time>2016-10-29T12:50:34Z</time>
      </trkpt>
      <trkpt lat="43.40645" lon="5.456">
        <ele>532</ele>
        <time>2016-10-29T12:50:43Z</time>
      </trkpt>
      <trkpt lat="43.40657" lon="5.4559">
        <ele>532</ele>
        <time>2016-10-29T12:50:54Z</time>
      </trkpt>
      <trkpt lat="43.40665" lon="5.45578">
        <ele>530</ele>
        <time>2016-10-29T12:51:03Z</time>
      </trkpt>
      <trkpt lat="43.40672" lon="5.45564">
        <ele>530</ele>
        <time>2016-10-29T12:51:13Z</time>
      </trkpt>
      <trkpt lat="43.40675" lon="5.45547">
        <ele>530</ele>
        <time>2016-10-29T12:51:23Z</time>
      </trkpt>
      <trkpt lat="43.40677" lon="5.4553">
        <ele>530</ele>
        <time>2016-10-29T12:51:33Z</time>
      </trkpt>
      <trkpt lat="43.40678" lon="5.45513">
        <ele>528</ele>
        <time>2016-10-29T12:51:43Z</time>
      </trkpt>
      <trkpt lat="43.40677" lon="5.455">
        <ele>528</ele>
        <time>2016-10-29T12:51:53Z</time>
      </trkpt>
      <trkpt lat="43.40673" lon="5.45484">
        <ele>528</ele>
        <time>2016-10-29T12:52:03Z</time>
      </trkpt>
      <trkpt lat="43.4067" lon="5.45468">
        <ele>525</ele>
        <time>2016-10-29T12:52:13Z</time>
      </trkpt>
      <trkpt lat="43.40668" lon="5.45452">
        <ele>525</ele>
        <time>2016-10-29T12:52:23Z</time>
      </trkpt>
      <trkpt lat="43.40665" lon="5.45436">
        <ele>524</ele>
        <time>2016-10-29T12:52:33Z</time>
      </trkpt>
      <trkpt lat="43.40662" lon="5.45421">
        <ele>523</ele>
        <time>2016-10-29T12:52:42Z</time>
      </trkpt>
      <trkpt lat="43.40657" lon="5.45405">
        <ele>522</ele>
        <time>2016-10-29T12:52:52Z</time>
      </trkpt>
      <trkpt lat="43.40652" lon="5.45391">
        <ele>520</ele>
        <time>2016-10-29T12:53:02Z</time>
      </trkpt>
      <trkpt lat="43.40647" lon="5.45376">
        <ele>520</ele>
        <time>2016-10-29T12:53:12Z</time>
      </trkpt>
      <trkpt lat="43.40643" lon="5.45363">
        <ele>520</ele>
        <time>2016-10-29T12:53:21Z</time>
      </trkpt>
      <trkpt lat="43.40636" lon="5.45348">
        <ele>520</ele>
        <time>2016-10-29T12:53:31Z</time>
      </trkpt>
      <trkpt lat="43.40627" lon="5.45335">
        <ele>520</ele>
        <time>2016-10-29T12:53:41Z</time>
      </trkpt>
      <trkpt lat="43.40619" lon="5.45324">
        <ele>519</ele>
        <time>2016-10-29T12:53:50Z</time>
      </trkpt>
      <trkpt lat="43.40609" lon="5.4531">
        <ele>519</ele>
        <time>2016-10-29T12:54:01Z</time>
      </trkpt>
      <trkpt lat="43.40604" lon="5.45298">
        <ele>519</ele>
        <time>2016-10-29T12:54:10Z</time>
      </trkpt>
      <trkpt lat="43.40603" lon="5.45284">
        <ele>518</ele>
        <time>2016-10-29T12:54:19Z</time>
      </trkpt>
      <trkpt lat="43.40607" lon="5.45271">
        <ele>518</ele>
        <time>2016-10-29T12:54:28Z</time>
      </trkpt>
      <trkpt lat="43.40611" lon="5.45257">
        <ele>518</ele>
        <time>2016-10-29T12:54:38Z</time>
      </trkpt>
      <trkpt lat="43.40617" lon="5.45241">
        <ele>517</ele>
        <time>2016-10-29T12:54:48Z</time>
      </trkpt>
      <trkpt lat="43.40622" lon="5.45225">
        <ele>517</ele>
        <time>2016-10-29T12:54:58Z</time>
      </trkpt>
      <trkpt lat="43.40627" lon="5.4521">
        <ele>516</ele>
        <time>2016-10-29T12:55:08Z</time>
      </trkpt>
      <trkpt lat="43.40631" lon="5.45194">
        <ele>516</ele>
        <time>2016-10-29T12:55:18Z</time>
      </trkpt>
      <trkpt lat="43.40632" lon="5.45176">
        <ele>513</ele>
        <time>2016-10-29T12:55:28Z</time>
      </trkpt>
      <trkpt lat="43.4063" lon="5.45159">
        <ele>509</ele>
        <time>2016-10-29T12:55:38Z</time>
      </trkpt>
      <trkpt lat="43.40633" lon="5.45142">
        <ele>506</ele>
        <time>2016-10-29T12:55:49Z</time>
      </trkpt>
      <trkpt lat="43.40641" lon="5.45129">
        <ele>504</ele>
        <time>2016-10-29T12:55:59Z</time>
      </trkpt>
      <trkpt lat="43.40651" lon="5.45123">
        <ele>502</ele>
        <time>2016-10-29T12:56:08Z</time>
      </trkpt>
      <trkpt lat="43.40664" lon="5.4512">
        <ele>501</ele>
        <time>2016-10-29T12:56:19Z</time>
      </trkpt>
      <trkpt lat="43.40675" lon="5.45114">
        <ele>499</ele>
        <time>2016-10-29T12:56:28Z</time>
      </trkpt>
      <trkpt lat="43.40686" lon="5.45108">
        <ele>498</ele>
        <time>2016-10-29T12:56:38Z</time>
      </trkpt>
      <trkpt lat="43.40699" lon="5.451">
        <ele>496</ele>
        <time>2016-10-29T12:56:49Z</time>
      </trkpt>
      <trkpt lat="43.40709" lon="5.45093">
        <ele>495</ele>
        <time>2016-10-29T12:56:58Z</time>
      </trkpt>
      <trkpt lat="43.40719" lon="5.45084">
        <ele>495</ele>
        <time>2016-10-29T12:57:08Z</time>
      </trkpt>
      <trkpt lat="43.4073" lon="5.45074">
        <ele>495</ele>
        <time>2016-10-29T12:57:19Z</time>
      </trkpt>
      <trkpt lat="43.40739" lon="5.45064">
        <ele>495</ele>
        <time>2016-10-29T12:57:29Z</time>
      </trkpt>
      <trkpt lat="43.40747" lon="5.45052">
        <ele>495</ele>
        <time>2016-10-29T12:57:39Z</time>
      </trkpt>
      <trkpt lat="43.40755" lon="5.4504">
        <ele>495</ele>
        <time>2016-10-29T12:57:49Z</time>
      </trkpt>
      <trkpt lat="43.40763" lon="5.4503">
        <ele>495</ele>
        <time>2016-10-29T12:57:58Z</time>
      </trkpt>
      <trkpt lat="43.40771" lon="5.45019">
        <ele>495</ele>
        <time>2016-10-29T12:58:08Z</time>
      </trkpt>
      <trkpt lat="43.40778" lon="5.45006">
        <ele>494</ele>
        <time>2016-10-29T12:58:18Z</time>
      </trkpt>
      <trkpt lat="43.40785" lon="5.44992">
        <ele>494</ele>
        <time>2016-10-29T12:58:28Z</time>
      </trkpt>
      <trkpt lat="43.40791" lon="5.44978">
        <ele>493</ele>
        <time>2016-10-29T12:58:38Z</time>
      </trkpt>
      <trkpt lat="43.40796" lon="5.4496">
        <ele>489</ele>
        <time>2016-10-29T12:58:48Z</time>
      </trkpt>
      <trkpt lat="43.40797" lon="5.44944">
        <ele>487</ele>
        <time>2016-10-29T12:58:58Z</time>
      </trkpt>
      <trkpt lat="43.40798" lon="5.44927">
        <ele>484</ele>
        <time>2016-10-29T12:59:08Z</time>
      </trkpt>
      <trkpt lat="43.408" lon="5.4491">
        <ele>484</ele>
        <time>2016-10-29T12:59:18Z</time>
      </trkpt>
      <trkpt lat="43.40804" lon="5.44893">
        <ele>482</ele>
        <time>2016-10-29T12:59:28Z</time>
      </trkpt>
      <trkpt lat="43.40809" lon="5.44877">
        <ele>480</ele>
        <time>2016-10-29T12:59:38Z</time>
      </trkpt>
      <trkpt lat="43.40813" lon="5.4486">
        <ele>478</ele>
        <time>2016-10-29T12:59:48Z</time>
      </trkpt>
      <trkpt lat="43.40815" lon="5.44842">
        <ele>476</ele>
        <time>2016-10-29T12:59:58Z</time>
      </trkpt>
      <trkpt lat="43.40818" lon="5.44825">
        <ele>476</ele>
        <time>2016-10-29T13:00:08Z</time>
      </trkpt>
      <trkpt lat="43.40821" lon="5.44808">
        <ele>475</ele>
        <time>2016-10-29T13:00:18Z</time>
      </trkpt>
      <trkpt lat="43.40823" lon="5.44798">
        <ele>473</ele>
        <time>2016-10-29T13:00:28Z</time>
      </trkpt>
      <trkpt lat="43.40824" lon="5.44782">
        <ele>471</ele>
        <time>2016-10-29T13:00:38Z</time>
      </trkpt>
      <trkpt lat="43.40823" lon="5.44764">
        <ele>471</ele>
        <time>2016-10-29T13:00:48Z</time>
      </trkpt>
      <trkpt lat="43.40821" lon="5.44745">
        <ele>470</ele>
        <time>2016-10-29T13:00:58Z</time>
      </trkpt>
      <trkpt lat="43.40818" lon="5.44728">
        <ele>469</ele>
        <time>2016-10-29T13:01:08Z</time>
      </trkpt>
      <trkpt lat="43.40816" lon="5.4471">
        <ele>468</ele>
        <time>2016-10-29T13:01:18Z</time>
      </trkpt>
      <trkpt lat="43.40816" lon="5.44693">
        <ele>468</ele>
        <time>2016-10-29T13:01:28Z</time>
      </trkpt>
      <trkpt lat="43.40821" lon="5.44683">
        <ele>467</ele>
        <time>2016-10-29T13:01:45Z</time>
      </trkpt>
      <trkpt lat="43.40829" lon="5.44674">
        <ele>467</ele>
        <time>2016-10-29T13:01:55Z</time>
      </trkpt>
      <trkpt lat="43.40838" lon="5.44664">
        <ele>466</ele>
        <time>2016-10-29T13:02:05Z</time>
      </trkpt>
      <trkpt lat="43.40846" lon="5.44653">
        <ele>465</ele>
        <time>2016-10-29T13:02:14Z</time>
      </trkpt>
      <trkpt lat="43.40853" lon="5.44641">
        <ele>464</ele>
        <time>2016-10-29T13:02:23Z</time>
      </trkpt>
      <trkpt lat="43.4086" lon="5.44628">
        <ele>463</ele>
        <time>2016-10-29T13:02:33Z</time>
      </trkpt>
      <trkpt lat="43.40866" lon="5.44611">
        <ele>463</ele>
        <time>2016-10-29T13:02:43Z</time>
      </trkpt>
      <trkpt lat="43.4087" lon="5.44593">
        <ele>461</ele>
        <time>2016-10-29T13:02:53Z</time>
      </trkpt>
      <trkpt lat="43.40872" lon="5.44576">
        <ele>460</ele>
        <time>2016-10-29T13:03:03Z</time>
      </trkpt>
      <trkpt lat="43.40873" lon="5.44559">
        <ele>460</ele>
        <time>2016-10-29T13:03:13Z</time>
      </trkpt>
      <trkpt lat="43.40874" lon="5.44543">
        <ele>458</ele>
        <time>2016-10-29T13:03:23Z</time>
      </trkpt>
      <trkpt lat="43.40877" lon="5.4453">
        <ele>457</ele>
        <time>2016-10-29T13:03:32Z</time>
      </trkpt>
      <trkpt lat="43.40884" lon="5.44515">
        <ele>454</ele>
        <time>2016-10-29T13:03:42Z</time>
      </trkpt>
      <trkpt lat="43.40889" lon="5.44501">
        <ele>452</ele>
        <time>2016-10-29T13:03:51Z</time>
      </trkpt>
      <trkpt lat="43.40893" lon="5.44487">
        <ele>451</ele>
        <time>2016-10-29T13:04:00Z</time>
      </trkpt>
      <trkpt lat="43.40897" lon="5.44473">
        <ele>449</ele>
        <time>2016-10-29T13:04:09Z</time>
      </trkpt>
      <trkpt lat="43.40901" lon="5.4446">
        <ele>449</ele>
        <time>2016-10-29T13:04:18Z</time>
      </trkpt>
      <trkpt lat="43.40903" lon="5.44444">
        <ele>447</ele>
        <time>2016-10-29T13:04:28Z</time>
      </trkpt>
      <trkpt lat="43.40905" lon="5.44429">
        <ele>446</ele>
        <time>2016-10-29T13:04:38Z</time>
      </trkpt>
      <trkpt lat="43.40906" lon="5.44412">
        <ele>445</ele>
        <time>2016-10-29T13:04:48Z</time>
      </trkpt>
      <trkpt lat="43.40908" lon="5.44396">
        <ele>445</ele>
        <time>2016-10-29T13:04:58Z</time>
      </trkpt>
      <trkpt lat="43.40907" lon="5.44379">
        <ele>442</ele>
        <time>2016-10-29T13:05:08Z</time>
      </trkpt>
      <trkpt lat="43.40902" lon="5.44364">
        <ele>442</ele>
        <time>2016-10-29T13:05:18Z</time>
      </trkpt>
      <trkpt lat="43.40897" lon="5.44353">
        <ele>440</ele>
        <time>2016-10-29T13:05:28Z</time>
      </trkpt>
      <trkpt lat="43.40889" lon="5.44338">
        <ele>435</ele>
        <time>2016-10-29T13:05:38Z</time>
      </trkpt>
      <trkpt lat="43.40885" lon="5.44321">
        <ele>434</ele>
        <time>2016-10-29T13:05:48Z</time>
      </trkpt>
      <trkpt lat="43.40881" lon="5.44304">
        <ele>434</ele>
        <time>2016-10-29T13:05:58Z</time>
      </trkpt>
      <trkpt lat="43.40882" lon="5.44287">
        <ele>434</ele>
        <time>2016-10-29T13:06:08Z</time>
      </trkpt>
      <trkpt lat="43.4088" lon="5.4427">
        <ele>434</ele>
        <time>2016-10-29T13:06:18Z</time>
      </trkpt>
      <trkpt lat="43.40875" lon="5.44255">
        <ele>434</ele>
        <time>2016-10-29T13:06:28Z</time>
      </trkpt>
      <trkpt lat="43.40872" lon="5.44237">
        <ele>434</ele>
        <time>2016-10-29T13:06:38Z</time>
      </trkpt>
      <trkpt lat="43.40868" lon="5.44221">
        <ele>434</ele>
        <time>2016-10-29T13:06:48Z</time>
      </trkpt>
      <trkpt lat="43.40864" lon="5.44207">
        <ele>434</ele>
        <time>2016-10-29T13:06:59Z</time>
      </trkpt>
      <trkpt lat="43.4086" lon="5.44192">
        <ele>432</ele>
        <time>2016-10-29T13:07:08Z</time>
      </trkpt>
      <trkpt lat="43.40858" lon="5.44176">
        <ele>431</ele>
        <time>2016-10-29T13:07:18Z</time>
      </trkpt>
      <trkpt lat="43.40862" lon="5.4416">
        <ele>428</ele>
        <time>2016-10-29T13:07:28Z</time>
      </trkpt>
      <trkpt lat="43.40865" lon="5.44144">
        <ele>426</ele>
        <time>2016-10-29T13:07:38Z</time>
      </trkpt>
      <trkpt lat="43.40864" lon="5.44128">
        <ele>427</ele>
        <time>2016-10-29T13:07:48Z</time>
      </trkpt>
      <trkpt lat="43.40865" lon="5.44109">
        <ele>428</ele>
        <time>2016-10-29T13:07:58Z</time>
      </trkpt>
      <trkpt lat="43.40866" lon="5.44094">
        <ele>428</ele>
        <time>2016-10-29T13:08:08Z</time>
      </trkpt>
      <trkpt lat="43.40864" lon="5.44077">
        <ele>428</ele>
        <time>2016-10-29T13:08:18Z</time>
      </trkpt>
      <trkpt lat="43.4086" lon="5.4406">
        <ele>424</ele>
        <time>2016-10-29T13:08:28Z</time>
      </trkpt>
      <trkpt lat="43.40859" lon="5.44043">
        <ele>421</ele>
        <time>2016-10-29T13:08:38Z</time>
      </trkpt>
      <trkpt lat="43.40861" lon="5.44028">
        <ele>421</ele>
        <time>2016-10-29T13:08:48Z</time>
      </trkpt>
      <trkpt lat="43.40868" lon="5.44014">
        <ele>421</ele>
        <time>2016-10-29T13:08:59Z</time>
      </trkpt>
      <trkpt lat="43.40874" lon="5.44001">
        <ele>420</ele>
        <time>2016-10-29T13:09:08Z</time>
      </trkpt>
      <trkpt lat="43.40879" lon="5.43988">
        <ele>418</ele>
        <time>2016-10-29T13:09:18Z</time>
      </trkpt>
      <trkpt lat="43.40878" lon="5.43972">
        <ele>418</ele>
        <time>2016-10-29T13:09:29Z</time>
      </trkpt>
      <trkpt lat="43.40877" lon="5.43957">
        <ele>418</ele>
        <time>2016-10-29T13:09:38Z</time>
      </trkpt>
      <trkpt lat="43.40874" lon="5.43941">
        <ele>418</ele>
        <time>2016-10-29T13:09:48Z</time>
      </trkpt>
      <trkpt lat="43.40864" lon="5.4393">
        <ele>418</ele>
        <time>2016-10-29T13:09:58Z</time>
      </trkpt>
      <trkpt lat="43.40854" lon="5.43919">
        <ele>418</ele>
        <time>2016-10-29T13:10:08Z</time>
      </trkpt>
      <trkpt lat="43.40846" lon="5.43907">
        <ele>417</ele>
        <time>2016-10-29T13:10:18Z</time>
      </trkpt>
      <trkpt lat="43.4084" lon="5.43892">
        <ele>414</ele>
        <time>2016-10-29T13:10:29Z</time>
      </trkpt>
      <trkpt lat="43.40839" lon="5.43877">
        <ele>414</ele>
        <time>2016-10-29T13:10:39Z</time>
      </trkpt>
      <trkpt lat="43.40849" lon="5.43868">
        <ele>409</ele>
        <time>2016-10-29T13:10:48Z</time>
      </trkpt>
      <trkpt lat="43.40859" lon="5.43865">
        <ele>407</ele>
        <time>2016-10-29T13:10:58Z</time>
      </trkpt>
      <trkpt lat="43.4087" lon="5.43861">
        <ele>404</ele>
        <time>2016-10-29T13:11:08Z</time>
      </trkpt>
      <trkpt lat="43.4088" lon="5.43848">
        <ele>404</ele>
        <time>2016-10-29T13:11:18Z</time>
      </trkpt>
      <trkpt lat="43.40886" lon="5.43832">
        <ele>404</ele>
        <time>2016-10-29T13:11:28Z</time>
      </trkpt>
      <trkpt lat="43.40885" lon="5.43815">
        <ele>404</ele>
        <time>2016-10-29T13:11:38Z</time>
      </trkpt>
      <trkpt lat="43.40883" lon="5.438">
        <ele>404</ele>
        <time>2016-10-29T13:11:48Z</time>
      </trkpt>
      <trkpt lat="43.40878" lon="5.43785">
        <ele>404</ele>
        <time>2016-10-29T13:11:58Z</time>
      </trkpt>
      <trkpt lat="43.40873" lon="5.43769">
        <ele>404</ele>
        <time>2016-10-29T13:12:09Z</time>
      </trkpt>
      <trkpt lat="43.40868" lon="5.43756">
        <ele>404</ele>
        <time>2016-10-29T13:12:18Z</time>
      </trkpt>
      <trkpt lat="43.4086" lon="5.43744">
        <ele>404</ele>
        <time>2016-10-29T13:12:28Z</time>
      </trkpt>
      <trkpt lat="43.40853" lon="5.43727">
        <ele>398</ele>
        <time>2016-10-29T13:12:38Z</time>
      </trkpt>
      <trkpt lat="43.40851" lon="5.4371">
        <ele>397</ele>
        <time>2016-10-29T13:12:48Z</time>
      </trkpt>
      <trkpt lat="43.4085" lon="5.43694">
        <ele>396</ele>
        <time>2016-10-29T13:12:58Z</time>
      </trkpt>
      <trkpt lat="43.40849" lon="5.43677">
        <ele>395</ele>
        <time>2016-10-29T13:13:08Z</time>
      </trkpt>
      <trkpt lat="43.40844" lon="5.43664">
        <ele>393</ele>
        <time>2016-10-29T13:13:19Z</time>
      </trkpt>
      <trkpt lat="43.40839" lon="5.43647">
        <ele>392</ele>
        <time>2016-10-29T13:13:29Z</time>
      </trkpt>
      <trkpt lat="43.40834" lon="5.43633">
        <ele>392</ele>
        <time>2016-10-29T13:13:38Z</time>
      </trkpt>
      <trkpt lat="43.40832" lon="5.43617">
        <ele>392</ele>
        <time>2016-10-29T13:13:49Z</time>
      </trkpt>
      <trkpt lat="43.40836" lon="5.43602">
        <ele>391</ele>
        <time>2016-10-29T13:13:58Z</time>
      </trkpt>
      <trkpt lat="43.40847" lon="5.43589">
        <ele>389</ele>
        <time>2016-10-29T13:14:08Z</time>
      </trkpt>
      <trkpt lat="43.40859" lon="5.43579">
        <ele>383</ele>
        <time>2016-10-29T13:14:19Z</time>
      </trkpt>
      <trkpt lat="43.4087" lon="5.43572">
        <ele>381</ele>
        <time>2016-10-29T13:14:28Z</time>
      </trkpt>
      <trkpt lat="43.40874" lon="5.43557">
        <ele>380</ele>
        <time>2016-10-29T13:14:39Z</time>
      </trkpt>
      <trkpt lat="43.4087" lon="5.43547">
        <ele>382</ele>
        <time>2016-10-29T13:14:48Z</time>
      </trkpt>
      <trkpt lat="43.40863" lon="5.43534">
        <ele>385</ele>
        <time>2016-10-29T13:14:59Z</time>
      </trkpt>
      <trkpt lat="43.40861" lon="5.43516">
        <ele>385</ele>
        <time>2016-10-29T13:15:08Z</time>
      </trkpt>
      <trkpt lat="43.40856" lon="5.43502">
        <ele>385</ele>
        <time>2016-10-29T13:15:18Z</time>
      </trkpt>
      <trkpt lat="43.40852" lon="5.43488">
        <ele>385</ele>
        <time>2016-10-29T13:15:28Z</time>
      </trkpt>
      <trkpt lat="43.40845" lon="5.43488">
        <ele>380</ele>
        <time>2016-10-29T13:15:38Z</time>
      </trkpt>
      <trkpt lat="43.40835" lon="5.43485">
        <ele>377</ele>
        <time>2016-10-29T13:15:48Z</time>
      </trkpt>
      <trkpt lat="43.40825" lon="5.43481">
        <ele>372</ele>
        <time>2016-10-29T13:15:58Z</time>
      </trkpt>
      <trkpt lat="43.40812" lon="5.43476">
        <ele>373</ele>
        <time>2016-10-29T13:16:08Z</time>
      </trkpt>
      <trkpt lat="43.40801" lon="5.43474">
        <ele>373</ele>
        <time>2016-10-29T13:16:18Z</time>
      </trkpt>
      <trkpt lat="43.40788" lon="5.43468">
        <ele>373</ele>
        <time>2016-10-29T13:16:28Z</time>
      </trkpt>
      <trkpt lat="43.40777" lon="5.43463">
        <ele>373</ele>
        <time>2016-10-29T13:16:38Z</time>
      </trkpt>
      <trkpt lat="43.40765" lon="5.43452">
        <ele>377</ele>
        <time>2016-10-29T13:16:48Z</time>
      </trkpt>
      <trkpt lat="43.40757" lon="5.43437">
        <ele>381</ele>
        <time>2016-10-29T13:16:58Z</time>
      </trkpt>
      <trkpt lat="43.40754" lon="5.43417">
        <ele>381</ele>
        <time>2016-10-29T13:17:08Z</time>
      </trkpt>
      <trkpt lat="43.40752" lon="5.43398">
        <ele>379</ele>
        <time>2016-10-29T13:17:19Z</time>
      </trkpt>
      <trkpt lat="43.40746" lon="5.43385">
        <ele>378</ele>
        <time>2016-10-29T13:17:28Z</time>
      </trkpt>
      <trkpt lat="43.40745" lon="5.43366">
        <ele>379</ele>
        <time>2016-10-29T13:17:38Z</time>
      </trkpt>
      <trkpt lat="43.4074" lon="5.43347">
        <ele>378</ele>
        <time>2016-10-29T13:17:48Z</time>
      </trkpt>
      <trkpt lat="43.40741" lon="5.43326">
        <ele>376</ele>
        <time>2016-10-29T13:17:58Z</time>
      </trkpt>
      <trkpt lat="43.40746" lon="5.43309">
        <ele>374</ele>
        <time>2016-10-29T13:18:08Z</time>
      </trkpt>
      <trkpt lat="43.40758" lon="5.43295">
        <ele>364</ele>
        <time>2016-10-29T13:18:18Z</time>
      </trkpt>
      <trkpt lat="43.40773" lon="5.43288">
        <ele>358</ele>
        <time>2016-10-29T13:18:28Z</time>
      </trkpt>
      <trkpt lat="43.40784" lon="5.43286">
        <ele>356</ele>
        <time>2016-10-29T13:18:38Z</time>
      </trkpt>
      <trkpt lat="43.40797" lon="5.43286">
        <ele>356</ele>
        <time>2016-10-29T13:18:48Z</time>
      </trkpt>
      <trkpt lat="43.4081" lon="5.43283">
        <ele>356</ele>
        <time>2016-10-29T13:18:58Z</time>
      </trkpt>
      <trkpt lat="43.40819" lon="5.43273">
        <ele>356</ele>
        <time>2016-10-29T13:19:08Z</time>
      </trkpt>
      <trkpt lat="43.40831" lon="5.43262">
        <ele>354</ele>
        <time>2016-10-29T13:19:19Z</time>
      </trkpt>
      <trkpt lat="43.40843" lon="5.43256">
        <ele>353</ele>
        <time>2016-10-29T13:19:28Z</time>
      </trkpt>
      <trkpt lat="43.40854" lon="5.43248">
        <ele>352</ele>
        <time>2016-10-29T13:19:38Z</time>
      </trkpt>
      <trkpt lat="43.40861" lon="5.43237">
        <ele>351</ele>
        <time>2016-10-29T13:19:48Z</time>
      </trkpt>
      <trkpt lat="43.40859" lon="5.43224">
        <ele>351</ele>
        <time>2016-10-29T13:19:58Z</time>
      </trkpt>
      <trkpt lat="43.40855" lon="5.43208">
        <ele>353</ele>
        <time>2016-10-29T13:20:09Z</time>
      </trkpt>
      <trkpt lat="43.40852" lon="5.43194">
        <ele>356</ele>
        <time>2016-10-29T13:20:18Z</time>
      </trkpt>
      <trkpt lat="43.40851" lon="5.43175">
        <ele>356</ele>
        <time>2016-10-29T13:20:28Z</time>
      </trkpt>
      <trkpt lat="43.40848" lon="5.4316">
        <ele>356</ele>
        <time>2016-10-29T13:20:38Z</time>
      </trkpt>
      <trkpt lat="43.40844" lon="5.43143">
        <ele>356</ele>
        <time>2016-10-29T13:20:48Z</time>
      </trkpt>
      <trkpt lat="43.40849" lon="5.43122">
        <ele>356</ele>
        <time>2016-10-29T13:20:58Z</time>
      </trkpt>
      <trkpt lat="43.40868" lon="5.43107">
        <ele>347</ele>
        <time>2016-10-29T13:21:08Z</time>
      </trkpt>
      <trkpt lat="43.40883" lon="5.43101">
        <ele>340</ele>
        <time>2016-10-29T13:21:18Z</time>
      </trkpt>
      <trkpt lat="43.40897" lon="5.43097">
        <ele>338</ele>
        <time>2016-10-29T13:21:28Z</time>
      </trkpt>
      <trkpt lat="43.4091" lon="5.43095">
        <ele>338</ele>
        <time>2016-10-29T13:21:38Z</time>
      </trkpt>
      <trkpt lat="43.40922" lon="5.43095">
        <ele>338</ele>
        <time>2016-10-29T13:21:48Z</time>
      </trkpt>
      <trkpt lat="43.40934" lon="5.43093">
        <ele>338</ele>
        <time>2016-10-29T13:21:58Z</time>
      </trkpt>
      <trkpt lat="43.40947" lon="5.43096">
        <ele>338</ele>
        <time>2016-10-29T13:22:09Z</time>
      </trkpt>
      <trkpt lat="43.40958" lon="5.43097">
        <ele>343</ele>
        <time>2016-10-29T13:22:18Z</time>
      </trkpt>
      <trkpt lat="43.40967" lon="5.43097">
        <ele>342</ele>
        <time>2016-10-29T13:22:29Z</time>
      </trkpt>
      <trkpt lat="43.40966" lon="5.43092">
        <ele>340</ele>
        <time>2016-10-29T13:22:38Z</time>
      </trkpt>
      <trkpt lat="43.40953" lon="5.43084">
        <ele>342</ele>
        <time>2016-10-29T13:22:48Z</time>
      </trkpt>
      <trkpt lat="43.40951" lon="5.43068">
        <ele>346</ele>
        <time>2016-10-29T13:22:58Z</time>
      </trkpt>
      <trkpt lat="43.40959" lon="5.43049">
        <ele>346</ele>
        <time>2016-10-29T13:23:08Z</time>
      </trkpt>
      <trkpt lat="43.40971" lon="5.43028">
        <ele>339</ele>
        <time>2016-10-29T13:23:18Z</time>
      </trkpt>
      <trkpt lat="43.40981" lon="5.43011">
        <ele>336</ele>
        <time>2016-10-29T13:23:28Z</time>
      </trkpt>
      <trkpt lat="43.40992" lon="5.42995">
        <ele>332</ele>
        <time>2016-10-29T13:23:38Z</time>
      </trkpt>
      <trkpt lat="43.41008" lon="5.42987">
        <ele>328</ele>
        <time>2016-10-29T13:23:48Z</time>
      </trkpt>
      <trkpt lat="43.41017" lon="5.42986">
        <ele>326</ele>
        <time>2016-10-29T13:23:58Z</time>
      </trkpt>
      <trkpt lat="43.41018" lon="5.42982">
        <ele>323</ele>
        <time>2016-10-29T13:24:10Z</time>
      </trkpt>
      <trkpt lat="43.41021" lon="5.42976">
        <ele>323</ele>
        <time>2016-10-29T13:24:19Z</time>
      </trkpt>
      <trkpt lat="43.41028" lon="5.42968">
        <ele>323</ele>
        <time>2016-10-29T13:24:28Z</time>
      </trkpt>
      <trkpt lat="43.41036" lon="5.42962">
        <ele>322</ele>
        <time>2016-10-29T13:24:38Z</time>
      </trkpt>
      <trkpt lat="43.41052" lon="5.42945">
        <ele>317</ele>
        <time>2016-10-29T13:24:53Z</time>
      </trkpt>
      <trkpt lat="43.41056" lon="5.42932">
        <ele>317</ele>
        <time>2016-10-29T13:25:04Z</time>
      </trkpt>
      <trkpt lat="43.41063" lon="5.4292">
        <ele>317</ele>
        <time>2016-10-29T13:25:13Z</time>
      </trkpt>
      <trkpt lat="43.4107" lon="5.42907">
        <ele>317</ele>
        <time>2016-10-29T13:25:23Z</time>
      </trkpt>
      <trkpt lat="43.41078" lon="5.42895">
        <ele>316</ele>
        <time>2016-10-29T13:25:34Z</time>
      </trkpt>
      <trkpt lat="43.41082" lon="5.42886">
        <ele>316</ele>
        <time>2016-10-29T13:25:43Z</time>
      </trkpt>
      <trkpt lat="43.41086" lon="5.42875">
        <ele>316</ele>
        <time>2016-10-29T13:25:53Z</time>
      </trkpt>
      <trkpt lat="43.41091" lon="5.4286">
        <ele>316</ele>
        <time>2016-10-29T13:26:12Z</time>
      </trkpt>
      <trkpt lat="43.41095" lon="5.42848">
        <ele>316</ele>
        <time>2016-10-29T13:26:25Z</time>
      </trkpt>
      <trkpt lat="43.41096" lon="5.42844">
        <ele>316</ele>
        <time>2016-10-29T13:26:34Z</time>
      </trkpt>
      <trkpt lat="43.41099" lon="5.42833">
        <ele>316</ele>
        <time>2016-10-29T13:26:43Z</time>
      </trkpt>
      <trkpt lat="43.41102" lon="5.42817">
        <ele>315</ele>
        <time>2016-10-29T13:26:53Z</time>
      </trkpt>
      <trkpt lat="43.41103" lon="5.428">
        <ele>315</ele>
        <time>2016-10-29T13:27:03Z</time>
      </trkpt>
      <trkpt lat="43.41103" lon="5.42782">
        <ele>315</ele>
        <time>2016-10-29T13:27:13Z</time>
      </trkpt>
      <trkpt lat="43.41102" lon="5.42766">
        <ele>315</ele>
        <time>2016-10-29T13:27:23Z</time>
      </trkpt>
      <trkpt lat="43.41103" lon="5.42748">
        <ele>315</ele>
        <time>2016-10-29T13:27:34Z</time>
      </trkpt>
      <trkpt lat="43.41104" lon="5.42732">
        <ele>315</ele>
        <time>2016-10-29T13:27:43Z</time>
      </trkpt>
      <trkpt lat="43.41103" lon="5.42714">
        <ele>314</ele>
        <time>2016-10-29T13:27:53Z</time>
      </trkpt>
      <trkpt lat="43.41102" lon="5.42698">
        <ele>314</ele>
        <time>2016-10-29T13:28:04Z</time>
      </trkpt>
      <trkpt lat="43.411" lon="5.42689">
        <ele>314</ele>
        <time>2016-10-29T13:28:13Z</time>
      </trkpt>
      <trkpt lat="43.41105" lon="5.42677">
        <ele>312</ele>
        <time>2016-10-29T13:28:30Z</time>
      </trkpt>
      <trkpt lat="43.41104" lon="5.42673">
        <ele>310</ele>
        <time>2016-10-29T13:28:46Z</time>
      </trkpt>
      <trkpt lat="43.41106" lon="5.42673">
        <ele>310</ele>
        <time>2016-10-29T13:28:56Z</time>
      </trkpt>
      <trkpt lat="43.41105" lon="5.42677">
        <ele>310</ele>
        <time>2016-10-29T13:29:05Z</time>
      </trkpt>
      <trkpt lat="43.41101" lon="5.4268">
        <ele>310</ele>
        <time>2016-10-29T13:29:25Z</time>
      </trkpt>
      <trkpt lat="43.41096" lon="5.42678">
        <ele>311</ele>
        <time>2016-10-29T13:29:35Z</time>
      </trkpt>
      <trkpt lat="43.41095" lon="5.42676">
        <ele>316</ele>
        <time>2016-10-29T13:29:45Z</time>
      </trkpt>
      <trkpt lat="43.41093" lon="5.42677">
        <ele>324</ele>
        <time>2016-10-29T13:30:23Z</time>
      </trkpt>
      <trkpt lat="43.41095" lon="5.4268">
        <ele>324</ele>
        <time>2016-10-29T13:30:33Z</time>
      </trkpt>
      <trkpt lat="43.41103" lon="5.42668">
        <ele>319</ele>
        <time>2016-10-29T13:30:44Z</time>
      </trkpt>
      <trkpt lat="43.41106" lon="5.42656">
        <ele>316</ele>
        <time>2016-10-29T13:30:53Z</time>
      </trkpt>
      <trkpt lat="43.41109" lon="5.42642">
        <ele>316</ele>
        <time>2016-10-29T13:31:04Z</time>
      </trkpt>
      <trkpt lat="43.41113" lon="5.42636">
        <ele>314</ele>
        <time>2016-10-29T13:31:18Z</time>
      </trkpt>
      <trkpt lat="43.41112" lon="5.42635">
        <ele>309</ele>
        <time>2016-10-29T13:31:34Z</time>
      </trkpt>
      <trkpt lat="43.41117" lon="5.42625">
        <ele>309</ele>
        <time>2016-10-29T13:31:44Z</time>
      </trkpt>
      <trkpt lat="43.41128" lon="5.42618">
        <ele>304</ele>
        <time>2016-10-29T13:31:53Z</time>
      </trkpt>
      <trkpt lat="43.41145" lon="5.42614">
        <ele>295</ele>
        <time>2016-10-29T13:32:04Z</time>
      </trkpt>
      <trkpt lat="43.41156" lon="5.42611">
        <ele>293</ele>
        <time>2016-10-29T13:32:13Z</time>
      </trkpt>
      <trkpt lat="43.41168" lon="5.42608">
        <ele>291</ele>
        <time>2016-10-29T13:32:24Z</time>
      </trkpt>
      <trkpt lat="43.41178" lon="5.42604">
        <ele>289</ele>
        <time>2016-10-29T13:32:33Z</time>
      </trkpt>
      <trkpt lat="43.41184" lon="5.42595">
        <ele>288</ele>
        <time>2016-10-29T13:32:44Z</time>
      </trkpt>
      <trkpt lat="43.41196" lon="5.42591">
        <ele>288</ele>
        <time>2016-10-29T13:32:53Z</time>
      </trkpt>
      <trkpt lat="43.41204" lon="5.42586">
        <ele>288</ele>
        <time>2016-10-29T13:33:03Z</time>
      </trkpt>
      <trkpt lat="43.41215" lon="5.42575">
        <ele>288</ele>
        <time>2016-10-29T13:33:14Z</time>
      </trkpt>
      <trkpt lat="43.41225" lon="5.42565">
        <ele>288</ele>
        <time>2016-10-29T13:33:24Z</time>
      </trkpt>
      <trkpt lat="43.41234" lon="5.42551">
        <ele>288</ele>
        <time>2016-10-29T13:33:34Z</time>
      </trkpt>
      <trkpt lat="43.41241" lon="5.42538">
        <ele>288</ele>
        <time>2016-10-29T13:33:43Z</time>
      </trkpt>
      <trkpt lat="43.41242" lon="5.4253">
        <ele>290</ele>
        <time>2016-10-29T13:33:54Z</time>
      </trkpt>
      <trkpt lat="43.41238" lon="5.42527">
        <ele>290</ele>
        <time>2016-10-29T13:34:04Z</time>
      </trkpt>
      <trkpt lat="43.41235" lon="5.42526">
        <ele>288</ele>
        <time>2016-10-29T13:34:14Z</time>
      </trkpt>
      <trkpt lat="43.41234" lon="5.42523">
        <ele>284</ele>
        <time>2016-10-29T13:34:26Z</time>
      </trkpt>
      <trkpt lat="43.41239" lon="5.42513">
        <ele>289</ele>
        <time>2016-10-29T13:34:35Z</time>
      </trkpt>
      <trkpt lat="43.41247" lon="5.42505">
        <ele>291</ele>
        <time>2016-10-29T13:34:44Z</time>
      </trkpt>
      <trkpt lat="43.41253" lon="5.42498">
        <ele>298</ele>
        <time>2016-10-29T13:34:53Z</time>
      </trkpt>
      <trkpt lat="43.41263" lon="5.42491">
        <ele>303</ele>
        <time>2016-10-29T13:35:03Z</time>
      </trkpt>
      <trkpt lat="43.4128" lon="5.4249">
        <ele>303</ele>
        <time>2016-10-29T13:35:15Z</time>
      </trkpt>
      <trkpt lat="43.41294" lon="5.42493">
        <ele>299</ele>
        <time>2016-10-29T13:35:24Z</time>
      </trkpt>
      <trkpt lat="43.41304" lon="5.42499">
        <ele>298</ele>
        <time>2016-10-29T13:35:33Z</time>
      </trkpt>
      <trkpt lat="43.41314" lon="5.42509">
        <ele>298</ele>
        <time>2016-10-29T13:35:43Z</time>
      </trkpt>
      <trkpt lat="43.41328" lon="5.42516">
        <ele>297</ele>
        <time>2016-10-29T13:35:53Z</time>
      </trkpt>
      <trkpt lat="43.41338" lon="5.42526">
        <ele>292</ele>
        <time>2016-10-29T13:36:03Z</time>
      </trkpt>
      <trkpt lat="43.41346" lon="5.42537">
        <ele>292</ele>
        <time>2016-10-29T13:36:14Z</time>
      </trkpt>
      <trkpt lat="43.41352" lon="5.42551">
        <ele>292</ele>
        <time>2016-10-29T13:36:23Z</time>
      </trkpt>
      <trkpt lat="43.41359" lon="5.42564">
        <ele>292</ele>
        <time>2016-10-29T13:36:33Z</time>
      </trkpt>
      <trkpt lat="43.41368" lon="5.42576">
        <ele>292</ele>
        <time>2016-10-29T13:36:43Z</time>
      </trkpt>
      <trkpt lat="43.4138" lon="5.42583">
        <ele>292</ele>
        <time>2016-10-29T13:36:53Z</time>
      </trkpt>
      <trkpt lat="43.41391" lon="5.42588">
        <ele>292</ele>
        <time>2016-10-29T13:37:03Z</time>
      </trkpt>
      <trkpt lat="43.41403" lon="5.42594">
        <ele>292</ele>
        <time>2016-10-29T13:37:14Z</time>
      </trkpt>
      <trkpt lat="43.4141" lon="5.42592">
        <ele>292</ele>
        <time>2016-10-29T13:37:23Z</time>
      </trkpt>
      <trkpt lat="43.41424" lon="5.42591">
        <ele>292</ele>
        <time>2016-10-29T13:37:33Z</time>
      </trkpt>
      <trkpt lat="43.41435" lon="5.42592">
        <ele>292</ele>
        <time>2016-10-29T13:37:42Z</time>
      </trkpt>
      <trkpt lat="43.41446" lon="5.42591">
        <ele>292</ele>
        <time>2016-10-29T13:37:51Z</time>
      </trkpt>
      <trkpt lat="43.41455" lon="5.42593">
        <ele>292</ele>
        <time>2016-10-29T13:38:00Z</time>
      </trkpt>
      <trkpt lat="43.4146" lon="5.42603">
        <ele>292</ele>
        <time>2016-10-29T13:38:09Z</time>
      </trkpt>
      <trkpt lat="43.41461" lon="5.42618">
        <ele>292</ele>
        <time>2016-10-29T13:38:19Z</time>
      </trkpt>
      <trkpt lat="43.41461" lon="5.42628">
        <ele>293</ele>
        <time>2016-10-29T13:38:28Z</time>
      </trkpt>
      <trkpt lat="43.41461" lon="5.42641">
        <ele>293</ele>
        <time>2016-10-29T13:38:39Z</time>
      </trkpt>
      <trkpt lat="43.41463" lon="5.4265">
        <ele>291</ele>
        <time>2016-10-29T13:38:48Z</time>
      </trkpt>
      <trkpt lat="43.41464" lon="5.42663">
        <ele>286</ele>
        <time>2016-10-29T13:38:58Z</time>
      </trkpt>
      <trkpt lat="43.41461" lon="5.42676">
        <ele>286</ele>
        <time>2016-10-29T13:39:07Z</time>
      </trkpt>
      <trkpt lat="43.41458" lon="5.42689">
        <ele>289</ele>
        <time>2016-10-29T13:39:16Z</time>
      </trkpt>
      <trkpt lat="43.41458" lon="5.42696">
        <ele>293</ele>
        <time>2016-10-29T13:39:25Z</time>
      </trkpt>
      <trkpt lat="43.4146" lon="5.4271">
        <ele>296</ele>
        <time>2016-10-29T13:39:34Z</time>
      </trkpt>
      <trkpt lat="43.41462" lon="5.42725">
        <ele>298</ele>
        <time>2016-10-29T13:39:44Z</time>
      </trkpt>
      <trkpt lat="43.41462" lon="5.42743">
        <ele>298</ele>
        <time>2016-10-29T13:39:54Z</time>
      </trkpt>
      <trkpt lat="43.41462" lon="5.42758">
        <ele>298</ele>
        <time>2016-10-29T13:40:04Z</time>
      </trkpt>
      <trkpt lat="43.41464" lon="5.42773">
        <ele>298</ele>
        <time>2016-10-29T13:40:14Z</time>
      </trkpt>
      <trkpt lat="43.41462" lon="5.42788">
        <ele>298</ele>
        <time>2016-10-29T13:40:23Z</time>
      </trkpt>
      <trkpt lat="43.4146" lon="5.42799">
        <ele>299</ele>
        <time>2016-10-29T13:40:34Z</time>
      </trkpt>
      <trkpt lat="43.41457" lon="5.4281">
        <ele>299</ele>
        <time>2016-10-29T13:40:47Z</time>
      </trkpt>
      <trkpt lat="43.41459" lon="5.42825">
        <ele>302</ele>
        <time>2016-10-29T13:40:57Z</time>
      </trkpt>
      <trkpt lat="43.41462" lon="5.42838">
        <ele>302</ele>
        <time>2016-10-29T13:41:06Z</time>
      </trkpt>
      <trkpt lat="43.41467" lon="5.42854">
        <ele>302</ele>
        <time>2016-10-29T13:41:16Z</time>
      </trkpt>
      <trkpt lat="43.4147" lon="5.42866">
        <ele>302</ele>
        <time>2016-10-29T13:41:26Z</time>
      </trkpt>
      <trkpt lat="43.41471" lon="5.42879">
        <ele>302</ele>
        <time>2016-10-29T13:41:36Z</time>
      </trkpt>
      <trkpt lat="43.41471" lon="5.42896">
        <ele>302</ele>
        <time>2016-10-29T13:41:45Z</time>
      </trkpt>
      <trkpt lat="43.41471" lon="5.42899">
        <ele>304</ele>
        <time>2016-10-29T13:42:02Z</time>
      </trkpt>
      <trkpt lat="43.4147" lon="5.42913">
        <ele>304</ele>
        <time>2016-10-29T13:42:11Z</time>
      </trkpt>
      <trkpt lat="43.41468" lon="5.42927">
        <ele>304</ele>
        <time>2016-10-29T13:42:20Z</time>
      </trkpt>
      <trkpt lat="43.41468" lon="5.42941">
        <ele>304</ele>
        <time>2016-10-29T13:42:29Z</time>
      </trkpt>
      <trkpt lat="43.41464" lon="5.42954">
        <ele>304</ele>
        <time>2016-10-29T13:42:38Z</time>
      </trkpt>
      <trkpt lat="43.41459" lon="5.42971">
        <ele>304</ele>
        <time>2016-10-29T13:42:48Z</time>
      </trkpt>
      <trkpt lat="43.41454" lon="5.42986">
        <ele>304</ele>
        <time>2016-10-29T13:42:59Z</time>
      </trkpt>
      <trkpt lat="43.41451" lon="5.42997">
        <ele>304</ele>
        <time>2016-10-29T13:43:08Z</time>
      </trkpt>
      <trkpt lat="43.41451" lon="5.42999">
        <ele>304</ele>
        <time>2016-10-29T13:43:16Z</time>
      </trkpt>
    </trkseg>
  </trk>
</gpx>